GFSSGP_500_rhum_000.txt.gz
RH
43 59 47 56 74 66 88 84 91 90 85 88 94 86 87 96 94 96 96 97 86 74 75 90 83 59 35 43 7 6 7 12 10 5 6 6 6 8 11 13 15 15 15 15 15 16 17 16 16
67 80 80 76 62 66 68 97 95 97 93 96 95 94 95 96 93 92 96 95 97 87 69 52 55 44 47 9 6 8 10 9 6 6 6 7 7 7 8 12 14 16 16 16 17 18 19 20 21
72 86 81 79 48 70 70 87 89 87 96 93 93 97 96 96 96 97 96 81 59 48 43 58 53 46 19 7 5 5 7 7 6 7 7 8 7 6 6 9 13 15 15 16 18 20 21 22 23
87 77 83 72 33 76 76 94 81 97 97 93 85 94 96 96 97 95 75 76 64 58 50 56 50 20 6 4 2 5 6 5 6 7 8 8 6 5 6 10 12 12 13 17 21 22 20 20 18
81 69 82 86 52 64 78 85 92 89 96 95 99 95 94 96 92 81 79 75 56 51 42 41 23 6 4 3 5 6 6 6 6 7 6 6 7 9 9 9 10 15 21 23 22 17 15 16 18
67 68 76 88 42 70 68 66 88 92 95 95 96 93 96 96 85 91 83 62 58 64 37 22 10 8 4 5 5 5 5 6 6 6 7 9 9 10 13 17 21 22 22 20 20 18 19 23 25
67 67 92 91 68 71 93 100 98 94 97 89 90 67 61 78 69 84 83 46 20 19 17 12 9 6 3 5 5 5 6 6 7 8 8 11 14 16 18 21 23 19 24 26 26 25 26 27 26
72 66 88 92 89 100 95 96 95 95 95 90 87 52 52 32 31 17 4 4 8 10 12 8 4 3 4 5 5 4 5 6 8 12 14 18 21 23 21 18 16 20 19 18 17 19 18 18 20
74 73 84 90 94 96 96 97 96 90 89 83 34 29 30 18 12 4 6 5 9 10 6 2 3 3 4 5 5 8 12 16 17 20 24 26 22 18 15 20 17 12 16 18 23 28 29 28 27
85 91 92 96 97 96 96 97 95 57 43 56 24 17 19 10 4 4 8 9 7 4 6 7 6 6 5 8 12 18 24 26 29 33 40 47 45 46 47 42 39 28 36 36 33 36 35 37 39
86 91 87 85 86 94 98 96 75 19 11 11 11 10 13 5 4 6 5 5 6 6 5 6 9 9 12 18 22 22 25 34 51 64 75 76 68 60 57 55 55 45 43 41 38 41 44 42 40
99 94 84 96 97 95 84 60 51 7 9 12 10 10 6 7 6 4 4 5 8 10 12 12 11 12 16 20 26 27 41 36 55 90 90 72 46 56 57 44 45 47 44 47 43 41 39 38 35
91 92 96 79 71 68 55 56 44 7 13 13 11 12 13 10 7 6 8 11 16 18 15 14 14 15 21 24 32 43 38 36 46 76 72 53 40 34 27 29 39 43 41 39 36 37 35 34 34
82 68 78 79 66 51 45 37 6 6 13 15 16 17 14 14 12 13 17 17 16 15 16 18 20 20 21 18 17 49 54 54 65 87 48 42 44 42 34 41 44 46 46 43 43 42 40 39 36
93 77 53 39 41 54 30 4 4 15 15 19 20 18 19 16 16 18 20 23 26 22 24 28 24 18 14 35 66 85 98 98 95 100 80 87 77 55 51 56 56 53 50 47 40 27 14 10 9
73 65 31 19 24 7 6 6 9 22 20 17 22 19 17 21 20 22 25 30 30 26 25 24 20 42 68 97 98 97 97 98 99 96 79 98 86 70 66 64 58 49 29 12 9 10 10 10 10
52 52 10 20 6 6 13 17 29 26 34 26 20 19 19 23 23 22 32 41 60 66 53 23 51 78 91 100 98 97 96 96 94 99 89 75 69 70 62 58 45 27 16 12 10 12 14 15 15
43 26 23 15 10 13 14 17 38 44 25 19 21 19 23 24 26 34 39 45 48 40 37 35 67 94 100 98 88 68 70 70 86 85 82 73 71 60 58 53 37 18 14 16 17 18 17 16 14
31 67 92 51 20 25 24 24 25 22 20 20 19 21 23 22 35 46 47 56 59 49 62 73 85 96 71 57 53 43 43 64 79 74 67 61 61 61 44 26 20 20 20 19 19 19 18 17 16
27 48 56 39 31 24 47 31 16 13 11 11 14 31 58 55 50 40 68 74 80 71 86 72 54 57 50 49 50 54 54 60 60 66 68 62 49 30 25 26 25 24 23 22 23 22 24 24 22
77 45 50 62 50 32 32 20 16 16 16 16 21 33 44 44 75 81 87 91 77 80 70 64 63 68 74 61 58 62 64 66 65 60 46 31 29 31 33 34 36 36 35 38 38 29 20 18 24
78 73 60 79 80 68 59 38 20 16 16 23 33 42 47 82 72 98 79 81 62 45 46 79 96 71 62 55 60 67 68 58 44 38 34 34 38 47 57 55 44 36 33 25 19 15 17 20 23
58 41 58 78 68 73 62 38 18 14 23 31 40 45 53 54 79 78 100 76 58 73 100 98 62 60 61 64 72 66 46 45 47 49 56 63 58 43 37 32 28 26 24 19 16 19 24 31 37
23 26 35 50 55 40 17 17 16 22 30 30 48 65 73 78 55 65 68 66 96 99 79 58 85 84 70 64 49 48 52 53 52 47 41 39 39 35 30 26 26 24 20 19 24 35 43 42 33
20 20 21 23 23 21 21 19 16 18 31 57 63 65 68 46 43 47 65 57 63 57 56 72 69 64 48 38 38 44 50 49 43 38 40 40 34 30 27 29 22 22 26 32 40 47 42 40 28
25 27 28 25 20 18 20 24 30 40 38 36 37 35 32 29 32 39 47 42 41 46 64 62 51 42 36 40 46 49 46 44 46 45 41 36 33 34 33 26 30 36 44 50 48 41 30 18 15
19 22 23 25 25 27 25 19 19 20 22 22 21 24 22 21 22 27 31 33 36 36 39 46 43 41 49 50 45 50 57 57 52 47 40 39 40 34 32 34 35 42 42 47 41 28 17 13 23
24 27 25 20 18 17 18 18 18 18 18 18 19 20 20 20 20 20 21 22 22 25 30 33 36 45 56 56 58 63 62 58 48 46 47 46 39 38 38 36 41 48 46 36 20 12 14 22 26
22 16 18 20 19 20 20 20 19 17 18 19 20 22 25 27 27 25 23 22 23 25 26 33 48 57 61 61 64 65 63 55 53 53 50 46 43 38 36 44 47 40 26 15 11 14 18 21 39
15 19 20 16 16 16 16 17 15 14 14 15 19 25 28 27 27 27 27 26 27 30 36 44 52 58 62 70 73 66 59 58 57 54 52 47 39 40 49 48 34 23 13 10 12 19 33 66 80

GFSSGP_500_rhum_003.txt.gz
RH
30 34 26 22 30 38 56 68 72 87 87 70 72 71 57 59 60 94 96 96 94 97 79 82 82 83 81 55 45 12 8 8 8 4 7 8 8 11 13 14 15 15 15 15 14 15 15 16 17
36 31 39 42 41 43 61 69 69 67 80 88 85 64 82 81 94 96 96 96 96 91 85 92 78 82 69 54 20 9 8 8 6 6 7 7 8 9 9 8 10 13 15 14 13 15 17 15 15
39 49 66 84 80 65 65 67 65 79 77 92 95 91 96 95 95 96 96 94 96 91 86 96 89 81 69 30 17 10 5 7 7 7 8 8 8 8 7 7 8 11 12 11 13 16 15 13 10
55 58 78 84 64 65 83 76 92 98 98 95 92 96 96 96 96 94 95 90 86 90 93 96 73 83 46 21 13 3 6 7 6 7 7 8 8 8 8 9 8 8 10 14 14 12 13 12 11
61 65 77 90 62 68 82 86 93 98 97 95 96 95 90 95 96 96 94 90 95 89 82 96 83 69 29 24 5 6 7 6 6 6 6 7 8 8 8 8 11 14 16 14 12 12 14 15 16
53 73 65 66 81 56 62 71 88 94 99 96 88 92 89 93 95 93 93 93 93 92 88 86 70 40 19 6 6 8 8 7 6 6 6 7 7 7 11 14 17 16 9 11 12 18 18 18 19
58 66 67 66 91 69 43 85 82 94 90 96 95 95 89 78 86 96 97 97 92 49 52 48 28 17 11 6 6 8 8 8 7 7 7 7 8 12 17 19 15 13 15 16 14 15 14 14 15
79 73 66 74 84 92 62 71 85 96 97 97 94 72 81 79 74 70 32 28 22 23 20 22 15 7 5 6 9 9 8 7 8 10 11 12 15 17 16 19 28 38 36 35 13 17 24 20 12
75 85 69 72 80 97 97 91 95 94 96 94 82 43 36 34 26 16 5 5 17 18 17 12 6 8 10 11 9 10 12 12 13 14 16 18 17 22 44 54 51 46 46 38 24 29 30 29 26
77 82 74 92 85 97 90 96 97 94 75 82 61 16 20 17 7 8 10 14 17 14 10 12 13 12 11 14 14 19 15 18 18 21 22 23 34 57 68 57 50 53 46 41 42 39 34 36 36
90 78 82 97 88 96 95 93 69 46 19 22 14 11 16 9 6 7 7 9 10 10 10 11 13 14 14 15 18 22 22 22 20 22 26 24 52 74 73 53 34 47 28 32 39 41 40 40 38
82 78 90 98 93 85 52 45 43 16 16 14 15 12 7 7 9 7 6 5 7 10 11 12 11 10 15 20 22 19 18 18 20 23 40 64 87 85 66 48 38 28 26 38 43 42 38 35 36
87 99 97 95 92 81 47 44 37 23 14 14 17 17 17 16 13 12 13 16 22 24 19 16 17 21 18 24 25 25 19 23 67 76 79 68 66 55 58 66 50 33 37 41 49 52 44 40 36
95 88 94 92 91 54 52 39 31 6 15 15 17 20 21 22 22 26 28 27 21 15 18 22 20 23 27 28 15 23 34 43 81 96 97 98 98 98 92 76 60 62 57 50 44 43 42 37 23
85 70 64 62 61 54 54 23 5 5 12 20 24 21 21 22 20 20 19 18 19 24 24 25 29 33 17 45 56 84 99 98 89 97 98 98 99 98 79 88 81 72 62 50 44 33 11 5 7
93 90 80 36 23 45 46 11 5 15 22 40 32 28 23 24 25 27 21 19 17 15 15 17 24 40 53 86 89 99 99 98 98 98 95 94 90 96 100 89 75 60 54 51 44 19 7 7 10
85 67 58 27 34 40 26 13 13 21 25 35 25 24 21 27 29 34 39 38 34 35 38 47 70 68 78 89 98 97 92 68 47 46 47 51 83 96 81 65 57 53 46 30 22 17 17 17 18
62 57 31 34 18 11 19 22 33 64 53 50 24 20 18 23 26 29 49 51 55 52 50 44 72 83 91 86 64 42 42 48 54 45 51 63 64 62 64 60 50 28 20 22 25 24 22 22 21
54 32 36 29 26 28 37 35 44 36 31 30 27 20 21 23 39 57 63 58 51 54 57 82 89 78 58 42 49 64 64 60 52 52 64 71 71 66 51 31 25 28 30 30 28 27 25 23 22
34 43 97 86 34 24 37 36 22 17 16 22 18 18 23 26 37 43 42 51 63 66 62 36 42 36 41 64 71 63 55 52 48 56 60 50 38 34 32 33 35 35 36 36 33 30 28 24 20
43 88 90 79 54 34 39 22 19 21 22 20 24 30 30 35 45 52 77 82 80 76 82 70 51 43 62 66 68 51 52 50 47 38 32 33 40 43 43 46 47 48 44 36 32 33 27 24 23
32 76 64 86 100 86 49 30 23 21 17 21 25 31 42 38 44 56 61 80 97 99 58 60 84 71 74 61 42 43 49 45 39 45 52 55 57 57 54 51 49 41 37 38 38 31 26 25 23
42 78 80 55 54 56 40 27 24 16 20 23 26 29 46 49 67 56 33 30 34 39 71 60 63 69 46 66 69 71 54 53 56 63 64 62 54 49 49 49 43 42 42 41 36 30 26 22 22
67 41 51 46 32 25 24 28 15 19 21 20 32 44 49 59 82 56 35 26 32 85 49 29 28 30 42 64 84 69 50 45 48 50 51 52 56 54 48 44 46 49 47 40 31 26 25 26 33
36 24 22 22 20 17 21 21 17 22 30 41 36 28 38 39 35 30 24 21 26 26 23 23 25 30 34 38 41 43 44 47 51 53 54 58 55 54 54 54 51 44 39 35 31 28 33 35 25
22 21 21 20 24 25 21 19 26 33 36 30 21 20 19 21 23 23 21 20 20 21 21 22 23 25 27 29 32 35 41 48 54 57 57 60 59 59 56 49 45 45 40 33 34 36 35 24 12
19 20 24 22 22 23 23 22 21 22 19 16 17 18 20 22 23 24 25 24 24 23 23 23 25 26 27 27 30 32 44 49 63 75 72 66 64 59 53 53 50 40 35 36 37 37 22 11 10
16 20 24 25 20 18 19 18 18 17 18 18 20 20 22 26 27 27 28 29 29 28 28 28 28 27 28 32 34 36 51 68 71 72 68 65 57 54 54 48 39 37 37 40 40 20 10 9 9
24 28 22 20 20 20 21 22 21 18 17 16 16 17 25 31 33 35 37 35 33 31 31 31 29 36 35 36 35 45 58 66 66 63 60 60 58 51 42 40 39 38 42 38 17 10 10 12 22
25 18 20 22 19 17 17 17 17 16 15 15 19 23 32 38 41 39 37 38 38 38 38 38 39 40 42 42 47 54 60 63 61 63 68 61 49 45 44 41 41 42 31 12 10 11 18 35 38

GFSSGP_500_rhum_006.txt.gz
RH
6 23 28 27 26 22 37 46 32 50 66 58 61 84 88 89 86 75 73 67 79 77 92 97 89 91 98 86 66 44 19 8 9 6 4 8 8 10 12 13 14 13 12 12 11 11 12 13 13
18 31 32 28 21 37 79 34 31 32 55 65 81 87 83 80 85 67 68 72 93 95 96 96 97 97 96 92 63 32 24 7 7 4 6 8 8 8 10 10 11 11 10 10 10 12 13 12 9
37 38 22 31 49 76 94 36 25 59 75 78 100 91 89 83 67 70 72 93 94 96 95 96 95 96 96 95 64 34 25 5 6 6 7 7 7 8 8 9 9 9 8 10 12 10 8 8 9
50 38 37 60 84 87 68 43 60 81 77 98 97 98 96 94 95 90 96 96 96 96 94 95 93 83 98 81 40 27 5 7 8 7 8 7 7 7 8 9 8 8 11 10 7 7 8 10 12
48 52 60 83 98 67 64 64 87 96 85 100 94 99 95 96 96 96 95 95 96 96 96 96 96 97 94 52 45 8 7 8 8 6 6 6 6 8 8 7 9 13 11 9 12 17 17 9 10
69 54 66 88 97 64 49 67 86 98 87 96 95 97 98 95 88 81 93 97 95 95 96 95 94 92 73 53 17 7 10 10 8 6 6 6 6 7 7 10 12 12 12 25 33 28 27 13 14
65 58 83 89 75 81 53 57 78 79 96 98 95 97 95 94 92 92 97 94 96 95 90 97 95 44 39 16 8 8 11 10 8 6 6 6 6 7 10 12 13 13 28 40 42 34 29 10 15
69 55 78 75 72 73 92 72 55 93 97 96 95 94 89 88 90 69 92 89 88 89 76 72 66 48 46 19 7 11 9 7 6 4 5 7 10 14 15 15 13 26 36 46 40 28 19 16 14
71 61 88 88 65 64 87 94 94 97 98 95 96 94 50 26 22 34 56 76 81 61 46 35 37 34 32 22 11 9 7 5 4 6 9 15 17 23 21 18 22 46 57 48 39 25 18 17 21
71 83 99 91 67 100 97 96 97 100 98 96 81 28 27 18 12 7 25 26 32 26 27 22 15 21 18 12 7 5 5 10 13 15 18 17 18 28 28 30 36 63 64 46 30 23 26 29 35
61 76 95 78 98 98 94 52 61 42 97 70 67 37 20 14 12 17 22 23 21 19 15 12 11 10 8 8 13 19 26 24 21 20 20 23 34 39 41 40 48 70 60 42 34 28 32 35 38
56 88 92 90 98 93 56 47 32 59 28 20 12 12 9 13 11 12 9 9 10 10 10 8 10 14 17 19 23 22 22 24 18 21 27 46 70 88 96 83 73 55 48 47 42 36 43 37 36
86 98 93 96 92 87 64 41 34 20 18 18 17 18 19 17 15 15 16 12 11 12 16 18 20 18 19 21 24 25 19 12 38 60 53 67 99 98 98 99 96 73 75 61 54 53 57 44 39
97 87 95 98 98 76 84 34 35 16 16 19 18 18 22 32 25 28 26 22 22 23 23 21 22 26 28 29 19 37 44 48 79 97 99 98 93 98 98 98 97 87 75 63 67 64 58 50 44
86 82 95 89 85 63 54 30 16 12 25 15 20 22 22 22 20 20 24 27 27 27 27 27 34 30 25 28 42 75 70 98 99 95 93 94 82 82 74 91 86 69 83 88 78 57 55 48 43
84 80 76 51 53 44 42 23 8 16 30 28 23 29 27 24 21 26 28 27 24 26 22 30 46 54 64 67 79 97 99 96 97 96 86 81 92 93 77 60 52 79 94 81 64 52 31 25 21
91 88 80 50 22 37 41 21 10 31 37 43 39 31 27 28 30 32 42 38 42 38 41 52 55 51 75 95 98 90 79 82 65 66 60 59 58 57 66 80 80 70 70 67 43 26 25 29 27
89 57 54 40 35 30 40 34 25 38 71 71 59 36 25 26 30 30 30 46 50 54 49 50 56 65 62 53 47 46 41 41 54 62 54 57 61 70 72 70 61 51 40 32 27 28 28 28 29
77 58 63 44 34 28 47 52 59 72 54 43 32 25 25 22 26 34 50 54 43 30 33 64 73 72 63 49 42 34 40 74 69 52 50 47 42 38 34 32 32 33 34 32 30 32 36 42 39
62 50 86 63 39 50 58 53 49 44 31 29 32 33 29 23 23 30 33 38 49 71 72 77 96 73 42 54 64 72 81 50 37 26 27 32 34 35 39 46 51 54 57 55 56 53 47 46 44
52 84 98 99 59 43 57 37 22 22 29 29 27 28 26 25 34 49 70 75 79 67 70 88 73 26 23 28 34 49 27 24 40 57 51 47 50 57 63 67 69 65 64 62 54 50 50 52 48
81 73 95 91 91 80 62 91 27 32 30 28 28 27 26 35 48 55 56 36 31 28 27 29 25 21 23 26 21 23 29 37 53 70 69 67 60 59 61 62 66 66 61 56 56 54 51 43 41
67 58 64 57 71 84 65 44 63 26 31 28 22 26 32 45 66 55 44 34 23 21 20 22 23 24 21 20 20 22 27 30 33 39 45 49 56 63 66 66 61 58 57 57 50 45 42 38 36
75 33 60 86 77 61 31 30 80 20 24 18 18 24 44 57 53 31 23 19 19 20 20 20 20 21 20 20 21 23 25 27 30 30 33 42 51 56 60 58 60 58 53 45 39 37 37 36 33
44 73 57 43 39 35 25 21 17 16 20 29 28 42 37 28 22 20 19 20 21 22 23 23 24 24 24 24 25 27 30 30 27 30 35 41 48 58 62 59 54 50 46 40 42 42 40 35 34
68 48 37 25 22 45 20 19 20 27 31 34 25 21 19 17 18 21 23 24 27 29 29 28 28 29 29 31 33 32 28 29 34 32 36 48 52 54 52 51 55 53 53 52 49 37 33 32 32
27 24 24 26 22 22 22 24 26 23 20 17 16 17 19 21 24 25 26 29 33 34 34 34 34 34 36 38 39 46 41 40 37 32 44 54 52 52 58 62 58 57 57 41 31 31 30 31 16
22 20 18 18 21 23 21 21 19 17 17 17 18 19 18 20 27 30 34 38 38 37 38 39 41 42 44 43 45 44 45 43 37 37 56 60 63 67 66 62 63 57 36 31 31 33 23 6 8
15 16 22 27 23 20 22 22 21 20 17 16 15 14 16 21 30 33 36 36 33 32 33 35 42 44 47 48 47 47 46 46 41 53 64 70 76 74 70 70 53 34 32 33 32 12 5 8 11
22 25 26 20 22 19 19 19 17 18 17 16 15 16 18 22 23 23 23 25 25 26 26 30 40 45 49 51 50 50 53 49 46 68 78 81 78 74 76 55 34 34 36 26 4 6 8 11 12

GFSSGP_500_rhum_012.txt.gz
RH
7 9 19 21 19 6 8 11 16 85 69 42 30 31 61 84 69 80 53 85 96 91 94 91 84 84 63 78 94 83 76 68 64 44 13 6 6 8 10 12 12 12 10 8 8 8 7 6 5
6 9 14 24 14 15 10 69 81 56 50 20 26 32 21 52 55 69 62 66 80 96 95 97 93 80 76 92 95 87 87 84 71 27 9 6 6 8 9 10 10 10 9 8 8 8 7 6 11
6 12 13 17 12 10 48 96 81 47 41 27 20 30 42 23 48 65 66 76 79 94 99 97 90 89 95 95 96 96 99 94 67 16 7 4 6 8 8 8 8 8 8 7 8 8 9 25 30
9 19 14 12 9 16 68 66 51 58 51 42 25 16 18 31 48 66 64 70 67 84 96 91 90 94 95 96 98 96 96 94 63 7 7 4 6 8 7 7 7 8 7 8 8 8 12 20 33
39 32 28 27 36 77 94 63 28 37 76 38 55 40 39 47 41 59 62 87 84 88 99 94 96 95 97 96 97 96 95 90 25 8 7 6 7 7 6 6 8 8 7 7 9 10 10 12 18
67 61 52 42 38 57 89 47 40 50 94 84 90 88 60 35 56 71 78 87 96 97 97 97 96 96 97 96 97 95 93 38 11 8 6 6 6 5 5 6 7 7 8 11 12 10 11 17 29
74 63 54 62 90 83 92 87 33 35 95 76 49 78 96 51 68 73 95 91 98 96 97 96 96 96 96 97 95 84 53 22 8 7 6 6 6 4 6 8 11 11 10 16 16 14 16 21 48
78 69 54 82 85 91 97 95 84 62 63 25 40 59 80 83 86 83 91 89 96 97 96 96 95 97 96 96 94 79 46 18 8 8 7 8 7 12 14 12 12 14 38 63 70 29 18 23 39
81 76 42 61 67 87 93 94 84 78 40 71 20 54 74 75 84 84 88 97 98 96 95 96 96 95 92 93 83 35 10 9 9 9 9 12 14 12 12 14 32 53 53 74 87 85 57 35 39
74 70 73 93 100 92 92 93 62 97 70 91 76 87 94 62 63 94 74 89 96 96 96 90 94 83 54 25 23 24 14 7 13 14 14 12 14 29 58 66 58 66 59 80 93 88 76 72 58
79 69 100 83 94 94 84 85 91 67 93 90 97 88 80 73 74 98 92 67 81 50 12 8 12 17 14 10 9 12 15 19 21 30 28 34 35 63 89 74 67 69 66 78 75 72 65 62 56
92 75 95 86 81 91 97 87 64 65 80 85 93 49 45 48 62 40 41 41 6 6 6 7 8 8 9 15 16 21 25 24 40 51 86 86 89 78 73 70 70 71 67 65 62 50 48 50 56
94 90 100 92 82 90 79 83 67 83 46 74 77 12 22 18 17 7 4 4 5 8 10 11 15 18 18 21 22 24 42 56 59 91 100 97 73 66 69 67 70 64 51 43 54 53 46 41 52
97 84 68 83 88 94 94 96 55 45 45 29 16 15 14 9 9 7 8 9 14 20 25 27 26 26 25 31 46 63 77 82 96 98 85 57 50 53 54 40 37 33 30 59 73 56 41 47 53
95 78 59 96 97 100 93 73 38 25 30 30 24 18 17 20 19 14 14 20 24 28 32 30 30 37 47 54 60 80 98 86 60 44 45 61 62 34 25 30 35 33 36 74 97 62 45 37 36
97 91 95 97 76 68 84 74 26 16 10 18 18 15 15 17 17 16 17 19 21 24 36 40 44 54 58 57 65 80 57 43 33 38 34 30 18 22 22 23 27 30 34 36 37 37 38 37 39
84 99 97 95 72 53 74 78 30 7 19 15 14 13 15 18 17 16 18 18 27 34 43 44 47 51 56 50 89 66 56 24 20 17 17 18 17 18 17 19 22 23 24 25 26 28 31 32 35
94 91 90 88 78 42 78 76 50 4 25 96 12 13 13 14 18 18 22 23 22 31 42 48 43 36 47 61 59 54 21 17 17 17 17 17 18 18 18 17 18 20 22 24 28 32 38 47 56
94 92 96 92 56 44 88 83 40 7 24 52 45 59 13 17 25 28 30 31 34 41 37 31 49 62 62 56 34 15 18 17 17 18 20 22 24 23 24 24 23 21 21 21 24 32 38 45 55
98 96 89 80 56 35 81 97 14 14 24 23 18 14 15 13 17 25 27 30 32 53 53 54 46 33 22 20 17 18 18 18 21 24 27 30 32 31 32 34 32 28 25 25 25 40 42 47 53
98 96 86 96 23 38 91 100 99 25 25 62 23 22 17 15 21 26 33 40 40 46 47 39 43 20 18 19 20 19 20 23 25 28 33 35 38 39 38 38 36 34 28 25 32 49 52 54 62
98 78 100 95 80 61 84 95 95 76 33 18 18 19 16 14 15 25 35 36 46 60 58 28 19 19 20 21 22 23 25 25 30 31 32 37 32 38 42 42 38 37 31 28 42 60 68 66 58
85 100 81 95 99 98 84 91 83 85 67 24 37 39 21 15 14 17 22 31 55 52 31 17 20 25 26 26 28 29 31 30 30 33 37 40 42 44 45 45 41 40 33 37 58 68 69 61 47
45 35 50 94 84 99 93 95 92 93 98 98 81 79 41 22 15 14 13 23 40 32 17 19 26 30 28 30 32 32 29 30 34 36 38 43 44 48 47 44 46 42 43 60 66 66 55 41 36
30 39 85 87 87 64 95 97 81 82 79 98 79 60 34 20 13 15 20 24 17 20 20 24 29 26 23 27 27 24 26 27 28 27 26 27 29 35 41 47 49 50 64 69 68 56 47 40 32
83 50 99 88 90 87 94 76 99 89 66 46 31 40 18 18 26 27 17 17 20 22 24 26 22 20 21 20 21 23 26 26 25 26 27 31 37 42 47 48 54 65 76 74 66 59 50 35 26
77 86 86 93 98 89 66 70 69 47 80 91 57 19 20 18 16 18 18 18 22 25 24 22 20 18 19 21 22 24 25 26 27 27 29 36 46 50 50 53 68 75 70 67 68 59 37 28 21
27 56 35 30 23 18 18 72 92 92 64 50 18 16 16 18 18 15 14 15 17 18 18 18 19 20 22 23 24 26 28 30 30 32 40 50 53 54 53 69 80 77 73 71 69 50 36 31 30
24 25 20 24 38 24 20 77 97 78 63 21 20 17 16 15 15 15 15 16 17 19 20 22 22 22 24 26 27 28 30 33 34 47 56 60 58 55 74 82 75 76 77 72 61 43 31 41 31
18 37 32 16 16 16 20 26 38 57 34 19 18 17 16 16 16 16 18 20 21 21 20 22 25 27 31 31 32 33 35 43 55 63 59 58 58 68 82 82 69 76 67 48 48 36 61 64 30

GFSSGP_500_rhum_015.txt.gz
RH
10 12 16 20 17 7 7 21 63 73 60 59 64 82 65 81 69 43 34 39 52 92 96 95 96 97 92 91 87 95 93 90 94 80 72 50 13 8 8 12 13 13 12 10 9 7 7 5 5
10 10 15 14 11 7 22 38 56 41 26 65 65 49 51 51 60 41 19 26 38 67 59 91 96 94 87 83 92 91 97 92 97 94 74 30 8 7 8 10 11 11 10 9 7 7 7 7 9
7 10 9 7 9 10 42 47 53 82 40 25 42 44 31 29 31 53 35 23 49 62 89 100 88 90 92 94 97 96 93 95 96 93 74 22 8 6 8 8 8 8 8 8 7 8 8 8 10
5 7 12 15 11 11 63 86 36 50 67 50 69 68 44 22 27 36 51 65 66 78 80 76 78 86 98 98 97 96 97 96 94 94 68 25 7 6 8 7 7 7 8 8 7 9 11 9 9
5 6 11 9 12 62 62 52 62 64 84 62 68 68 54 54 34 30 58 77 82 74 93 96 98 98 98 98 96 98 96 96 95 90 62 10 6 8 8 7 6 6 7 9 11 11 11 13 12
10 10 11 9 45 93 93 90 63 68 76 56 53 55 50 52 48 55 86 97 97 92 93 96 96 98 97 96 97 96 96 96 81 31 12 17 8 7 6 5 5 6 8 9 11 32 44 24 15
26 21 30 50 76 88 70 73 96 82 48 42 32 63 54 79 76 60 81 87 99 92 97 95 96 96 96 96 97 96 94 78 75 65 14 7 6 6 9 8 7 8 10 14 20 48 54 61 43
74 46 44 68 91 86 70 97 93 96 77 59 64 47 32 35 60 93 70 67 76 86 96 97 96 97 96 97 96 94 90 91 63 23 22 28 15 7 9 11 11 12 10 36 47 50 59 58 71
82 79 61 73 90 100 99 95 96 75 68 86 70 70 70 35 68 87 82 90 88 96 98 96 96 96 97 95 92 73 43 31 16 15 15 13 13 11 10 18 46 57 53 51 48 49 55 57 60
85 59 88 94 95 99 97 97 82 75 71 76 82 79 86 92 93 94 100 100 93 97 99 94 96 94 94 86 65 48 37 34 18 14 14 15 15 26 26 47 53 56 52 53 52 42 55 61 57
81 81 87 88 98 67 87 99 84 82 83 84 68 95 96 96 100 96 98 96 98 96 94 90 87 38 33 15 13 13 15 14 16 22 29 41 46 47 47 44 54 45 40 39 55 56 49 45 55
78 99 89 96 84 83 100 95 97 73 61 62 66 84 95 96 98 97 96 94 84 48 65 56 23 18 13 14 14 16 20 32 38 47 47 64 68 59 55 41 45 28 21 17 17 14 17 24 36
93 96 96 91 98 92 73 49 64 82 63 46 94 95 82 78 95 91 66 31 6 4 4 8 12 15 17 19 26 37 58 65 60 61 64 70 67 39 42 38 25 15 15 15 16 16 17 28 27
94 100 89 95 92 64 69 80 87 61 42 26 56 95 20 25 12 34 17 10 5 9 15 16 19 20 26 34 34 36 63 93 80 45 28 31 36 25 17 18 18 18 20 20 21 22 26 29 34
99 100 86 99 74 80 98 86 79 31 34 27 40 33 33 24 13 8 8 9 10 14 16 17 24 29 33 34 35 53 62 56 41 29 20 17 18 17 18 19 20 19 18 19 20 23 24 28 28
76 99 80 69 67 97 95 62 26 14 13 16 16 13 20 18 11 16 12 14 16 18 28 39 37 33 38 40 33 62 80 48 43 17 17 17 18 20 22 24 24 25 26 25 24 24 24 22 21
93 87 95 92 90 65 82 55 70 26 9 15 12 12 14 12 12 10 12 13 23 33 24 32 38 45 36 25 33 54 53 29 18 17 18 21 24 27 29 29 30 31 33 34 32 31 29 25 22
100 84 96 91 61 68 73 62 67 33 6 62 31 14 14 14 12 13 12 13 24 38 40 34 20 20 30 40 48 55 20 18 18 18 21 23 27 26 30 34 37 41 40 36 32 35 37 31 28
95 95 80 67 37 47 62 80 85 56 12 62 71 87 62 15 19 33 11 13 12 27 42 26 27 25 25 26 19 17 18 18 19 21 22 24 28 32 36 39 40 35 34 36 36 40 40 34 34
100 99 94 96 84 49 82 73 90 19 16 21 18 38 22 28 20 13 9 11 13 15 39 54 43 24 19 18 18 18 20 21 21 22 23 25 30 32 36 40 38 34 36 39 37 37 40 40 42
96 89 95 91 79 57 76 94 94 44 20 24 22 26 16 13 16 19 19 12 9 14 37 63 48 23 17 20 20 21 21 20 24 27 29 31 32 33 31 29 29 29 31 33 31 39 45 48 55
85 98 93 83 93 25 70 94 78 98 56 82 32 23 24 16 17 20 36 10 10 13 38 47 33 25 22 24 22 19 18 20 23 25 26 24 22 22 23 24 24 26 28 30 35 47 51 59 62
91 88 93 70 91 85 98 94 80 86 70 84 57 42 26 11 16 19 24 15 17 16 37 40 20 20 26 26 23 23 23 22 22 22 21 22 23 24 25 25 26 26 33 42 46 55 64 58 43
48 47 66 90 76 99 95 83 87 80 88 70 91 64 50 31 25 20 17 16 24 30 36 34 25 21 26 22 24 25 26 25 23 22 22 24 25 26 26 27 28 40 47 48 56 64 56 41 32
39 31 39 38 62 62 71 78 87 95 87 91 54 53 57 36 19 15 23 36 26 19 26 23 23 24 26 26 27 23 21 22 23 24 25 26 28 30 30 37 45 48 49 56 71 61 47 42 44
70 37 76 90 82 43 58 87 95 86 72 44 46 68 68 24 20 28 36 21 19 21 22 20 20 22 22 20 20 21 23 24 25 27 29 31 33 34 43 54 54 52 54 65 67 64 60 55 50
77 86 78 100 77 81 95 77 99 79 64 28 64 40 17 16 36 46 37 15 15 15 16 16 16 18 20 22 23 23 25 30 32 34 38 46 57 77 69 62 58 56 58 63 59 66 66 59 48
51 46 71 72 61 18 19 29 30 83 72 87 48 19 18 18 18 18 16 16 16 18 19 19 19 20 21 24 32 39 39 38 39 51 67 84 72 86 68 100 60 65 71 65 69 87 92 86 71
35 24 34 44 29 20 18 66 67 70 58 41 44 20 18 18 17 17 17 17 18 20 21 21 20 22 33 43 43 41 42 54 80 79 76 78 82 76 69 58 68 71 87 79 82 100 100 100 97
27 21 32 40 31 20 12 17 28 74 75 72 53 23 18 17 17 16 16 16 18 20 23 31 31 31 32 38 46 55 73 80 68 61 71 80 79 68 68 77 77 75 73 88 100 100 76 77 100

GFSSGP_500_rhum_018.txt.gz
RH
8 11 12 13 12 11 21 44 74 76 68 43 31 53 98 94 84 59 43 45 41 32 41 66 64 86 95 93 94 97 96 96 96 96 97 94 80 42 8 13 11 12 12 12 11 9 7 7 6
8 10 11 11 13 14 24 54 67 63 42 32 34 55 62 78 71 70 44 22 42 51 45 43 66 88 89 100 83 94 96 96 95 98 99 98 78 20 9 14 12 12 12 10 9 8 8 8 8
10 7 11 11 10 16 48 72 40 57 38 30 35 74 65 68 88 67 48 28 26 65 42 47 57 78 86 91 82 96 89 96 99 100 97 96 74 52 23 10 10 10 9 8 8 8 7 9 9
9 7 10 13 12 34 64 75 58 46 66 60 54 37 51 64 64 58 43 28 33 38 63 56 64 71 81 87 83 95 97 94 98 96 96 96 70 34 8 8 10 8 8 7 8 7 7 8 7
9 7 8 13 59 69 48 64 40 53 64 81 84 75 73 66 60 51 59 54 55 61 72 86 87 90 97 97 98 97 96 95 97 96 95 89 52 29 15 9 8 8 6 7 7 8 8 15 30
9 8 12 54 60 48 38 76 59 72 78 83 84 60 57 60 45 55 64 69 78 90 91 96 96 94 97 98 98 97 97 98 97 94 79 29 11 12 19 8 7 7 18 8 7 8 32 34 50
10 29 50 63 56 64 65 49 64 98 90 87 45 35 31 38 46 66 76 93 95 96 96 96 97 98 97 97 96 97 98 97 91 50 36 48 51 20 7 6 17 26 8 12 20 34 47 45 52
27 64 73 66 80 67 68 74 61 79 80 72 74 64 48 67 78 62 58 94 89 97 96 96 96 96 96 96 97 95 96 87 80 68 53 34 16 16 11 20 32 13 23 40 42 42 40 44 36
86 91 68 72 85 83 84 70 77 71 85 86 85 89 94 74 76 55 79 100 95 86 100 85 96 96 94 96 96 96 97 91 78 65 45 22 24 32 42 20 13 25 34 41 37 21 23 49 53
88 89 60 68 88 80 67 89 78 97 98 81 96 83 62 94 94 79 100 97 100 98 88 98 98 96 94 95 93 90 79 66 62 49 34 22 24 27 28 28 36 37 36 31 12 10 13 26 39
90 92 88 70 92 64 60 80 98 96 94 81 56 51 70 77 95 95 100 98 97 97 98 97 96 92 85 79 72 64 54 44 38 30 25 28 32 50 51 42 46 36 20 12 12 12 11 11 12
81 96 85 88 66 44 61 75 82 90 88 52 53 62 58 100 96 97 96 97 87 89 93 87 68 77 75 39 20 23 21 27 37 44 47 50 53 55 43 29 15 14 14 14 14 13 13 13 13
88 80 98 67 52 66 93 88 94 80 72 56 61 88 85 89 94 96 96 92 84 39 14 16 23 23 18 21 26 35 54 60 65 64 43 32 23 24 18 14 14 15 17 19 19 18 19 19 18
85 86 85 60 52 84 84 92 89 41 28 24 60 97 94 95 91 73 12 5 6 7 12 13 13 16 17 23 28 35 47 57 59 47 34 22 15 16 16 19 21 21 23 22 22 23 22 20 21
90 94 60 73 84 92 76 90 84 29 31 27 65 67 36 36 10 10 20 8 12 15 15 14 21 29 36 35 38 52 56 57 41 39 20 16 17 20 23 24 23 23 22 21 21 22 23 24 29
89 81 95 76 100 86 91 78 40 22 25 12 18 51 52 21 18 20 14 13 14 18 30 30 32 31 31 27 19 28 53 43 29 17 17 17 21 22 25 26 24 22 22 23 24 26 26 30 35
65 73 76 86 83 95 56 67 30 12 11 21 23 14 18 16 15 15 13 14 19 32 33 27 19 18 25 29 32 40 49 32 18 16 17 19 20 23 26 26 26 29 32 34 37 34 33 36 36
77 99 97 97 94 81 47 60 61 35 20 68 65 28 14 12 13 15 14 13 13 25 34 34 22 25 26 28 26 25 20 18 18 19 20 20 21 21 24 25 26 27 28 26 26 26 29 30 32
87 85 97 91 64 65 62 61 75 85 35 61 79 68 63 16 18 34 13 12 16 18 15 30 47 43 33 27 26 19 19 20 21 20 20 18 18 20 22 22 22 23 24 25 25 26 29 33 34
74 81 81 56 57 49 60 69 96 77 21 25 33 75 69 35 21 18 19 19 14 14 17 36 47 48 23 19 20 20 21 22 22 21 20 19 21 22 22 22 23 25 27 28 26 26 29 36 40
91 96 80 69 69 72 70 51 53 59 66 55 39 31 18 17 15 13 23 27 16 14 16 44 53 41 22 22 25 24 23 24 21 21 20 21 21 22 22 24 25 24 27 27 26 31 41 43 45
89 78 84 94 89 85 65 63 58 56 77 66 71 56 20 17 18 15 14 28 16 17 28 43 63 54 34 23 26 27 25 26 23 21 22 21 22 23 24 25 26 27 30 32 42 46 45 48 52
76 85 89 90 85 96 50 58 70 96 89 73 60 65 68 37 24 17 26 22 14 27 38 42 45 58 46 22 26 28 27 21 19 20 21 22 22 24 26 29 30 33 45 54 50 49 50 52 59
51 66 74 80 73 79 68 78 84 91 98 100 76 55 37 23 44 55 51 16 24 34 28 62 32 29 24 27 28 22 18 18 20 21 21 23 28 32 32 35 49 64 62 83 64 58 51 53 60
59 46 94 74 76 73 72 64 50 73 86 84 77 52 40 52 28 26 21 26 28 39 39 22 28 28 30 23 30 34 32 22 19 22 30 35 34 34 46 70 69 69 69 82 62 64 59 60 67
52 61 42 40 56 77 80 65 45 72 77 68 48 68 74 60 32 22 40 41 19 26 18 18 25 20 24 28 41 50 62 26 29 34 38 38 39 62 80 76 73 66 67 63 60 61 68 68 69
65 64 65 55 66 53 83 71 80 77 64 32 47 44 22 18 20 36 28 24 21 19 18 26 36 38 29 44 46 52 56 34 38 42 43 48 68 92 71 71 69 72 68 60 65 67 66 66 66
45 70 73 79 72 46 56 26 34 23 36 78 71 48 23 21 19 17 17 17 21 18 18 18 20 23 38 40 53 70 54 49 58 64 66 74 78 75 64 65 72 70 70 80 74 68 62 61 71
88 60 59 55 74 57 28 27 21 18 48 64 55 36 34 20 18 18 18 19 19 19 19 21 22 26 42 53 62 65 76 97 100 98 71 94 73 66 71 79 73 74 87 83 74 84 92 100 100
95 44 38 22 25 35 22 15 49 43 69 56 25 18 18 20 18 18 20 21 20 22 22 21 30 44 45 61 85 98 99 98 92 80 43 55 74 83 87 79 79 86 85 82 86 95 99 95 90

GFSSGP_500_rhum_024.txt.gz
RH
16 12 14 9 18 17 19 21 43 47 77 86 82 78 94 95 92 71 58 69 85 88 59 58 50 58 51 59 67 62 55 94 97 90 80 92 85 82 86 85 73 30 15 13 12 13 12 9 7
13 13 13 9 15 27 37 41 49 45 39 82 95 98 92 94 80 66 49 55 68 82 77 64 66 68 64 52 55 43 40 68 100 90 89 93 90 83 86 86 72 36 15 12 13 12 10 8 8
13 12 13 10 12 37 60 49 34 46 52 76 91 88 84 88 86 62 58 67 80 72 67 66 64 73 65 60 43 47 35 81 98 99 98 97 90 92 93 80 58 24 11 28 19 12 9 7 11
15 12 13 12 17 36 60 44 37 43 48 60 85 85 82 76 64 61 77 59 61 64 60 68 80 82 79 65 57 63 55 100 97 100 97 91 96 100 94 61 63 21 39 26 16 14 30 25 31
15 12 14 13 23 28 35 49 42 38 47 63 73 81 84 79 59 69 80 71 65 61 70 80 85 95 87 67 72 99 97 97 97 97 94 96 100 97 89 87 59 44 29 20 15 20 23 34 24
16 15 17 14 20 34 47 53 38 57 47 45 69 80 82 74 72 56 58 55 64 75 72 62 98 94 98 100 90 90 96 94 96 96 96 97 97 98 92 56 28 18 10 12 11 33 30 25 12
19 19 20 21 31 59 58 64 46 60 81 84 69 82 99 91 79 59 58 55 58 59 64 74 95 96 97 95 97 88 96 94 96 96 96 97 95 85 49 67 17 13 15 28 34 42 24 20 27
24 24 37 39 48 74 72 67 64 64 61 78 91 86 96 91 83 79 66 60 60 54 59 88 96 96 96 98 95 98 96 96 97 96 96 92 84 70 34 16 17 24 36 37 26 26 30 21 10
34 65 75 71 78 74 66 67 59 54 52 75 78 98 94 90 86 61 52 56 50 59 52 52 90 97 98 97 97 95 97 98 98 96 96 94 53 35 49 46 55 49 35 34 43 31 10 11 12
99 67 71 75 81 89 93 66 81 52 43 69 74 76 95 92 78 68 49 53 71 62 49 68 96 96 96 97 97 96 97 98 98 95 95 84 81 85 67 47 46 41 33 19 13 14 15 14 14
96 73 85 79 83 82 94 91 78 80 71 86 97 96 88 60 68 66 54 59 85 97 95 97 97 96 95 97 96 97 97 97 95 92 93 86 67 49 47 53 47 30 14 15 16 15 16 17 16
100 99 100 99 90 86 96 93 91 82 96 92 77 72 56 62 61 85 100 84 97 96 98 84 84 73 76 90 96 94 93 86 73 50 42 58 54 56 49 21 15 16 18 19 17 16 16 15 15
95 93 98 97 89 90 97 93 89 91 57 64 69 70 76 83 93 96 96 97 96 94 92 84 54 49 49 52 45 52 48 42 41 39 54 40 32 19 17 16 19 19 19 17 15 14 14 14 14
87 95 87 90 98 94 97 91 49 43 25 50 72 91 91 91 98 95 96 82 53 28 31 33 28 38 43 39 37 36 63 71 74 67 57 35 16 16 17 19 18 17 18 16 14 15 15 15 13
74 95 82 93 88 83 89 76 67 32 26 46 70 51 36 37 38 42 36 18 17 19 20 21 23 28 34 41 39 46 53 75 56 46 31 18 17 18 20 20 18 17 16 15 16 17 17 17 15
69 97 93 90 90 84 85 92 66 37 13 44 48 88 20 22 20 25 24 21 19 23 30 35 38 40 37 34 24 29 34 57 57 25 16 17 18 19 18 16 14 15 17 17 18 19 17 18 19
68 99 95 72 70 81 90 78 47 49 14 37 41 22 15 16 18 19 23 24 34 42 39 29 23 22 22 23 20 32 35 49 27 17 17 18 18 17 16 16 15 17 18 19 19 18 21 25 27
83 83 80 64 61 82 94 82 38 42 67 55 28 22 17 17 14 15 18 25 31 41 47 36 33 33 26 20 16 35 21 16 18 18 18 18 17 19 18 16 17 19 20 20 22 29 31 34 45
82 73 74 64 67 86 87 79 37 53 66 73 71 24 17 20 17 18 17 16 15 12 21 36 46 39 32 22 20 29 24 30 19 18 18 18 18 18 17 17 19 20 20 28 34 34 41 61 60
83 74 81 78 78 86 68 55 46 38 27 46 68 59 36 22 36 18 18 13 12 16 24 33 40 41 34 22 18 22 21 21 20 20 19 18 19 18 18 20 21 26 32 36 39 47 64 75 64
98 95 93 67 53 41 39 39 58 71 47 66 55 65 52 30 21 24 24 17 14 14 20 22 49 46 48 27 19 22 25 23 21 25 34 22 20 20 27 31 34 35 41 47 51 58 94 98 74
98 100 86 70 53 70 77 64 54 73 71 76 70 96 55 24 25 20 18 25 29 14 14 36 56 50 63 42 22 22 21 21 25 40 60 49 52 53 55 60 58 62 55 63 100 91 86 91 66
98 90 77 64 69 62 75 63 61 62 68 75 75 79 76 42 27 30 33 37 42 59 25 30 46 39 50 60 50 43 36 38 35 48 55 62 77 76 71 80 83 75 81 69 72 99 100 94 71
77 78 70 63 54 50 48 54 53 55 69 81 74 63 75 70 57 42 42 48 92 87 62 39 62 75 61 76 91 50 29 31 41 55 71 77 89 96 88 83 86 86 87 87 80 44 51 49 55
70 65 70 68 57 58 58 50 41 53 62 60 69 60 50 45 34 65 66 85 88 71 64 55 75 72 49 91 89 75 60 57 60 64 79 92 100 100 94 86 91 92 86 72 50 47 54 54 56
76 65 65 71 61 69 66 49 47 52 50 64 61 74 54 42 58 53 48 44 47 65 58 49 47 55 64 87 98 79 67 60 54 84 97 100 100 100 95 100 96 92 86 61 57 59 55 56 56
73 65 61 58 53 54 55 40 33 37 41 55 49 58 57 30 37 18 22 50 84 91 88 39 30 24 28 40 54 52 51 67 72 97 100 99 97 92 100 96 82 87 89 59 58 52 55 62 60
94 77 71 60 50 40 42 44 42 38 59 54 66 64 67 52 25 18 19 18 17 24 19 18 19 19 19 25 50 74 71 74 84 94 94 99 92 85 88 83 88 100 64 56 54 62 65 60 58
96 80 72 60 67 58 45 36 28 41 45 39 26 30 63 68 42 21 20 19 19 19 19 20 20 23 38 57 80 75 87 87 90 94 100 94 85 79 94 91 99 74 55 57 74 69 62 78 87
88 78 68 64 60 62 67 29 17 25 29 24 20 20 60 79 55 32 25 21 20 19 20 20 25 50 71 67 73 88 95 97 100 100 100 98 99 84 73 95 79 59 70 85 67 60 77 85 93

GFSSGP_500_rhum_027.txt.gz
RH
16 13 16 14 14 12 17 21 26 35 61 80 67 74 81 92 85 92 95 90 94 90 78 72 64 56 49 55 54 45 44 54 46 93 92 60 69 84 96 94 92 73 57 24 13 13 14 13 9
17 16 14 14 14 12 26 32 25 22 35 65 78 71 64 66 84 84 91 89 81 77 82 80 71 70 72 62 60 54 42 49 40 50 66 73 85 90 97 98 94 75 50 16 14 12 13 11 8
20 17 12 12 13 15 46 44 27 23 33 72 89 88 76 72 78 84 88 88 75 54 61 72 72 66 70 58 60 48 44 38 48 52 86 100 88 91 97 99 96 71 33 15 14 20 20 13 20
24 18 14 13 16 22 54 47 37 36 57 67 80 81 76 96 93 76 84 83 71 66 59 60 60 65 78 76 73 62 59 50 54 51 98 81 87 97 95 97 85 43 36 14 13 33 16 23 22
26 17 13 14 18 26 47 57 65 46 68 80 73 82 90 81 78 82 73 64 57 62 60 72 80 81 83 84 75 77 65 70 78 92 95 82 91 96 95 87 74 69 62 43 33 21 11 14 26
23 16 14 18 21 41 43 68 56 53 67 70 80 84 80 74 79 81 69 58 76 86 76 78 84 86 95 97 84 92 96 89 98 97 90 87 97 99 90 85 88 74 58 27 11 13 29 34 31
23 19 20 27 43 52 64 63 72 71 77 65 77 76 70 68 68 73 69 66 58 53 65 68 68 73 87 98 94 88 91 96 98 94 95 97 96 97 95 77 69 26 16 16 29 29 39 32 30
25 25 47 77 81 85 75 70 73 76 70 70 65 46 40 70 94 87 82 76 52 63 64 59 66 92 95 96 94 91 92 96 96 96 100 97 96 91 81 33 19 14 35 34 30 40 37 33 10
31 52 87 98 96 69 77 72 69 69 66 61 69 50 44 74 96 88 80 69 64 65 65 71 96 86 63 81 84 90 96 96 95 96 97 95 96 65 36 27 44 41 35 46 36 32 13 12 12
80 73 75 84 93 89 74 84 75 66 43 54 60 70 63 73 84 92 88 70 52 53 50 70 68 58 75 95 97 97 95 97 96 97 97 89 65 54 58 50 46 48 53 36 15 13 13 11 11
67 68 81 85 86 73 98 97 92 92 87 54 59 72 63 63 71 86 82 69 50 45 59 68 71 76 94 96 97 97 97 97 96 96 94 87 81 75 62 56 52 54 30 14 13 11 11 12 13
77 76 98 80 84 67 92 92 96 95 96 84 60 90 87 80 71 72 75 80 98 94 85 81 92 87 97 94 97 96 96 94 94 93 91 86 68 66 64 65 34 17 15 12 11 12 13 13 15
82 82 79 100 69 98 80 95 95 92 60 96 95 74 60 63 77 79 94 86 97 96 91 87 78 83 91 92 96 91 84 70 59 48 51 67 60 43 33 22 15 14 11 13 13 14 14 14 14
87 80 66 91 100 94 87 87 39 28 53 87 92 80 78 80 97 93 99 98 97 78 55 42 43 43 33 28 31 32 35 44 45 52 65 43 35 21 17 15 13 14 16 15 14 14 14 14 14
78 86 98 84 98 96 99 59 50 33 25 76 48 30 33 24 52 82 86 53 34 27 25 24 29 26 30 36 38 51 71 57 64 65 58 54 20 16 16 16 16 17 15 14 14 15 16 15 13
71 97 100 100 83 88 93 93 66 48 22 74 52 23 26 19 20 22 21 18 20 21 24 27 29 34 42 45 41 52 57 68 67 54 31 24 16 16 18 16 17 16 15 16 16 16 16 17 16
87 88 99 98 97 98 96 89 85 64 25 49 51 24 24 24 27 28 24 20 19 24 34 38 40 40 35 29 25 32 34 54 61 50 15 15 16 18 20 19 15 16 17 18 17 18 17 13 12
78 87 97 98 87 86 98 85 64 88 63 33 18 17 18 22 26 25 32 38 37 36 32 24 17 18 21 22 23 29 32 53 42 26 20 16 18 20 18 16 16 17 20 19 25 27 22 17 18
71 90 91 82 73 85 90 84 58 69 60 72 56 19 18 22 24 26 32 42 52 41 46 41 35 31 30 26 22 40 34 21 26 29 19 17 18 20 18 18 17 19 25 35 48 55 41 27 51
79 84 77 70 66 76 96 86 52 42 55 50 68 49 24 23 24 20 20 24 19 22 32 41 51 43 36 28 24 45 37 32 63 28 19 21 22 23 26 28 35 50 57 63 68 70 60 48 53
84 87 75 67 83 98 79 69 58 58 74 71 66 75 62 26 29 14 18 17 17 19 23 28 44 63 58 51 27 21 26 60 50 25 22 26 46 52 55 68 78 78 70 71 66 71 66 63 56
80 84 85 78 83 69 50 51 60 68 68 99 91 98 51 29 22 22 22 19 26 23 18 21 37 36 50 58 44 22 24 52 24 20 23 34 42 54 66 76 76 75 78 76 68 93 98 78 75
84 86 80 85 79 48 53 52 61 65 72 92 100 100 100 35 19 22 21 18 19 25 26 33 27 46 52 46 61 54 26 34 48 43 35 42 52 65 81 83 83 82 84 83 80 68 100 100 91
71 88 86 78 47 55 58 59 58 59 75 83 94 96 97 98 52 23 20 18 24 32 37 58 48 38 46 49 78 83 43 67 42 49 51 57 71 89 89 94 94 92 89 87 88 95 93 92 90
68 73 73 72 59 59 63 57 53 55 59 64 72 82 89 86 88 62 43 40 38 34 63 66 52 43 67 71 43 86 92 95 96 93 78 74 80 97 99 100 100 100 96 98 100 99 93 100 72
69 80 68 63 55 56 52 45 45 54 52 42 48 78 73 73 59 63 68 76 72 71 78 61 55 56 58 61 79 72 62 86 92 90 97 100 96 100 100 100 98 99 100 96 100 100 100 88 54
75 81 79 68 60 53 50 46 43 41 38 40 50 52 55 71 46 47 52 51 48 42 48 84 67 75 45 32 26 23 48 84 98 97 98 96 94 100 98 96 100 100 100 100 99 98 85 51 68
84 93 82 66 62 62 49 37 32 40 45 43 52 63 48 60 70 56 22 23 34 55 75 97 80 33 22 21 24 57 95 97 94 92 100 99 99 100 100 96 100 100 100 88 82 63 59 69 67
96 93 90 78 71 60 44 49 58 34 26 40 45 44 52 60 50 63 28 20 20 19 19 39 54 25 22 25 56 93 93 93 90 93 89 96 100 100 99 94 98 90 55 58 72 88 76 78 76
89 80 92 97 75 65 52 40 59 35 17 33 40 38 27 19 48 82 55 40 25 24 21 20 20 21 29 87 95 90 85 77 73 76 95 99 100 100 87 58 66 46 52 85 93 72 74 84 82

GFSSGP_500_rhum_030.txt.gz
RH
12 18 16 14 15 16 18 37 21 21 28 59 79 75 76 93 81 86 89 94 89 82 74 84 69 71 68 64 55 43 39 35 30 37 44 77 77 58 83 84 89 82 76 64 50 26 19 13 13
17 20 18 13 15 31 62 23 38 24 21 42 73 63 38 63 85 78 84 92 98 88 80 94 76 70 69 67 56 47 41 37 34 40 42 44 52 91 87 87 93 82 79 71 50 31 18 13 13
20 24 20 14 14 44 73 39 30 27 22 27 49 45 88 97 97 97 92 90 96 87 78 94 84 80 72 66 61 51 48 41 37 42 48 46 68 96 78 90 92 88 84 64 55 30 14 23 16
24 24 19 16 24 45 33 49 46 44 55 31 27 52 88 97 97 96 98 100 88 89 75 72 68 70 73 75 60 55 62 61 56 50 56 52 89 97 84 94 84 85 82 57 40 21 17 23 16
23 22 18 15 17 18 31 63 58 59 64 52 44 44 87 92 91 96 88 81 78 77 68 72 62 66 71 64 67 76 69 80 65 60 84 72 91 95 96 95 89 83 70 63 41 32 28 15 24
21 19 19 64 32 22 49 70 61 54 65 68 79 70 76 100 92 86 71 56 59 66 70 76 74 78 76 72 70 71 89 82 85 83 99 98 98 97 95 88 87 80 86 69 43 23 17 37 34
18 17 32 19 38 68 41 61 60 70 56 60 70 82 70 72 76 79 73 74 75 79 91 89 86 80 82 62 62 72 97 86 83 97 100 98 95 98 97 90 92 74 43 18 12 30 33 39 37
18 18 30 46 80 62 61 68 66 71 68 54 55 58 64 68 56 65 74 86 83 73 91 83 79 85 96 86 97 98 95 96 95 96 97 88 97 97 100 86 72 33 15 30 35 34 33 37 22
20 24 99 78 51 58 61 62 64 68 76 61 56 49 53 63 67 65 80 82 89 91 78 82 88 100 79 78 95 96 96 95 96 96 95 96 96 96 90 53 23 21 47 43 46 39 28 13 12
24 50 77 91 99 100 84 58 62 68 80 82 60 58 51 56 55 57 62 70 73 81 73 73 74 95 96 95 97 83 96 96 99 97 96 95 95 95 52 33 47 50 48 51 42 17 14 11 10
49 68 77 79 78 82 94 89 78 69 91 70 60 77 82 74 70 60 54 67 76 76 67 70 60 71 91 88 91 96 97 95 96 97 97 96 94 85 68 60 54 54 53 51 25 15 10 10 10
64 69 72 69 66 58 72 90 97 98 100 90 52 80 74 86 72 54 74 61 64 77 74 69 86 63 72 95 97 98 97 96 97 97 96 95 90 76 71 64 59 61 42 20 14 11 11 12 12
72 79 99 76 46 96 58 73 77 52 80 89 99 80 56 86 82 80 74 62 70 70 71 74 83 74 96 95 97 98 97 98 96 97 84 81 83 75 63 61 60 22 18 13 12 12 12 10 10
74 76 81 90 98 85 95 80 35 35 59 91 96 93 88 90 91 68 88 93 100 98 98 96 96 96 91 93 98 96 97 83 63 53 55 62 62 51 29 28 19 20 15 13 13 12 11 11 10
67 91 71 81 100 97 81 62 41 28 49 65 35 64 35 63 96 98 96 98 97 95 90 72 65 54 56 51 50 42 36 37 38 46 57 50 40 31 19 18 19 16 14 13 13 13 12 11 10
51 82 97 100 100 98 91 93 76 30 44 63 27 22 26 36 52 85 88 86 40 28 27 26 24 27 42 57 30 32 54 50 46 64 60 60 56 19 17 17 17 16 14 14 14 12 12 15 23
58 100 97 89 100 100 92 86 79 75 64 77 45 58 25 25 22 23 31 27 23 22 21 24 24 27 36 31 30 34 39 64 78 71 69 64 32 18 17 16 17 16 14 13 12 12 21 31 35
100 100 100 100 96 95 94 90 74 82 54 65 24 20 23 25 26 24 32 32 30 32 34 31 29 27 26 23 20 29 52 61 74 79 66 30 18 17 18 19 18 16 14 14 23 38 49 44 33
46 75 100 96 83 78 85 87 74 66 64 62 54 20 19 23 28 26 30 37 35 32 28 23 20 22 23 26 27 29 39 36 54 65 35 21 18 18 19 18 18 19 29 43 52 61 63 57 47
48 64 87 83 73 73 93 91 72 63 74 55 71 33 23 18 22 26 35 42 42 39 41 38 36 39 40 33 25 22 32 38 37 36 40 25 24 21 21 26 54 55 60 60 66 61 57 49 44
44 79 63 70 61 71 99 95 79 53 45 43 70 67 55 29 27 22 22 34 22 22 29 36 44 51 50 46 34 25 39 42 39 67 50 58 27 26 39 49 55 66 70 69 61 36 39 44 52
52 54 73 37 39 99 86 98 64 70 64 70 62 61 52 59 30 20 18 19 17 17 18 21 25 33 38 48 56 53 26 30 43 84 90 43 32 32 44 52 61 76 76 69 58 65 74 82 60
72 67 80 92 75 92 72 60 84 58 66 84 82 60 70 32 24 24 22 22 23 28 30 31 33 30 39 61 57 49 68 50 37 42 80 55 45 49 53 57 69 82 80 76 73 85 72 87 83
51 57 61 89 96 83 55 61 98 81 70 70 82 81 83 83 78 34 20 19 19 21 25 28 43 75 67 49 57 70 89 84 73 61 78 54 65 80 83 87 85 82 79 85 94 90 88 84 85
64 52 98 100 97 96 68 59 74 69 62 71 75 86 78 84 78 78 82 37 31 25 30 30 39 73 69 42 64 86 72 62 97 98 98 98 98 98 99 97 92 98 97 100 100 86 99 95 95
68 74 77 100 100 100 74 58 76 59 56 51 50 57 68 69 86 94 85 68 69 68 58 58 50 68 63 46 65 66 68 76 70 72 86 98 98 98 98 93 99 99 96 99 95 87 100 100 78
54 68 92 71 72 79 87 63 64 52 41 38 35 31 48 75 94 100 87 72 74 63 54 61 57 57 59 58 65 41 59 52 48 83 98 98 96 97 94 95 93 88 81 93 81 100 88 99 48
78 76 77 63 75 70 93 66 75 47 40 36 38 43 52 58 72 82 64 56 36 62 75 52 55 72 89 88 39 23 23 34 78 98 98 98 96 97 91 89 76 100 99 99 100 98 95 56 88
82 78 83 94 77 64 81 82 54 58 61 36 27 42 43 50 66 59 72 75 26 23 24 30 29 40 62 69 24 22 24 87 98 97 89 84 75 92 94 92 99 100 100 98 91 75 58 88 94
100 100 100 100 94 64 62 54 59 61 55 47 23 33 41 41 38 32 38 63 60 33 25 22 22 22 22 22 23 24 58 61 78 76 42 59 75 60 60 70 67 55 49 49 73 64 95 100 100

GFSSGP_500_rhum_033.txt.gz
RH
4 5 7 16 15 17 56 66 60 76 81 78 44 98 86 84 78 97 96 71 70 88 91 90 87 81 80 73 66 63 59 49 41 37 37 37 63 70 64 58 69 76 78 73 66 53 40 18 14
5 6 11 18 16 67 60 61 71 76 93 80 28 24 87 86 58 84 67 46 79 96 91 96 97 94 79 72 66 62 62 48 40 40 37 38 38 46 48 67 75 81 79 72 75 60 36 20 15
6 6 17 33 80 61 72 91 79 81 49 28 32 23 55 54 54 58 51 57 44 97 92 96 96 95 78 70 72 68 66 56 44 44 45 42 42 44 54 71 74 85 79 78 79 58 40 18 19
7 9 19 19 70 65 77 85 57 37 28 29 90 98 30 72 81 87 77 97 61 67 96 93 97 96 85 70 68 79 79 56 54 76 60 44 42 50 57 84 80 87 79 81 80 54 31 18 24
7 13 23 87 72 74 61 44 20 35 100 65 20 26 32 39 61 96 93 98 85 93 84 92 78 75 65 70 73 71 68 59 77 75 66 54 64 59 65 83 92 90 91 80 63 61 28 28 14
8 15 74 77 70 78 61 26 28 40 38 56 46 74 68 36 45 80 92 94 92 88 91 76 78 84 74 65 66 66 69 96 90 87 79 76 89 78 81 96 95 92 81 76 76 51 31 13 36
8 29 88 88 100 88 99 22 38 49 46 32 98 45 81 66 67 63 65 77 92 96 75 72 72 92 87 78 70 63 73 80 84 95 96 97 99 86 86 99 90 87 82 67 28 14 19 37 36
8 16 96 98 100 95 46 17 33 51 94 45 51 48 74 80 85 70 64 71 98 91 96 96 94 94 93 80 75 74 72 72 84 96 96 96 97 87 98 98 94 85 54 18 19 33 36 32 36
8 54 99 100 96 86 30 30 43 36 49 54 52 54 76 92 69 79 72 83 94 93 84 86 96 94 96 96 95 93 76 95 95 94 96 96 95 96 96 96 92 48 23 32 42 43 40 34 19
10 95 100 68 99 100 59 51 42 53 60 56 66 46 54 66 65 74 78 72 84 85 87 94 94 84 96 93 97 96 98 97 96 97 95 96 96 96 96 96 68 24 40 47 42 42 29 15 12
34 100 93 100 78 58 78 83 65 65 94 98 80 63 67 78 61 50 55 50 63 95 88 83 94 75 96 66 78 96 93 96 95 97 96 96 97 97 95 93 34 50 50 49 43 45 22 11 11
20 48 40 45 29 30 28 45 72 84 71 92 83 61 78 56 59 60 60 61 63 62 68 81 99 86 73 97 98 95 95 95 96 96 98 98 98 96 96 92 67 56 58 54 44 19 12 11 10
30 56 83 55 38 34 86 72 57 57 90 76 94 72 56 64 55 59 67 67 62 76 74 84 84 83 73 74 89 96 97 97 99 98 97 98 97 92 78 72 65 62 60 28 17 14 13 11 10
42 32 52 83 94 61 90 95 76 49 52 75 85 95 66 60 57 70 76 79 74 80 73 91 95 91 98 97 97 97 96 95 97 98 98 96 84 68 72 64 61 52 20 19 15 14 12 11 11
47 51 40 45 62 80 67 66 78 60 65 78 44 95 88 83 97 96 99 73 80 83 91 100 97 97 97 96 95 96 89 96 97 88 63 62 70 60 49 29 27 20 19 15 14 12 11 10 10
36 58 99 89 66 63 48 97 62 59 41 68 25 28 44 55 80 78 99 98 99 95 95 94 87 75 54 57 50 51 42 39 41 68 68 61 46 42 26 20 20 19 16 15 13 12 12 11 25
55 100 98 84 67 62 78 96 56 57 61 64 54 33 21 24 25 58 92 93 52 44 31 27 32 46 58 46 22 28 39 50 61 69 76 67 68 48 20 20 19 18 16 13 13 12 14 29 38
100 90 85 74 99 76 100 100 48 57 57 62 20 20 24 23 25 25 25 32 41 31 25 24 36 52 58 47 25 24 46 62 72 82 84 71 61 34 19 19 18 17 15 16 15 24 42 42 36
99 97 100 95 96 70 98 80 98 58 56 54 41 47 16 19 20 25 26 31 29 29 27 19 21 18 28 52 20 20 28 50 78 93 90 73 31 20 18 18 17 17 18 22 47 47 45 45 22
38 96 90 99 72 56 91 99 95 67 57 63 53 28 20 17 18 21 24 32 29 31 33 29 26 25 24 27 26 23 22 27 38 68 80 51 29 21 20 20 20 27 37 56 50 49 59 54 48
76 97 98 92 96 55 54 92 92 86 44 48 47 57 28 25 21 18 21 29 35 30 20 19 22 26 29 32 36 34 26 28 40 34 48 50 40 34 23 27 29 37 40 48 61 80 79 62 65
100 64 98 72 58 100 86 98 96 100 54 26 40 55 48 34 23 29 17 16 14 12 13 13 12 12 16 22 30 42 52 40 32 44 44 66 77 70 31 26 33 52 61 65 85 85 76 63 59
99 96 83 100 100 100 87 89 82 90 89 52 38 56 34 44 49 20 21 17 16 14 14 16 18 18 18 22 27 42 48 47 55 34 22 30 55 75 55 49 67 80 79 84 93 84 78 74 83
79 51 65 99 98 99 97 86 92 100 97 100 98 58 64 68 67 57 34 19 18 18 19 21 20 21 26 48 68 46 51 64 73 81 75 73 73 83 91 81 94 98 96 95 95 97 91 100 100
43 67 100 100 98 82 100 68 99 94 100 72 79 93 86 72 73 72 77 81 94 76 36 33 35 42 42 43 63 58 51 81 86 80 85 80 76 85 97 97 99 98 93 90 86 100 99 96 99
55 82 93 98 96 99 88 47 61 98 88 70 63 65 67 78 59 67 81 92 87 68 62 66 68 71 70 88 64 66 52 62 58 55 58 68 97 97 97 98 96 92 84 80 84 93 100 100 100
89 97 62 91 75 76 100 86 72 66 59 56 54 50 50 37 43 70 84 85 92 67 58 55 64 65 64 61 71 95 57 61 37 24 26 69 94 97 98 97 80 75 87 87 85 100 100 97 98
31 94 91 93 98 80 95 95 99 71 68 41 34 35 36 40 43 71 92 96 97 87 62 36 49 63 65 62 75 98 68 35 23 23 54 87 96 90 72 78 71 59 70 81 99 89 95 100 94
18 26 51 99 100 97 98 98 89 97 56 54 55 43 33 40 56 67 76 88 85 80 68 34 27 29 34 28 33 31 58 40 45 46 40 47 63 54 30 32 24 20 29 29 80 76 53 35 36
99 90 99 100 100 96 85 88 97 82 68 54 50 45 49 19 38 47 58 82 80 78 71 47 25 22 21 21 22 22 44 30 35 61 49 72 66 54 33 12 10 12 15 37 37 27 41 47 53

GFSSGP_500_rhum_036.txt.gz
RH
6 2 4 5 7 11 24 45 56 63 79 83 74 86 88 51 81 71 64 45 93 86 83 64 64 75 87 81 76 67 66 68 64 58 51 44 36 36 53 66 60 55 70 75 68 67 55 42 27
4 3 5 5 11 40 70 89 65 79 76 75 48 63 64 47 79 66 65 80 87 87 96 96 90 84 92 88 79 72 74 73 69 60 41 34 32 33 34 42 56 63 80 80 71 72 69 52 36
3 5 5 7 37 48 80 70 79 74 42 24 22 26 43 49 89 99 93 86 96 93 100 97 96 92 83 81 86 83 80 78 74 62 40 34 38 35 37 37 43 71 81 85 76 83 66 51 39
5 6 9 18 61 71 74 72 69 43 30 22 45 65 90 91 47 94 99 96 96 96 77 95 96 91 96 95 99 90 86 84 79 64 47 63 62 45 41 46 53 84 84 93 88 82 69 58 41
6 7 38 88 86 70 70 54 21 14 16 61 90 71 84 80 46 50 66 85 95 97 97 89 82 88 98 98 98 99 95 88 77 70 58 84 72 56 55 54 60 93 99 94 92 74 66 60 37
6 12 90 90 82 87 60 25 23 13 14 20 74 62 65 67 70 54 23 70 60 91 96 93 92 96 92 95 93 84 72 69 71 73 95 88 86 65 73 73 92 92 90 91 79 70 68 40 17
6 34 81 89 78 85 79 54 55 100 84 44 41 93 94 56 68 52 44 33 70 87 97 93 96 88 91 89 88 90 84 75 62 90 83 92 84 82 87 85 97 96 95 87 78 59 32 18 36
8 33 93 96 99 99 75 65 94 28 39 33 95 96 95 62 76 72 66 72 90 90 95 91 97 90 95 92 82 72 70 63 68 94 80 82 96 96 92 91 94 93 91 86 44 13 23 37 32
10 48 95 96 99 53 85 54 18 55 62 77 68 85 68 64 64 57 72 74 86 96 94 95 95 95 97 83 80 89 86 90 73 88 84 91 96 93 94 95 97 96 95 66 20 38 40 35 30
20 62 96 99 65 40 50 32 64 80 58 71 93 78 59 34 54 62 62 72 86 95 97 96 96 96 95 95 95 94 96 95 91 87 96 96 96 96 96 96 96 96 95 41 47 43 34 23 17
21 78 98 96 20 18 32 48 54 59 69 76 93 86 77 36 47 57 64 68 70 66 77 93 96 86 89 89 88 96 78 91 96 95 95 96 97 96 96 97 96 95 70 55 45 34 32 24 11
14 54 65 30 18 14 26 67 68 54 58 78 74 91 71 50 47 61 62 52 52 65 64 82 62 69 84 93 89 78 78 97 95 94 92 96 97 95 97 97 96 94 80 55 42 34 26 12 11
21 21 39 49 70 66 39 75 79 70 45 70 77 72 57 46 56 42 48 55 64 60 55 49 62 75 73 76 99 70 83 96 76 74 99 97 94 98 98 97 95 83 71 57 38 25 14 11 10
48 16 29 72 95 68 58 86 61 64 65 76 43 97 74 50 62 64 59 57 57 64 51 46 70 66 76 93 69 77 97 95 96 97 97 96 97 98 97 92 78 68 55 38 21 16 13 12 12
10 15 34 83 56 42 35 72 74 49 52 58 35 38 71 55 69 65 55 55 76 59 55 61 65 71 97 93 98 97 97 96 97 96 95 96 97 95 94 76 66 58 37 21 18 15 13 13 13
10 25 61 89 98 89 82 71 82 50 52 55 50 31 39 47 54 59 65 79 93 60 72 75 88 98 97 97 95 91 95 94 88 93 97 92 73 73 52 29 26 25 20 20 17 15 14 13 14
26 48 88 86 88 65 56 88 92 73 59 52 48 42 18 24 28 48 76 83 82 75 66 73 75 88 64 66 46 50 63 45 60 58 54 55 55 50 33 21 18 20 21 18 17 15 14 12 34
100 77 100 97 95 99 73 84 95 82 68 50 37 18 11 15 31 16 35 70 56 43 34 30 40 45 44 33 20 29 35 49 58 68 77 84 69 61 31 18 19 21 19 18 16 15 14 32 47
95 90 95 99 92 88 64 94 70 92 70 62 44 59 16 11 15 39 23 21 29 30 26 22 21 21 35 52 28 14 20 29 41 72 82 82 91 56 25 20 19 19 18 17 15 18 30 40 47
49 82 96 93 64 65 58 100 90 96 66 61 41 38 27 12 8 15 15 14 23 23 20 24 26 23 21 24 22 22 19 18 16 21 48 83 97 42 19 20 21 20 19 19 30 35 37 44 60
14 16 81 100 100 76 52 54 91 100 54 54 29 24 35 32 12 10 10 11 12 16 15 11 10 11 10 11 11 12 17 20 21 29 30 63 93 42 25 22 23 18 18 22 28 46 56 73 78
23 41 82 96 83 65 70 74 95 100 81 52 36 28 24 28 29 17 17 12 10 10 9 9 9 11 12 14 14 16 21 28 35 40 28 37 36 52 54 56 54 35 26 30 44 71 85 92 79
60 80 79 91 100 86 83 88 100 89 80 66 46 44 41 43 34 39 19 17 16 15 14 15 15 15 16 15 14 28 43 31 32 35 44 48 29 24 43 31 67 72 68 52 54 97 99 98 94
81 53 91 96 58 66 58 100 99 65 74 100 96 91 70 67 59 49 54 64 64 47 24 18 19 28 28 44 32 35 41 46 39 56 66 66 73 89 96 96 91 99 99 98 98 99 94 99 87
71 86 79 89 97 53 91 99 77 65 93 89 98 88 92 59 46 55 52 57 66 71 82 70 58 57 53 52 54 66 87 64 51 64 80 64 90 85 83 90 97 98 97 99 99 92 100 100 75
57 42 66 96 94 96 90 77 96 62 55 97 66 51 44 44 40 37 36 27 41 47 60 58 51 43 41 47 50 45 97 52 72 65 74 86 96 48 54 90 90 94 96 94 67 56 65 71 80
98 44 68 86 98 92 97 92 99 82 59 68 50 48 49 55 44 36 91 37 37 50 52 64 60 44 41 38 43 42 70 81 88 98 95 48 68 54 48 74 83 60 39 43 31 36 37 27 50
24 94 95 76 98 85 70 95 99 84 99 70 42 43 41 39 36 33 36 39 64 85 70 66 55 36 43 35 23 34 30 45 94 97 80 100 87 56 72 76 70 57 41 26 12 12 14 18 34
48 41 70 100 96 77 98 86 85 75 100 91 57 37 35 35 32 26 32 52 66 73 97 97 53 90 62 41 28 71 61 90 93 48 76 77 61 64 65 53 53 18 11 10 14 19 21 27 35
75 66 41 79 94 97 90 61 74 71 99 92 55 53 42 37 35 38 25 43 52 70 87 82 64 52 66 46 53 97 84 87 69 100 48 38 69 60 51 38 15 9 10 18 23 26 32 31 65

GFSSGP_500_rhum_039.txt.gz
RH
20 9 4 2 5 5 17 25 56 72 85 96 91 87 77 76 69 80 88 54 54 55 97 96 96 89 70 62 80 76 78 74 69 65 63 63 59 50 45 44 55 63 57 63 76 70 66 60 53
13 7 3 5 4 14 37 47 69 99 87 90 79 73 70 70 72 71 82 71 63 53 84 96 87 89 98 100 96 85 86 81 72 70 73 64 52 39 33 34 53 71 65 68 81 73 67 69 59
10 3 5 7 12 41 51 75 88 79 84 92 71 54 62 60 64 70 60 51 53 54 92 94 94 96 97 92 84 90 88 78 76 85 80 68 46 35 34 34 40 43 54 78 83 75 73 69 60
6 3 6 16 44 59 82 79 59 30 89 70 51 36 41 44 44 44 68 57 64 78 91 99 100 95 88 99 87 88 89 85 81 86 82 65 49 46 57 50 42 42 62 76 82 92 82 76 64
3 5 8 8 62 67 94 77 59 58 27 58 48 16 27 33 34 49 65 84 91 94 97 96 95 97 84 84 77 93 88 80 92 85 86 77 63 68 79 65 48 46 64 91 94 90 85 64 61
3 5 9 26 96 100 94 76 75 72 28 33 35 34 52 91 94 77 52 35 45 51 65 95 96 91 90 88 95 93 98 98 89 84 74 71 69 88 89 73 58 63 84 96 92 92 71 63 55
4 7 9 46 93 95 74 67 70 57 33 94 87 66 46 86 89 58 60 42 34 34 43 88 97 94 95 96 96 96 95 80 65 59 55 58 67 88 98 91 87 94 96 86 88 80 74 55 23
4 8 38 85 96 100 72 30 34 35 45 74 75 76 85 100 94 86 88 74 100 92 75 83 96 95 94 96 95 82 76 57 60 69 74 78 93 94 83 98 95 95 96 93 87 72 35 20 36
5 12 41 85 96 96 84 45 36 45 62 69 68 66 72 90 98 89 63 84 72 87 94 96 96 96 95 81 95 99 71 71 58 72 92 87 83 79 88 95 96 95 95 92 81 28 24 38 32
5 13 27 89 60 58 53 28 55 57 55 52 64 63 72 97 84 87 82 88 90 93 96 94 96 98 96 96 96 98 98 92 100 89 94 85 89 95 99 96 96 96 96 96 94 56 41 31 22
6 11 21 98 29 16 21 29 68 86 71 58 61 64 79 90 68 44 72 74 75 87 95 87 79 93 93 95 93 96 94 95 92 92 97 96 96 98 93 96 93 96 96 96 86 42 27 24 17
7 11 16 42 27 35 20 44 64 98 72 66 65 67 72 77 75 52 57 75 74 72 55 57 60 74 55 62 77 76 95 82 79 87 98 94 93 92 93 96 97 98 100 97 86 41 27 27 14
6 14 13 18 62 57 42 44 71 77 65 66 50 69 62 57 56 58 54 52 50 48 51 45 59 49 57 66 69 66 99 73 63 65 94 84 90 84 98 94 98 100 96 95 61 26 28 18 12
4 13 12 48 63 38 33 54 66 69 46 62 34 44 59 56 52 59 61 49 47 52 46 44 47 45 63 56 64 74 97 73 69 83 98 80 90 94 100 96 99 98 95 73 45 30 21 14 12
4 11 12 37 57 84 78 87 69 75 71 59 52 43 42 48 47 59 65 60 45 47 52 44 49 45 50 63 72 81 95 90 86 97 95 88 98 99 98 100 98 90 74 45 27 22 16 13 12
4 10 19 43 92 79 65 95 71 83 90 75 32 38 23 31 33 53 68 67 65 57 48 44 56 55 53 64 81 86 90 100 98 98 98 94 96 98 97 90 80 66 47 25 22 19 15 14 14
5 13 27 56 95 81 61 60 94 84 81 60 26 14 14 18 30 54 73 78 60 58 63 64 62 77 84 92 91 86 61 56 73 81 87 93 91 85 58 41 33 34 26 21 19 16 15 14 14
9 16 53 53 89 98 80 51 78 78 83 52 41 48 10 12 24 24 58 50 43 35 36 42 58 48 28 29 31 35 37 46 50 56 62 54 52 54 50 24 21 20 19 18 17 16 15 14 18
6 12 56 83 95 89 79 63 53 53 60 56 31 26 23 20 9 28 16 19 28 34 22 23 25 28 56 25 12 11 12 23 48 67 80 85 77 69 86 30 26 20 19 19 18 17 17 18 31
6 7 52 95 85 84 93 79 56 40 64 64 32 26 26 34 11 9 13 13 12 15 16 19 19 19 21 24 15 15 17 15 13 13 32 74 89 98 74 62 21 24 19 18 17 16 17 23 35
7 8 29 80 85 98 88 72 71 75 78 86 58 32 24 30 28 10 9 8 9 12 11 9 8 8 9 10 10 11 11 11 12 14 22 47 64 96 64 62 25 18 16 18 23 25 26 35 42
9 11 10 73 100 75 94 99 65 71 98 87 57 51 37 22 39 15 18 12 10 9 9 10 11 14 13 12 12 12 20 21 24 23 29 40 36 32 52 75 68 85 83 81 75 66 66 67 67
17 24 21 20 56 53 58 90 95 70 63 73 71 82 66 53 26 36 20 20 15 12 12 12 13 16 20 23 18 12 14 28 36 32 26 29 48 40 30 70 51 90 85 88 87 91 97 90 95
18 23 58 57 71 62 62 90 96 74 79 71 58 93 87 58 44 29 31 45 47 44 35 20 22 35 24 14 17 22 23 42 47 34 37 40 48 69 95 85 96 94 86 87 94 96 98 95 80
19 24 55 42 61 29 39 72 63 95 100 99 92 81 72 66 43 31 31 31 35 39 40 37 41 40 32 25 21 17 16 43 73 35 50 59 74 93 96 96 94 72 86 95 83 50 49 62 46
27 21 25 33 46 46 66 78 90 95 95 89 62 83 53 33 38 33 27 32 34 27 26 37 42 46 37 28 30 27 24 20 27 32 72 93 98 98 91 78 82 66 84 74 62 50 42 26 11
42 44 46 64 56 68 54 75 86 88 77 92 60 66 50 43 29 29 25 23 76 80 26 28 48 60 50 33 35 38 28 21 28 39 77 98 85 96 94 98 92 94 93 63 56 26 10 11 13
61 41 72 62 91 57 43 81 91 96 78 93 91 62 52 35 30 26 23 31 35 26 23 34 70 89 84 50 35 47 39 24 28 34 58 98 84 80 96 95 97 98 83 52 25 10 9 14 20
63 39 52 49 97 67 38 53 71 80 97 99 94 76 51 40 33 28 33 33 37 29 17 32 44 71 77 92 73 84 72 48 52 70 96 100 97 81 54 92 91 62 51 30 13 11 21 25 26
67 78 54 33 35 81 92 72 50 95 100 100 99 62 65 46 36 45 42 30 24 35 37 31 25 32 83 100 74 78 73 100 98 92 96 96 98 87 66 57 61 38 36 12 11 19 22 24 30

GFSSGP_500_rhum_042.txt.gz
RH
24 22 10 4 4 4 13 41 71 80 66 60 86 60 93 93 97 95 68 63 76 85 88 87 96 98 97 84 95 75 59 80 80 64 55 62 58 63 60 57 51 50 54 56 57 56 67 59 61
28 16 7 3 6 7 20 42 66 65 63 64 67 69 58 84 95 96 87 79 75 70 76 78 94 96 99 86 80 79 90 97 90 71 68 64 66 66 60 47 43 46 58 74 68 67 74 64 64
23 11 4 4 8 10 16 24 49 48 52 70 58 52 62 67 72 85 79 76 74 76 68 57 84 96 99 91 77 78 94 98 88 69 71 74 74 71 57 40 36 44 63 74 68 70 71 75 73
15 6 4 9 24 31 41 40 26 77 63 46 56 81 48 54 65 65 57 52 63 68 66 62 66 79 98 88 79 89 91 92 87 73 82 89 87 74 64 46 44 48 42 47 53 67 78 90 79
11 4 4 10 24 29 22 34 72 68 58 56 26 38 59 43 28 25 36 46 32 38 84 65 87 96 65 89 96 94 78 84 76 71 91 91 86 76 60 53 66 69 64 51 64 76 83 93 80
6 3 6 12 12 17 43 34 57 63 59 46 50 25 41 48 36 66 56 36 36 50 67 75 82 96 88 97 77 96 84 76 72 74 86 90 86 76 71 61 73 79 60 56 72 83 83 93 67
5 4 8 16 14 23 55 64 61 50 37 32 79 85 87 88 64 65 86 66 67 68 45 65 56 94 96 98 88 82 85 97 74 78 80 87 77 71 75 76 91 92 79 77 92 93 85 73 50
4 6 15 22 32 32 33 26 28 35 49 49 68 78 95 86 92 98 82 94 85 59 39 47 73 86 90 96 88 95 96 96 88 85 80 67 58 77 74 94 82 96 100 94 93 92 94 75 31
4 8 15 18 36 38 26 22 23 38 57 59 48 47 74 82 86 87 86 97 96 95 93 94 97 96 97 96 99 95 94 97 94 71 59 78 95 90 97 88 97 94 96 96 94 95 85 42 37
6 8 13 14 18 14 16 13 35 50 71 76 52 57 58 68 92 92 83 73 91 98 98 97 97 96 96 97 94 96 95 92 78 83 94 89 95 98 92 91 96 81 96 96 95 94 79 33 31
5 8 12 14 14 20 12 33 53 65 65 56 59 64 75 72 69 53 54 65 75 86 94 96 95 94 96 96 96 97 98 96 94 97 95 90 96 97 96 92 96 98 84 88 96 97 84 39 22
5 6 11 10 14 32 34 39 66 74 44 54 52 65 48 65 66 51 51 45 58 65 72 94 92 94 93 91 92 95 92 96 84 90 66 86 93 85 94 82 99 98 88 97 96 90 44 33 28
4 4 12 12 24 37 36 33 83 78 70 53 46 50 58 45 45 43 46 50 57 64 59 70 87 85 69 52 63 71 73 86 74 63 66 83 90 84 87 88 97 100 93 100 98 84 78 56 34
4 6 12 12 26 39 54 50 83 79 60 65 49 42 44 44 38 46 50 46 40 42 43 53 60 57 55 43 55 67 71 81 88 88 72 77 85 86 86 93 97 100 99 96 90 84 54 53 18
5 5 11 18 38 55 41 45 71 89 68 56 28 30 27 40 43 50 52 53 52 40 42 46 48 43 47 49 61 80 91 59 88 77 83 87 90 83 84 84 99 97 100 91 80 33 47 29 15
6 6 12 25 35 45 49 80 75 92 77 52 44 17 14 19 28 45 63 59 53 51 55 66 58 73 51 46 61 68 70 86 77 76 98 98 90 81 81 89 88 98 92 81 68 61 30 18 14
8 7 16 42 36 58 82 81 72 76 68 62 46 31 12 14 23 44 70 58 58 61 62 53 54 57 57 53 55 67 68 80 71 87 98 98 92 79 85 97 90 84 78 69 47 25 21 16 13
14 9 13 16 33 72 94 71 74 48 51 63 41 36 20 11 31 47 44 38 34 36 46 43 32 59 61 55 48 54 57 52 52 64 76 72 70 81 86 75 66 60 56 36 25 22 19 16 15
15 9 11 16 31 69 91 66 48 50 50 53 30 28 31 13 11 23 19 39 33 22 24 33 39 48 20 11 14 20 24 22 26 39 54 60 62 54 49 38 39 24 24 23 22 21 18 17 17
24 8 10 17 64 86 74 52 69 43 52 82 67 27 29 28 16 10 13 12 13 16 18 20 18 31 48 16 14 12 11 10 24 46 52 53 71 82 71 64 26 25 21 21 21 20 19 18 16
36 9 10 20 60 64 62 68 74 39 61 76 74 48 23 29 27 13 9 9 12 13 12 10 9 9 10 12 7 8 7 7 11 13 19 32 66 79 88 66 67 22 27 24 20 19 22 23 33
51 19 10 9 29 39 47 44 46 55 63 80 88 60 31 20 31 16 18 12 10 9 9 9 10 11 11 10 10 9 8 12 21 21 21 22 29 30 59 68 66 67 50 47 53 49 54 56 61
48 21 15 13 10 14 24 37 30 55 53 69 85 65 74 48 26 19 15 19 15 14 12 11 12 13 15 17 13 10 8 15 21 29 30 27 25 33 27 39 74 92 71 72 90 73 68 79 81
57 28 20 17 15 10 21 30 27 51 72 51 75 67 80 73 83 42 28 27 37 43 46 51 29 34 34 21 16 18 18 20 41 45 39 35 35 48 63 56 62 83 83 90 84 96 88 86 53
55 34 30 24 15 12 28 32 15 59 59 60 47 78 67 69 80 44 38 31 29 30 32 36 45 45 40 32 25 20 18 16 36 70 50 43 40 51 73 79 98 96 95 92 82 94 95 73 51
59 52 36 16 15 25 22 10 14 35 64 71 70 49 67 60 45 36 35 37 33 29 35 33 31 41 46 43 32 27 29 30 28 31 31 57 78 83 96 99 99 96 96 94 93 97 94 60 42
72 69 64 39 31 23 17 17 29 52 55 75 63 81 61 58 39 37 41 37 30 50 64 26 29 32 37 42 44 34 32 41 34 29 55 85 68 96 100 98 99 98 97 98 89 97 67 32 14
77 75 78 49 43 28 13 14 28 52 68 92 59 50 59 50 45 39 31 25 33 40 50 43 34 29 40 48 62 88 46 52 62 33 35 79 53 83 96 98 96 99 97 98 98 91 48 14 15
78 70 70 59 58 44 24 15 40 61 73 93 73 65 84 52 55 41 35 26 23 27 33 39 63 58 59 82 97 94 98 98 86 96 78 86 91 98 97 96 96 98 97 81 60 34 14 15 30
88 76 78 59 50 44 32 20 62 42 54 53 80 70 74 96 74 54 38 42 32 35 33 26 19 49 64 91 93 96 88 99 71 97 99 97 97 98 97 92 89 66 78 66 32 30 11 16 15

GFSSGP_500_rhum_045.txt.gz
RH
26 22 21 10 6 4 5 7 6 8 17 27 49 59 55 61 75 93 79 88 97 93 92 88 76 64 66 63 96 95 98 95 87 80 73 75 56 43 39 48 53 56 54 52 54 61 68 70 65
25 24 14 8 4 4 8 7 7 19 33 35 41 44 54 51 55 82 90 94 83 89 77 85 78 74 64 95 93 88 93 87 93 94 92 74 48 49 56 61 60 57 50 45 45 68 75 72 71
30 21 9 6 3 8 11 13 16 38 45 38 28 34 36 40 72 71 62 74 71 75 79 76 70 71 76 74 96 97 83 95 86 85 91 55 62 64 64 65 61 58 50 31 37 77 75 68 70
23 13 7 5 4 7 15 22 28 28 37 32 26 20 20 28 48 55 69 69 88 83 85 68 60 63 80 96 96 94 86 90 86 78 72 57 74 75 71 71 69 64 57 45 37 47 52 65 68
21 10 5 4 4 10 16 19 36 40 40 40 36 30 40 24 33 43 52 51 50 53 64 74 82 93 74 91 96 90 77 96 92 75 60 81 85 77 75 77 69 55 61 67 66 52 60 70 80
16 7 4 4 7 12 17 22 23 42 27 25 40 37 70 70 30 34 36 32 53 40 41 78 65 80 86 95 96 97 94 96 85 76 74 88 80 66 79 79 75 67 62 74 74 54 71 79 92
11 5 4 5 9 13 22 20 22 33 44 45 50 51 53 79 95 80 62 53 72 76 43 52 82 78 95 95 97 96 97 96 96 89 68 86 70 67 79 76 74 70 69 80 97 79 85 78 92
11 5 4 7 12 14 10 13 14 24 32 54 78 65 53 51 89 92 94 91 75 78 84 89 100 98 93 93 96 97 93 95 96 72 86 89 73 78 85 69 67 67 87 92 100 97 88 78 88
11 5 5 10 11 13 10 10 21 46 72 71 63 60 60 60 66 86 84 89 78 79 94 75 66 79 67 88 94 93 97 96 91 98 83 88 82 87 76 66 74 84 93 87 95 97 90 80 80
11 5 6 10 10 14 10 22 44 72 59 49 60 47 61 77 66 88 84 91 86 88 91 97 94 79 85 86 95 97 97 96 96 97 98 98 86 72 80 75 94 91 91 90 91 98 94 91 83
13 5 5 10 9 11 9 34 50 73 67 51 56 46 52 70 78 82 67 61 88 88 90 81 85 97 97 97 96 96 96 97 94 97 96 89 79 78 88 80 88 88 92 94 79 97 99 92 81
10 5 5 10 10 15 16 28 36 62 56 56 50 40 49 49 66 62 54 57 69 70 74 80 96 96 96 96 97 97 97 97 96 98 88 96 96 90 77 81 98 98 97 89 85 96 95 86 58
13 5 4 13 11 19 26 34 51 57 60 56 27 36 42 45 40 48 54 51 60 71 69 82 95 94 96 94 93 96 94 96 97 91 92 88 74 77 82 73 96 92 92 91 94 98 98 74 39
22 6 5 12 14 32 46 45 43 50 59 38 32 20 32 38 41 50 51 45 40 52 58 74 89 94 95 85 63 75 84 90 96 82 71 60 58 69 86 80 90 86 90 89 90 97 88 41 52
20 7 5 10 16 40 50 48 44 39 57 49 41 12 17 29 35 43 51 54 51 39 43 65 90 81 93 93 87 69 72 98 88 87 81 97 81 78 80 83 86 82 90 95 100 95 78 74 63
18 10 7 8 16 38 62 57 39 46 52 39 34 17 10 20 27 35 54 63 46 49 48 39 48 53 62 64 64 73 81 85 91 74 84 94 88 89 85 86 82 83 100 100 98 88 79 51 69
20 15 8 9 19 48 81 76 57 52 48 34 33 29 14 18 19 41 52 56 57 52 55 50 51 68 84 100 66 89 97 73 87 99 90 78 77 91 89 92 86 88 98 98 96 52 49 64 30
33 25 12 11 23 35 41 73 69 61 41 42 42 27 24 15 21 30 40 38 47 52 62 71 62 52 65 92 64 80 72 71 84 77 64 73 88 92 93 90 74 92 98 96 94 82 62 29 24
46 37 13 10 23 27 39 63 80 56 42 42 35 25 29 16 20 16 30 39 36 34 37 33 45 72 78 71 69 68 68 58 49 49 58 66 76 86 72 74 81 90 84 77 52 35 27 25 22
52 47 23 14 22 24 50 76 68 45 51 50 37 33 24 27 17 11 14 11 19 20 20 27 44 21 12 16 24 15 11 16 27 42 51 60 58 57 56 53 46 40 40 41 33 27 25 24 22
57 52 34 14 15 16 28 66 70 42 48 63 55 48 32 25 30 12 7 8 10 12 16 14 16 40 18 12 12 13 14 22 28 50 51 62 60 63 67 66 52 28 24 21 22 23 23 22 19
61 52 43 32 14 13 31 32 56 81 44 58 67 60 47 27 30 19 10 8 9 9 9 9 9 8 11 10 9 10 12 13 15 13 15 41 52 58 77 78 81 77 42 26 27 25 21 20 36
70 52 50 45 33 16 18 24 23 32 32 53 71 78 70 56 26 16 15 12 10 9 8 9 8 9 10 9 9 10 15 23 29 30 28 28 35 37 72 75 81 69 66 34 29 50 75 100 85
80 62 53 51 39 30 25 14 11 21 35 41 64 66 75 70 57 40 27 29 35 35 32 20 13 15 20 22 17 18 15 19 28 34 34 33 32 36 42 41 41 59 68 79 78 89 99 99 98
74 73 54 50 48 37 28 19 12 21 35 32 46 61 65 70 63 37 40 38 38 38 36 38 43 46 42 37 29 24 23 25 27 47 56 49 39 42 67 67 69 68 67 84 87 95 99 98 96
81 79 64 56 57 52 28 18 13 14 16 19 38 51 68 56 41 44 50 33 38 36 29 29 32 30 46 50 45 37 31 30 35 35 62 83 86 80 72 79 96 100 97 99 98 99 99 99 97
86 86 84 70 59 53 37 19 18 14 16 24 48 54 49 59 54 50 46 44 42 41 47 58 46 28 30 53 55 51 46 40 40 44 33 32 40 82 92 70 90 80 98 97 98 98 99 98 97
85 99 92 77 62 54 40 31 29 17 24 38 39 54 45 43 52 47 45 36 28 28 40 66 57 53 44 41 58 76 76 95 99 59 47 50 39 49 89 98 78 87 97 99 98 98 99 97 95
82 88 83 78 68 60 45 30 31 21 21 30 42 53 50 45 43 39 39 38 34 34 35 36 89 70 72 95 100 99 100 98 97 98 91 93 86 79 96 97 97 94 98 99 97 95 94 78 32
90 83 95 90 74 65 58 32 37 30 31 46 59 56 52 55 49 50 55 41 35 39 37 43 49 53 56 70 87 96 98 96 98 98 98 98 98 97 98 96 97 96 97 96 96 91 70 31 22

GFSSGP_500_rhum_051.txt.gz
RH
25 27 31 19 20 15 8 4 4 6 6 8 9 11 12 18 20 30 29 27 36 28 61 62 57 94 97 96 96 97 80 77 89 96 97 95 93 67 52 49 54 58 55 54 55 53 49 55 57
26 31 29 18 19 12 5 4 6 8 8 8 10 13 18 22 28 36 47 51 60 54 58 84 89 76 94 93 93 94 74 74 94 98 96 95 87 56 50 49 62 53 57 59 55 51 53 59 57
32 35 27 21 17 6 4 6 8 9 11 12 19 19 16 26 27 30 32 59 50 54 75 75 78 78 75 82 67 76 65 65 84 96 95 90 66 50 51 50 65 65 67 64 66 53 52 50 54
37 35 24 25 14 5 5 8 9 11 9 14 20 24 20 19 25 20 26 49 41 71 86 69 90 93 77 57 54 45 54 56 73 94 97 83 58 48 44 62 62 69 75 70 64 61 59 68 72
40 28 27 24 8 4 8 10 9 7 12 12 12 13 20 33 34 32 45 69 69 65 75 74 72 88 68 53 41 41 48 51 54 86 96 71 48 40 58 59 62 79 74 72 72 65 66 77 78
35 26 30 23 5 6 9 10 8 10 10 12 28 47 53 53 62 66 62 59 64 80 65 54 63 56 52 42 36 61 64 67 67 95 91 58 53 58 73 68 72 75 81 86 78 72 70 68 82
33 26 35 19 5 8 9 8 8 10 16 35 41 40 47 51 51 52 56 55 63 82 79 93 79 83 74 66 60 40 57 87 95 96 96 83 58 71 79 75 71 82 90 83 82 80 90 96 96
35 27 38 16 5 9 8 7 8 18 39 41 36 36 43 45 54 67 78 59 79 90 83 99 97 94 99 83 73 66 68 81 97 96 97 94 74 65 86 79 82 91 76 82 87 84 89 98 98
36 34 38 15 5 9 6 6 8 15 46 40 25 33 42 41 46 74 66 61 86 97 94 93 97 99 100 98 98 86 87 96 96 97 96 93 75 78 95 76 92 86 84 92 88 79 96 96 92
38 36 38 15 4 10 7 6 10 17 44 43 32 31 37 37 42 52 74 76 90 81 95 96 88 90 90 95 96 96 97 99 97 97 98 99 92 86 94 79 95 93 94 97 98 89 99 90 92
40 38 40 19 5 11 9 8 10 16 36 46 43 30 31 34 37 35 54 71 78 78 95 90 95 97 96 95 97 95 96 96 97 95 88 97 90 98 91 91 94 95 89 86 84 92 98 88 87
40 39 41 27 6 10 10 11 13 14 29 49 36 27 26 34 32 33 44 49 65 69 90 97 95 97 95 90 95 95 97 97 97 94 99 96 96 99 89 95 91 95 94 93 94 89 94 91 92
40 38 40 32 11 7 9 11 18 21 21 40 43 26 17 24 37 38 41 49 59 56 81 91 94 95 93 95 95 98 96 97 97 87 87 96 97 100 92 86 87 100 100 98 94 93 93 95 94
60 45 40 36 18 7 8 12 18 16 23 34 42 28 16 19 27 35 48 48 47 52 72 87 94 96 97 95 96 96 97 96 95 97 96 97 96 99 97 87 100 100 97 95 84 96 99 99 100
61 47 43 38 27 13 8 13 16 21 26 32 40 31 23 20 25 41 55 61 59 56 53 76 94 97 97 97 97 97 96 93 97 96 97 95 90 98 92 85 100 98 98 96 94 95 95 95 94
62 45 42 38 33 23 11 16 15 18 31 30 29 30 31 17 23 36 40 44 46 55 50 59 80 95 97 96 97 92 97 97 97 97 96 95 95 96 91 86 76 88 96 92 91 90 93 93 94
74 65 45 40 37 33 14 20 20 32 40 40 36 39 33 26 22 28 34 36 40 47 51 44 57 90 97 96 96 96 97 97 97 97 94 100 93 97 95 92 80 85 88 91 94 97 97 99 98
90 77 44 43 40 38 23 16 21 29 52 49 27 35 34 30 20 22 31 35 36 39 56 60 97 81 94 95 97 97 96 95 96 97 97 97 97 96 90 78 87 97 94 92 99 97 95 98 98
73 65 51 48 45 43 37 24 27 28 55 61 34 31 36 26 24 18 17 21 26 35 40 84 97 89 79 94 95 94 76 74 67 83 96 96 96 96 92 94 100 94 95 99 97 100 100 98 99
71 66 62 59 50 46 39 34 33 20 53 47 41 31 42 37 25 24 16 12 11 20 31 33 42 72 88 80 97 96 98 97 81 88 92 91 98 97 100 97 97 97 95 94 100 100 96 93 88
68 64 72 68 53 46 42 41 38 33 35 41 35 35 48 48 26 23 24 10 8 10 15 18 36 21 76 80 87 96 95 97 93 91 97 98 96 99 98 97 97 95 86 92 95 93 96 83 84
49 70 83 70 70 54 39 25 40 41 34 43 40 38 55 49 32 25 25 11 8 9 11 12 16 37 14 38 53 47 54 83 97 95 76 73 75 86 98 97 80 70 68 72 85 80 87 88 82
81 88 91 66 66 53 49 40 35 44 40 36 47 41 53 64 72 35 21 15 10 9 8 9 8 9 17 16 11 12 11 16 23 33 34 30 44 50 57 63 61 60 60 78 72 61 45 57 39
90 77 74 64 63 37 46 56 34 44 43 32 24 34 61 53 63 54 31 15 14 11 10 9 9 8 8 8 8 8 8 9 9 11 12 11 19 34 48 58 62 71 66 59 59 63 46 84 73
87 81 74 74 60 35 55 66 50 49 51 33 25 26 49 49 46 60 55 36 23 25 32 35 30 20 17 20 23 17 14 14 14 15 20 23 25 27 29 31 33 38 74 80 83 73 71 64 70
97 99 94 92 73 61 64 49 49 52 55 44 23 30 43 38 47 59 58 46 33 30 32 34 27 27 29 32 32 33 31 24 22 23 21 22 25 31 35 37 34 32 34 46 44 50 62 66 65
95 93 100 93 86 78 60 48 53 53 54 54 28 20 36 42 46 41 42 38 36 33 24 25 30 30 30 35 25 33 42 41 38 35 33 32 32 32 39 43 40 39 32 38 58 73 74 70 84
92 100 96 86 79 72 60 59 65 58 68 70 47 23 25 50 50 57 46 40 45 54 36 28 36 30 39 46 44 34 30 39 45 44 46 53 58 73 85 77 51 33 30 33 47 60 75 93 95
94 93 88 84 80 72 68 58 55 64 64 66 56 23 30 55 70 74 54 54 41 41 35 34 32 26 40 57 54 52 62 71 63 61 87 92 97 98 98 99 100 89 52 49 56 74 83 94 99
79 83 81 74 71 62 51 41 61 56 62 67 66 44 26 45 58 79 80 52 48 41 43 44 36 28 34 36 33 50 56 60 80 96 93 82 72 83 98 96 88 97 88 98 99 100 97 97 100

GFSSGP_500_rhum_057.txt.gz
RH
14 14 15 28 27 24 38 62 16 7 5 4 4 4 5 6 8 12 21 12 10 14 16 32 21 16 16 36 41 33 47 66 94 86 75 94 82 78 90 95 77 56 49 46 39 40 47 48 48
14 15 18 28 31 63 58 55 18 6 5 5 5 9 11 8 8 8 11 13 13 15 19 27 34 36 30 60 34 33 49 87 96 96 87 95 88 92 99 94 97 84 58 49 43 49 63 48 49
15 16 20 31 33 40 62 48 12 5 5 5 8 13 14 14 12 10 10 10 13 15 18 27 35 36 32 65 39 31 43 88 99 96 97 96 95 91 99 93 88 81 87 71 58 70 47 49 45
16 19 26 37 38 55 31 31 8 5 5 5 9 15 18 22 27 31 32 30 23 24 21 28 34 44 32 73 70 33 25 58 87 96 90 95 94 87 83 84 97 94 89 80 79 52 51 50 55
17 22 32 37 37 44 27 24 6 6 5 6 12 20 27 19 24 28 34 40 45 45 48 44 41 59 50 67 81 88 38 52 59 79 86 85 95 94 83 91 95 90 62 84 56 61 55 57 61
18 26 36 41 60 51 27 14 6 6 5 8 14 21 22 25 24 28 35 40 43 46 51 70 79 57 71 72 93 96 68 67 71 53 58 94 98 95 96 96 96 85 93 63 59 60 61 67 66
22 30 38 43 50 57 30 14 6 5 6 8 12 25 28 31 28 28 34 37 38 51 56 54 76 88 79 70 88 97 95 58 51 58 54 90 97 97 95 95 95 83 91 70 59 71 69 73 73
26 32 39 42 48 38 29 11 6 5 7 8 16 27 34 27 27 26 30 36 44 68 57 60 66 80 96 64 57 96 97 96 87 82 68 86 91 96 95 94 84 92 90 83 72 72 75 83 78
28 33 40 48 51 42 28 13 6 6 6 7 11 26 32 31 23 22 29 32 39 66 88 76 88 86 99 82 63 92 97 97 91 95 86 87 82 86 98 89 86 94 92 87 70 78 79 81 69
33 36 42 57 57 46 34 16 6 7 7 7 7 8 34 36 21 19 25 29 32 64 76 69 85 87 87 75 67 78 94 94 93 92 90 98 94 96 97 92 89 96 94 86 81 76 84 78 74
34 37 45 50 58 49 37 19 6 7 9 7 7 7 16 32 24 22 22 30 33 54 66 75 94 93 82 76 85 96 97 96 88 98 81 79 97 88 96 96 95 92 85 83 83 81 79 75 67
37 41 50 56 56 50 39 24 6 6 10 8 8 8 11 21 21 21 20 28 39 35 40 68 96 94 81 75 95 95 93 97 94 95 96 92 96 96 97 95 94 93 88 82 87 77 75 59 51
42 44 56 61 60 42 42 30 9 7 8 9 10 12 15 20 23 23 16 21 33 43 35 45 89 93 88 89 94 82 94 96 95 97 96 96 95 97 95 96 94 90 90 81 79 79 80 72 60
45 51 61 65 62 42 40 35 16 10 9 10 11 16 18 17 26 23 18 20 38 45 49 42 52 93 97 96 95 94 96 96 97 96 98 98 97 96 96 95 88 89 82 86 77 86 84 68 69
49 53 66 66 67 52 38 37 25 11 12 12 12 23 21 21 27 25 20 18 30 38 43 48 44 62 90 92 84 75 87 89 98 96 100 97 92 97 97 88 91 92 81 85 84 93 81 78 75
56 57 60 72 70 64 41 37 29 16 14 14 12 16 24 23 27 28 21 19 20 29 36 41 43 51 91 94 94 90 81 97 96 96 97 93 94 96 96 93 90 88 80 89 85 91 88 84 79
64 52 65 85 74 70 46 44 34 26 17 18 16 16 26 19 26 29 24 20 16 16 32 49 44 54 96 95 94 94 88 97 96 97 97 92 95 96 96 95 91 89 84 96 93 95 89 83 82
73 68 82 97 98 65 65 52 40 36 21 20 20 12 15 22 18 22 25 20 18 13 17 49 61 64 94 96 95 96 98 97 97 96 97 95 96 96 97 97 96 96 94 97 98 98 84 73 77
97 100 100 98 100 64 67 54 43 40 30 28 22 15 12 19 14 17 18 21 19 13 10 32 29 58 91 94 96 96 96 97 97 96 97 96 96 96 95 95 97 96 96 96 97 86 86 89 87
100 93 79 99 84 77 71 53 47 43 37 37 28 18 9 10 10 13 22 21 18 14 8 13 24 24 60 78 80 95 97 96 94 93 96 97 96 97 96 95 96 97 95 96 96 94 92 95 91
100 95 87 89 96 75 70 55 49 42 42 39 32 27 12 12 14 18 27 24 20 16 9 6 13 26 27 75 98 90 95 96 94 96 96 96 97 95 94 95 97 96 96 96 97 95 89 85 80
98 100 100 99 91 70 86 57 56 42 42 40 37 33 16 12 15 24 34 28 23 18 10 7 9 12 21 41 80 93 93 96 95 95 95 91 88 94 96 97 96 93 90 90 95 89 90 78 76
85 96 100 98 91 73 66 60 60 65 91 61 43 39 25 14 14 27 40 32 24 17 10 7 7 6 9 23 17 33 56 47 77 87 87 86 90 91 95 94 90 89 93 95 88 74 61 57 63
98 96 98 97 96 65 51 64 60 82 89 63 45 45 31 13 15 24 35 36 31 24 14 15 13 8 6 6 12 13 11 21 15 30 64 94 96 88 68 60 75 82 91 86 74 77 60 54 66
98 100 100 100 96 58 52 66 54 62 64 65 55 51 45 28 13 16 34 39 35 29 26 18 16 16 16 12 11 8 6 7 7 8 10 22 30 32 38 33 48 54 67 70 57 72 75 81 79
98 93 91 96 96 98 62 100 56 70 73 78 69 54 52 34 13 15 29 38 40 34 29 22 19 18 19 18 17 19 22 18 11 10 8 7 8 10 12 17 26 37 40 45 45 44 52 48 64
96 83 95 97 99 94 100 98 74 59 74 80 78 66 56 52 23 13 25 33 43 37 32 26 27 27 19 17 19 18 17 16 23 27 26 16 16 15 16 21 25 27 29 32 34 36 37 38 33
95 100 98 94 99 100 100 100 98 69 72 84 82 84 65 70 55 19 18 30 48 43 34 32 36 38 35 26 25 23 20 24 24 22 18 22 27 27 25 26 28 29 42 72 72 68 64 45 37
99 96 91 100 100 100 100 100 99 96 61 65 77 86 82 52 49 42 16 23 42 42 42 36 41 44 42 30 32 31 24 26 30 36 42 42 38 26 36 55 71 70 69 75 74 78 83 72 75
100 98 99 99 100 99 99 99 96 100 70 83 82 86 75 72 57 38 26 20 32 45 54 45 40 42 41 32 34 40 27 25 24 30 35 32 40 51 60 59 56 58 55 53 56 57 73 74 70

GFSSGP_500_rhum_060.txt.gz
RH
7 8 11 15 15 20 30 56 74 49 36 13 7 5 5 5 10 10 7 7 9 9 12 13 17 30 18 9 8 8 8 19 51 52 48 32 28 35 55 94 97 91 87 56 49 49 45 44 49
8 8 12 15 16 28 51 75 71 64 32 9 5 4 6 10 16 17 14 8 8 7 9 11 12 17 29 29 24 14 11 15 28 42 42 43 46 48 69 65 98 94 82 67 56 55 44 52 66
8 9 13 16 18 32 58 74 76 61 21 8 5 5 9 15 17 22 28 28 31 29 20 18 20 23 29 27 30 39 53 43 38 74 90 89 87 73 92 86 96 94 86 68 65 63 58 67 62
9 10 14 17 24 37 72 68 77 30 16 6 4 6 11 17 20 18 18 22 29 33 32 34 32 27 33 40 40 50 70 48 41 79 95 98 98 98 99 98 98 95 94 87 83 74 85 89 55
10 11 15 18 30 39 69 55 51 31 17 6 5 7 13 10 16 18 25 23 31 35 32 40 42 42 42 43 66 76 70 78 35 55 80 97 94 95 92 98 96 95 94 94 92 74 88 58 50
10 12 16 20 40 69 66 58 30 25 12 6 6 8 13 18 19 23 28 23 28 34 32 37 45 49 64 76 68 95 96 96 64 77 59 92 92 97 95 96 95 96 90 90 92 90 65 53 50
11 13 17 25 42 74 72 64 24 27 12 6 5 8 14 15 29 24 19 22 27 31 27 45 68 60 56 96 74 96 96 97 96 84 57 65 78 95 97 99 95 96 92 91 94 69 67 57 62
12 14 18 26 39 74 72 68 25 27 11 6 5 7 12 26 22 23 16 22 22 26 28 48 64 70 94 93 84 96 92 95 99 97 68 55 57 89 98 97 97 97 93 90 95 65 65 69 53
14 16 19 29 43 74 76 61 30 31 13 7 5 6 7 10 19 26 19 18 21 27 35 48 75 83 87 86 90 94 91 94 99 97 57 59 58 68 88 97 96 96 93 95 86 76 74 56 66
15 17 22 32 72 85 76 63 32 35 21 6 6 6 6 7 8 15 16 15 20 27 34 56 62 74 97 95 94 96 94 95 98 98 83 84 66 74 96 97 95 98 92 90 82 83 76 63 79
17 19 24 39 95 84 77 71 40 37 25 8 6 9 6 7 7 10 12 20 17 19 31 31 40 78 98 92 88 90 90 96 96 95 85 97 94 89 99 89 97 93 81 81 88 80 82 78 78
19 21 27 40 56 56 67 61 40 37 28 8 7 9 9 9 10 13 18 19 13 17 34 33 36 82 100 88 68 69 81 95 96 98 84 62 88 97 99 82 97 95 81 86 80 82 86 78 78
19 22 29 42 58 57 64 60 38 36 30 9 8 9 9 10 12 13 21 22 14 13 31 43 35 70 98 96 65 67 81 96 96 97 83 88 85 91 97 97 100 95 94 93 64 79 81 79 77
22 24 30 45 53 62 62 59 37 34 30 13 10 9 10 11 14 16 24 24 16 15 22 37 42 41 67 98 74 70 83 86 91 94 82 94 96 92 94 92 96 95 93 89 68 75 87 74 81
22 26 33 45 59 65 67 53 42 37 31 15 12 10 9 12 17 24 22 22 17 14 15 25 36 46 45 81 78 80 71 80 73 68 92 97 94 92 92 90 82 99 95 90 69 72 86 84 80
25 28 39 52 66 72 71 46 50 36 30 18 15 14 8 7 20 24 25 29 20 16 13 17 35 33 37 68 72 74 72 72 71 77 95 93 97 90 97 95 97 90 95 89 74 87 90 88 82
30 35 47 61 70 74 74 60 54 42 31 21 17 19 11 10 17 17 21 22 24 17 14 13 29 39 45 61 81 78 65 65 71 83 97 98 98 94 99 97 97 96 96 94 75 86 91 93 85
50 45 62 67 83 96 99 65 69 51 34 33 22 21 14 9 8 17 16 18 22 19 15 12 27 42 46 90 89 77 73 72 77 85 87 85 90 98 98 97 96 97 96 95 82 83 96 97 87
74 85 99 100 94 100 86 74 70 58 41 38 30 30 19 9 5 9 11 15 22 19 15 12 16 29 30 75 94 71 80 85 84 79 88 94 94 97 98 95 96 98 96 96 90 92 96 96 94
96 87 84 98 100 84 97 70 76 66 44 41 37 36 25 15 7 7 10 16 24 21 16 12 8 17 22 43 65 70 93 94 98 93 96 93 90 96 96 97 88 95 96 96 96 97 96 96 96
92 90 97 77 100 100 76 82 76 66 48 40 39 35 30 23 9 9 15 20 29 23 17 11 7 11 23 33 64 84 84 90 95 95 84 96 92 96 95 94 94 98 94 97 97 96 96 96 95
97 100 98 98 100 83 98 80 91 71 57 45 38 37 36 33 15 9 15 29 32 24 17 9 6 6 22 21 44 71 76 92 89 92 95 95 95 95 97 96 95 88 94 97 97 96 95 93 97
92 98 98 100 100 87 79 75 74 86 94 67 64 38 37 36 19 12 14 27 32 25 15 9 7 6 6 15 26 20 34 73 67 94 94 96 94 95 95 96 94 93 90 94 98 96 86 88 81
97 97 100 99 94 77 62 67 61 70 78 90 97 86 40 34 23 12 10 20 28 32 25 14 17 14 8 6 6 11 11 17 39 40 59 89 94 93 95 96 96 92 83 91 98 94 93 72 62
98 95 100 97 95 71 72 58 41 73 100 87 96 67 48 39 38 16 10 14 16 29 37 28 19 17 16 16 12 8 6 6 7 10 29 45 59 47 51 42 53 56 66 89 97 99 89 81 89
98 98 92 90 98 91 76 59 41 65 86 64 61 63 69 46 42 28 12 12 15 22 37 35 22 21 21 19 18 17 16 15 12 12 9 8 12 17 18 14 19 24 38 48 57 63 57 71 66
98 92 92 99 100 96 75 83 84 86 69 73 69 75 77 61 47 47 15 14 14 21 29 35 28 25 22 20 20 20 19 17 16 22 24 24 16 14 13 13 17 20 24 28 28 30 38 37 41
96 100 97 96 96 89 98 99 93 79 66 87 96 82 84 82 59 41 39 17 16 16 24 29 35 31 34 37 32 26 24 22 21 26 23 19 20 24 26 23 20 20 24 26 26 49 65 58 54
100 98 97 97 97 96 97 94 93 91 63 83 81 81 77 75 64 64 57 45 17 20 24 31 31 36 42 39 38 33 31 30 25 28 33 36 36 32 32 24 26 33 62 64 61 61 72 75 73
98 97 100 96 98 95 95 99 92 100 94 76 78 92 87 90 90 79 77 60 48 22 31 40 37 33 39 39 36 33 33 38 28 29 27 26 30 29 37 49 58 62 60 56 53 54 48 47 50

GFSSGP_500_rhum_063.txt.gz
RH
15 13 10 9 9 14 20 37 44 34 40 47 31 43 19 5 4 5 12 14 14 10 8 9 8 8 12 16 15 10 5 5 5 6 8 14 29 37 39 41 83 100 96 89 79 64 52 47 40
17 16 12 10 9 14 35 30 48 75 67 48 26 22 10 5 5 12 14 18 20 22 24 19 10 12 14 19 25 21 11 8 8 12 14 59 33 39 38 36 43 98 98 92 76 64 54 49 48
19 17 14 10 9 15 32 50 78 76 66 45 35 16 8 4 8 16 20 22 23 16 27 33 30 22 20 22 27 26 25 26 13 15 22 51 42 50 46 51 55 76 96 94 90 65 57 54 54
22 18 15 13 10 16 32 42 72 72 44 34 23 18 5 5 12 18 18 18 22 18 26 35 29 33 38 36 42 36 34 38 50 51 28 20 30 24 42 58 68 88 82 88 86 84 76 58 59
22 17 16 12 10 19 48 61 59 67 62 40 19 14 4 8 10 21 18 20 22 21 25 30 29 31 42 46 45 34 51 66 80 86 57 43 88 86 68 80 74 99 100 97 91 88 74 64 66
22 15 16 11 12 22 38 63 80 72 66 52 32 12 4 8 12 17 20 19 19 20 22 24 25 33 52 56 68 81 54 78 93 97 82 56 69 96 100 98 95 99 100 97 89 85 84 75 75
20 13 14 12 12 24 42 80 83 81 61 36 22 10 4 5 8 24 26 29 18 19 18 22 27 30 41 56 59 70 97 97 97 96 92 64 55 95 97 95 98 98 97 97 95 92 88 87 76
14 13 15 12 12 24 71 82 81 63 50 39 24 13 4 4 6 10 12 21 21 16 19 21 32 42 58 72 91 95 94 94 96 96 96 88 96 71 90 96 97 98 96 96 95 92 92 86 61
14 14 15 12 14 50 78 95 90 80 59 33 29 12 5 4 5 6 6 11 14 14 17 20 30 55 71 72 79 96 96 93 96 96 96 95 80 75 80 92 96 97 99 96 92 88 95 69 61
16 15 14 14 24 54 72 99 92 78 52 35 25 10 6 6 9 8 6 7 10 15 14 14 29 35 41 57 81 97 98 96 94 96 96 94 92 79 61 78 94 98 96 96 94 94 85 70 65
18 17 14 16 43 40 72 97 97 58 51 36 24 12 7 6 7 7 8 11 21 14 12 15 31 36 39 77 94 87 91 97 98 95 96 96 79 55 53 58 56 94 98 95 95 94 80 72 70
18 14 15 18 46 43 48 90 95 69 62 43 31 21 8 6 7 9 11 19 24 17 14 19 34 44 39 83 92 88 89 91 93 96 95 95 89 78 74 80 65 98 98 98 96 89 80 67 69
28 14 16 21 42 54 45 60 66 67 62 45 28 22 9 8 5 9 13 18 24 19 15 14 23 37 45 49 80 73 77 87 96 96 94 96 82 90 85 94 99 96 96 92 89 78 91 69 62
32 15 15 20 25 44 50 52 68 66 61 43 30 22 11 12 5 6 14 24 21 17 16 13 12 32 39 49 70 81 76 89 94 95 97 85 56 64 93 95 100 97 96 92 87 79 94 72 64
50 18 14 18 24 34 51 52 59 70 63 42 30 23 12 12 6 6 15 25 26 20 17 14 11 20 38 38 55 76 68 76 90 95 85 94 68 79 89 93 90 92 87 92 92 83 94 62 66
40 26 17 19 25 36 54 45 77 74 62 41 30 21 16 17 10 5 10 24 24 20 18 14 12 15 39 43 49 66 69 64 73 82 85 91 82 85 93 91 85 87 92 100 95 92 94 87 80
77 24 20 22 38 46 56 57 92 73 56 37 32 25 20 20 13 6 8 17 18 18 18 15 12 17 42 58 83 69 83 79 68 67 78 84 89 89 83 75 80 77 77 94 99 97 95 94 87
59 32 23 38 48 67 80 67 97 91 61 44 38 29 23 25 16 8 5 15 16 16 17 15 12 13 26 41 95 94 86 82 72 63 62 69 82 78 78 85 82 75 66 81 95 96 94 96 89
89 29 31 77 80 96 95 86 86 91 82 49 39 36 29 27 23 11 6 11 11 14 17 16 13 10 16 29 65 92 75 70 63 62 67 60 70 77 90 92 82 90 95 98 97 97 95 96 89
94 42 85 71 81 98 99 95 100 98 79 57 42 38 34 30 26 18 8 9 12 17 20 16 11 8 13 24 40 61 64 78 77 87 84 78 83 83 95 91 94 97 97 96 92 98 96 96 95
91 82 63 88 97 97 76 93 73 75 95 66 46 40 36 31 27 20 9 8 16 22 22 16 8 7 7 20 42 72 66 86 79 98 100 100 96 94 90 95 96 97 100 100 98 96 95 97 97
90 90 86 98 98 76 100 72 95 96 94 83 52 44 39 36 29 27 12 9 19 22 21 14 7 6 6 12 24 38 66 80 88 94 94 93 93 89 96 91 93 99 99 100 100 100 90 97 97
92 99 98 89 94 92 82 62 61 87 92 77 74 62 54 43 34 29 17 12 17 25 21 14 10 10 7 6 12 19 21 57 66 80 78 95 95 90 95 96 97 98 94 94 94 92 97 97 97
93 93 82 94 92 87 78 74 43 80 76 98 99 100 74 49 32 32 18 15 12 27 26 24 18 15 13 8 6 6 10 15 26 36 68 86 90 95 96 96 97 97 89 90 92 92 94 97 97
100 99 98 97 81 67 78 80 47 78 94 79 86 95 83 63 38 34 32 16 16 18 28 25 27 16 15 15 14 12 8 6 9 11 23 37 87 96 95 95 91 86 81 87 95 92 95 98 91
100 99 94 99 88 83 83 66 46 76 93 97 96 78 86 62 54 43 41 19 16 18 23 26 32 21 16 18 16 14 14 14 13 9 8 9 18 22 38 56 66 69 48 39 40 57 72 77 75
98 94 100 98 84 80 71 62 72 77 99 88 85 89 87 76 57 55 43 37 15 14 19 23 31 29 21 18 18 17 20 18 17 15 20 25 18 12 11 14 15 20 23 29 31 34 39 47 64
98 100 98 94 98 82 81 88 86 81 98 88 88 98 99 92 78 54 48 46 40 16 18 24 27 34 30 32 31 32 26 23 22 20 21 22 19 24 26 26 22 18 17 18 20 21 25 26 43
100 97 95 98 96 94 99 94 94 99 96 94 99 96 94 90 81 70 60 50 53 33 22 22 27 34 35 35 37 36 37 31 30 26 26 28 30 31 32 32 31 26 29 33 49 61 52 64 73
99 97 99 97 100 99 94 100 93 98 100 99 99 98 87 76 68 60 53 43 39 44 27 23 23 28 41 38 35 28 27 33 36 34 25 26 26 26 28 28 30 41 53 59 62 59 56 55 56

GFSSGP_500_rhum_066.txt.gz
RH
8 9 13 14 14 13 10 11 12 17 28 43 31 52 58 52 46 12 5 8 13 16 17 18 18 15 9 9 10 8 8 10 7 5 5 5 7 9 14 30 37 53 64 86 92 85 75 63 56
8 10 14 14 13 14 9 11 12 21 31 35 21 56 46 49 21 7 5 12 16 19 20 18 21 24 25 13 13 15 14 15 12 8 8 11 10 12 15 30 51 62 77 100 96 92 83 66 56
4 7 13 13 18 13 11 11 15 19 20 21 18 43 51 33 18 6 7 14 19 20 25 21 20 23 28 28 19 22 28 24 21 15 10 11 16 16 27 29 48 58 61 85 99 91 84 74 60
3 7 9 7 15 14 17 31 18 20 30 37 28 37 38 23 9 6 11 12 16 20 20 23 23 24 29 32 32 28 23 32 28 25 26 19 11 15 51 65 55 46 50 61 81 95 78 68 73
3 4 5 4 18 15 13 67 39 26 36 27 30 39 38 22 7 7 10 16 17 20 17 20 26 23 26 33 45 39 39 37 36 36 39 50 41 26 13 15 54 61 54 50 51 84 94 64 62
2 3 3 6 19 13 15 65 28 18 28 39 33 36 36 23 7 7 10 17 23 17 13 10 20 22 32 31 62 78 62 55 41 43 68 70 76 55 42 34 28 41 64 62 67 66 89 87 80
2 3 3 7 18 14 43 54 26 36 53 33 61 52 52 30 7 7 7 10 21 21 17 12 14 22 31 34 36 74 96 92 96 93 97 96 96 92 47 85 82 68 82 85 99 97 94 83 80
3 3 2 5 20 16 68 32 26 50 78 79 58 40 43 27 8 5 6 5 6 6 5 7 13 18 29 44 55 74 81 97 96 95 96 96 96 94 87 68 94 98 91 95 97 98 89 85 83
4 3 3 13 20 16 86 41 31 78 63 68 40 34 34 30 7 8 6 6 6 6 7 11 12 15 27 32 54 63 77 96 98 97 95 96 94 96 78 76 98 97 98 96 96 90 78 86 96
6 5 7 26 21 16 90 61 45 43 62 51 35 38 32 24 8 11 8 6 7 7 16 12 10 16 30 34 40 59 78 96 96 95 95 96 96 97 96 89 78 90 88 92 94 93 90 98 97
13 7 23 34 19 19 89 69 62 44 37 29 41 36 28 17 9 8 6 7 7 9 18 14 12 18 32 39 45 81 96 94 86 95 92 94 97 97 94 87 69 87 80 96 96 97 91 98 98
18 18 25 39 21 23 64 81 53 40 34 32 50 43 29 22 12 9 8 8 9 16 22 17 12 14 27 39 44 82 98 93 80 80 86 86 95 88 90 84 61 65 90 92 93 90 88 94 97
20 28 37 58 22 21 52 81 55 50 35 39 51 39 32 24 13 11 11 10 12 23 21 15 13 13 19 37 44 66 83 78 78 82 88 91 86 84 60 73 69 68 70 75 86 84 89 97 96
33 35 44 69 25 20 36 71 56 37 44 56 57 47 36 26 14 13 12 13 11 20 21 18 15 12 19 39 41 66 72 71 92 94 87 94 91 74 68 73 100 99 85 94 96 95 89 96 95
45 42 42 66 33 16 36 33 36 43 61 69 66 50 35 24 14 14 16 13 10 20 22 17 15 12 17 37 41 57 79 89 92 86 93 96 86 92 84 93 100 95 100 99 97 94 85 89 95
44 50 70 69 51 16 25 22 26 47 68 75 71 48 30 18 16 19 20 16 14 18 19 18 16 12 26 42 49 56 78 86 76 78 95 95 92 74 69 87 91 95 90 95 97 80 92 87 91
50 44 63 90 47 18 22 22 36 76 80 84 75 47 30 20 21 24 23 13 11 15 14 18 15 13 17 25 47 88 74 78 84 85 99 96 92 90 74 78 71 85 84 75 78 79 95 96 88
43 62 94 57 28 24 30 29 78 92 98 76 63 44 30 23 28 30 23 11 8 13 15 17 15 13 10 23 70 99 95 88 82 83 81 87 87 84 72 69 75 86 79 84 77 83 100 95 91
48 60 96 65 31 31 42 42 82 81 91 72 55 45 37 28 32 32 26 11 7 11 17 18 16 12 9 23 38 90 92 88 80 72 73 71 68 81 83 79 79 69 90 83 85 69 76 87 97
45 67 92 50 98 83 44 64 94 88 78 66 57 42 39 36 38 34 27 12 10 16 19 20 15 9 7 20 42 68 82 78 80 72 67 67 74 82 88 80 76 76 79 80 94 94 83 72 97
45 78 100 73 78 96 66 61 88 78 73 76 79 67 42 40 38 36 29 15 12 17 23 20 14 7 6 14 32 83 88 90 80 78 73 84 91 89 92 98 91 74 83 93 96 95 82 93 97
69 87 98 81 92 64 80 75 71 64 57 87 94 78 48 37 39 40 37 22 12 17 24 19 12 8 6 6 22 27 74 94 80 88 80 97 99 100 99 97 96 93 99 87 83 76 89 95 98
83 92 94 69 63 72 91 83 71 53 57 62 75 64 55 39 38 44 48 26 14 20 22 19 11 12 11 7 7 17 30 45 68 85 89 96 95 97 99 100 96 95 95 88 94 88 92 97 97
91 91 94 84 81 62 76 79 62 42 46 77 81 71 61 40 41 44 44 27 15 16 24 22 17 18 14 10 6 6 9 20 30 57 95 90 96 97 96 97 98 98 93 98 100 99 96 97 99
100 100 99 94 76 60 71 91 48 61 70 94 84 60 47 40 46 42 52 44 24 15 28 27 25 24 16 13 12 10 8 6 9 18 30 58 92 98 98 97 97 96 98 91 94 97 96 97 97
98 95 100 99 97 82 76 77 43 76 97 98 84 75 65 48 44 45 54 53 34 17 17 28 25 26 20 16 15 14 14 13 13 9 8 14 27 69 96 94 96 97 97 97 97 98 96 96 94
96 78 100 98 100 87 70 71 74 76 76 92 72 79 64 72 57 63 57 54 56 36 16 20 23 27 25 19 17 16 18 20 21 21 16 17 12 15 32 42 46 52 53 58 66 49 44 63 82
100 99 95 97 100 96 90 98 94 95 96 79 68 55 63 92 100 87 66 48 58 58 45 19 25 25 29 25 21 19 26 29 26 24 19 18 22 21 17 15 15 16 20 22 24 33 38 36 42
100 98 96 100 100 99 100 98 93 94 89 91 82 67 55 61 72 66 56 54 63 57 54 37 20 28 28 28 29 34 38 33 31 30 25 22 25 26 23 23 24 25 24 23 23 23 24 26 28
99 100 95 99 99 98 97 99 93 96 90 89 92 81 65 60 56 53 53 60 60 63 55 47 37 28 27 27 28 30 38 35 34 31 30 25 24 24 23 23 25 32 39 38 43 43 58 63 61

GFSSGP_500_rhum_069.txt.gz
RH
2 2 2 3 6 10 14 13 14 14 12 14 17 22 19 31 46 64 47 20 7 5 9 14 17 14 12 14 15 11 10 9 6 4 8 7 4 4 4 7 10 25 37 37 44 68 76 85 69
2 3 3 3 4 7 17 16 17 14 13 13 15 19 22 39 50 54 36 12 6 9 15 16 16 14 14 14 16 20 15 14 10 8 10 10 7 5 6 7 12 18 28 39 36 68 86 92 76
2 2 2 2 3 9 16 16 16 14 14 12 14 22 24 38 42 32 24 7 6 11 16 18 17 16 16 17 23 26 25 19 19 16 16 15 14 7 6 7 13 18 30 46 62 83 93 94 82
2 3 3 3 3 11 16 15 14 14 14 14 17 15 19 32 34 22 11 6 9 13 17 19 20 19 18 21 24 26 29 30 22 23 24 23 22 20 10 8 8 12 32 50 49 69 98 97 64
3 3 4 4 3 9 16 16 15 14 15 14 14 16 23 29 28 21 11 7 10 10 16 22 18 16 14 17 21 24 35 40 37 31 33 31 28 26 28 18 10 14 21 40 40 37 73 100 92
3 4 4 4 3 7 18 20 16 15 14 14 19 32 25 40 32 18 10 8 9 8 10 19 13 17 12 14 36 45 62 86 66 42 36 80 38 38 42 46 25 16 29 38 47 38 45 99 76
4 4 5 5 3 3 16 22 19 16 16 18 31 36 30 40 25 21 14 7 7 6 9 15 12 8 38 42 43 49 63 93 95 95 80 96 83 73 68 80 43 20 18 46 54 47 62 86 91
4 5 6 5 3 3 16 39 32 30 18 29 42 42 57 45 32 26 14 6 6 5 5 5 5 5 10 35 28 31 46 71 97 96 97 91 95 96 94 94 84 67 63 33 48 65 97 97 84
5 6 6 4 4 6 19 20 42 62 51 37 42 84 66 44 42 24 12 7 5 4 5 5 5 9 12 11 16 29 43 67 85 94 96 96 95 98 97 95 86 74 84 68 45 86 95 95 89
6 7 6 4 4 6 20 22 44 56 72 53 38 75 80 52 37 29 15 8 6 5 5 6 13 12 10 13 23 33 39 45 72 92 95 96 97 97 97 97 83 67 84 83 85 96 98 93 97
6 7 4 4 7 10 16 27 68 70 88 75 53 47 57 56 36 28 14 8 6 6 6 9 18 15 10 12 24 36 45 76 80 92 96 84 93 94 96 97 73 81 90 89 92 100 97 95 89
8 6 3 4 14 22 27 24 40 84 87 75 52 36 39 54 38 27 16 11 10 6 7 12 19 14 9 10 21 30 49 79 92 95 90 80 90 96 96 96 95 94 74 84 86 87 97 95 98
6 3 3 8 19 22 40 31 41 91 73 73 55 44 43 53 38 29 17 13 10 7 9 14 18 14 12 10 20 36 47 66 94 95 82 80 89 85 92 96 98 94 72 67 63 84 96 93 95
4 3 4 13 23 28 48 45 32 89 75 68 66 49 51 55 42 30 18 13 12 8 15 18 20 16 12 10 16 36 42 65 88 87 82 87 89 97 88 96 98 82 70 59 53 78 98 96 90
4 3 12 33 31 25 51 52 21 35 83 64 53 42 58 58 56 36 15 16 16 10 17 20 20 16 14 14 36 40 49 80 93 96 82 83 90 92 94 92 65 69 62 56 49 75 100 100 91
5 5 21 40 45 50 66 56 26 27 64 62 51 56 68 60 62 26 17 22 18 11 12 16 15 16 14 13 35 39 51 91 95 96 88 86 90 92 84 76 65 74 88 72 62 62 100 98 93
5 13 43 48 61 82 79 63 35 24 29 51 69 68 72 70 58 22 22 24 15 12 10 14 16 17 14 11 16 42 81 81 95 93 96 96 96 86 70 73 72 76 86 94 90 90 98 98 98
7 15 55 38 88 92 83 61 41 23 38 50 76 88 71 69 56 24 26 26 19 11 11 13 16 17 14 9 20 29 86 78 92 92 97 97 97 91 86 71 72 81 81 86 85 83 88 98 97
7 14 42 33 63 87 61 37 33 22 27 45 65 91 82 55 47 35 32 29 20 11 10 16 20 16 10 9 19 31 89 89 95 95 99 96 97 96 96 91 81 69 86 91 93 94 91 91 98
8 9 42 31 92 74 52 35 29 22 31 49 74 88 76 46 37 50 33 31 17 13 16 22 20 14 7 7 18 42 84 94 90 87 86 97 98 100 100 91 72 68 83 95 85 90 85 80 92
8 13 45 41 95 68 54 38 33 36 39 49 77 94 64 42 43 44 35 32 18 15 21 23 20 11 6 6 19 50 71 80 85 79 76 78 87 98 100 99 89 88 90 94 93 90 88 91 97
8 51 59 59 73 55 53 39 31 37 52 74 88 86 62 45 49 40 39 42 26 18 22 25 20 11 8 7 8 18 32 70 86 80 73 77 88 89 92 94 99 96 96 98 98 99 94 93 98
9 52 69 62 75 58 62 52 32 48 64 72 75 67 52 40 51 47 56 58 35 23 24 25 21 11 13 11 6 8 12 31 59 77 75 81 98 95 97 98 97 94 94 96 96 98 99 98 92
13 74 90 84 72 64 66 56 40 54 60 85 79 73 57 53 51 62 78 89 51 24 22 24 21 14 18 14 9 7 6 8 17 63 83 78 94 92 98 98 97 93 97 97 96 97 97 96 97
22 92 100 98 76 52 70 56 41 94 99 98 98 95 71 55 46 51 68 87 93 39 20 22 27 27 24 17 13 13 12 10 6 9 23 80 96 100 98 97 97 98 100 98 97 98 96 95 95
46 100 99 86 78 77 77 60 49 91 88 83 80 84 74 64 46 44 70 90 84 44 26 18 23 32 29 21 16 16 14 15 16 17 9 11 73 92 96 98 97 97 96 94 92 96 97 99 99
68 97 99 100 100 95 93 77 69 94 76 93 84 69 79 78 79 63 68 91 94 78 54 30 19 32 35 28 20 18 16 18 19 22 20 15 12 34 85 94 95 96 97 97 97 98 96 97 98
78 100 98 100 100 90 100 92 75 72 89 89 74 54 58 77 84 90 97 98 84 68 58 54 36 18 24 27 26 20 18 19 22 24 25 18 20 17 14 16 31 42 46 43 44 54 70 70 79
93 100 98 100 99 79 99 97 82 74 81 83 77 66 64 57 73 68 74 67 52 57 58 53 49 39 24 24 21 23 23 26 34 33 28 26 22 20 20 20 18 17 16 17 20 25 31 33 42
99 100 100 100 100 98 100 90 76 78 89 90 80 73 77 68 60 55 56 53 59 70 64 62 65 68 54 37 30 30 27 28 28 29 31 30 26 24 27 27 27 26 27 26 24 24 25 24 24

GFSSGP_500_rhum_072.txt.gz
RH
9 5 4 2 3 4 7 9 4 5 5 9 12 13 14 15 19 25 25 28 23 15 10 5 5 10 12 12 11 11 10 10 11 10 8 6 6 6 8 5 6 8 10 14 21 37 42 55 92
4 2 2 3 4 3 8 8 6 6 5 9 11 14 15 18 18 29 35 31 25 17 8 5 7 10 11 12 12 11 13 15 18 16 13 9 10 11 12 6 6 8 11 14 22 40 55 82 95
2 2 2 3 4 4 8 9 6 7 5 6 9 12 13 19 25 41 39 28 25 13 6 4 9 11 12 13 12 12 15 18 23 24 19 16 14 14 15 10 7 7 10 13 23 44 63 96 97
2 2 3 3 4 4 8 9 5 5 5 6 8 9 13 17 22 32 29 26 20 10 6 6 11 10 12 13 12 13 16 20 24 26 28 22 22 22 21 17 10 12 12 20 29 42 84 92 93
2 2 2 4 4 5 11 10 5 4 5 5 6 7 13 25 27 24 27 28 22 10 5 9 11 10 16 16 11 12 18 26 32 36 40 35 25 28 27 26 20 12 8 11 24 48 73 85 96
2 3 3 3 4 5 9 11 6 5 5 7 6 11 18 32 29 25 26 31 22 9 6 8 10 9 16 15 15 33 63 55 54 58 62 67 73 75 40 32 32 23 12 10 20 37 52 78 87
3 3 3 5 5 5 8 12 9 7 4 6 8 9 21 46 37 26 28 32 21 12 5 7 9 8 13 10 25 57 56 60 65 90 95 94 96 95 96 88 51 48 25 30 58 65 59 46 78
3 4 7 5 4 6 9 14 14 6 6 8 12 15 36 52 40 29 35 30 22 11 5 5 7 6 6 8 29 55 48 41 38 60 87 96 97 96 96 96 95 82 57 31 53 69 71 66 71
8 7 4 4 5 6 8 16 19 9 8 13 19 36 55 48 37 21 40 37 23 10 7 7 6 6 5 11 12 25 25 30 28 58 94 95 97 97 96 97 97 96 96 63 24 49 66 71 77
4 5 4 5 6 6 5 12 23 10 10 23 29 70 80 63 44 26 38 41 26 10 8 6 6 6 13 13 11 10 16 28 39 58 76 95 96 96 98 96 96 98 97 84 78 28 57 61 86
5 6 5 6 6 6 6 7 23 16 13 26 44 90 79 47 33 41 41 39 20 11 10 8 6 9 17 14 10 10 16 28 38 56 81 88 96 96 97 96 96 99 79 68 82 61 58 100 90
7 5 6 6 6 6 5 4 14 22 17 36 42 76 47 28 49 51 42 36 19 12 12 8 7 15 17 12 11 11 13 29 36 58 80 75 96 97 91 90 97 97 88 81 89 97 96 98 84
7 6 6 6 6 5 3 3 8 25 29 35 53 66 59 51 65 52 44 33 23 14 12 7 8 15 17 14 11 11 11 22 39 54 89 88 92 93 90 94 95 100 91 88 79 95 92 99 98
8 8 7 8 7 4 4 7 10 23 35 35 36 49 37 49 37 43 51 33 22 15 15 8 9 16 18 13 12 12 26 33 37 49 81 93 86 90 96 96 96 98 96 95 85 91 87 92 91
8 9 9 8 5 5 12 9 18 32 33 32 36 40 44 44 46 74 57 37 20 17 17 9 10 16 18 13 14 16 38 39 41 72 91 88 89 90 97 95 97 98 97 92 79 82 88 76 83
10 11 10 7 6 10 21 10 43 43 43 47 44 57 51 37 54 88 78 46 23 22 14 9 10 14 15 16 14 12 27 30 44 85 96 94 97 97 96 96 99 99 96 71 80 65 87 94 96
12 14 11 6 6 10 27 20 50 55 45 32 62 51 28 36 55 84 75 50 30 23 13 7 10 12 17 16 13 10 16 27 68 88 93 97 92 90 95 98 98 97 60 76 96 76 93 100 97
15 15 9 6 6 20 31 32 42 66 54 42 30 40 32 39 66 83 75 58 29 25 12 8 11 13 15 16 9 12 18 33 90 83 95 97 97 92 97 96 97 69 55 89 95 94 100 98 94
14 10 9 6 6 33 36 27 32 65 60 52 24 23 25 37 82 91 77 53 31 27 12 10 13 15 18 11 8 12 20 52 93 92 97 97 98 98 97 89 92 71 79 88 80 81 84 84 91
14 11 9 6 9 31 39 24 24 56 65 35 23 22 29 52 83 95 78 43 34 21 14 15 17 21 16 8 7 18 51 86 100 96 96 97 97 96 97 96 80 72 84 75 72 81 89 92 96
14 11 10 6 14 38 31 26 38 57 53 28 24 27 31 52 80 96 64 43 34 20 18 21 23 21 15 7 7 19 38 70 92 93 93 96 97 97 96 96 96 97 92 88 85 100 100 98 95
15 13 11 8 7 32 40 17 43 58 33 25 27 32 37 54 92 92 54 41 42 25 21 24 27 23 15 8 7 10 16 68 79 79 86 88 88 96 97 98 97 93 96 92 98 95 100 100 100
15 13 11 9 8 34 44 36 22 53 34 25 35 44 59 66 91 68 57 46 53 37 22 26 29 23 14 14 11 7 7 18 28 60 81 84 79 77 90 96 97 97 97 96 97 98 92 96 98
16 12 11 8 13 23 45 44 30 54 36 39 50 66 86 98 99 70 59 52 47 41 26 30 29 21 14 18 14 9 8 7 9 16 53 75 82 79 80 84 94 96 92 89 95 97 97 92 98
15 12 11 13 15 36 57 59 48 66 40 40 69 85 87 91 91 66 53 50 58 37 32 25 32 25 22 23 19 12 12 12 8 8 10 22 71 76 81 93 99 97 94 97 96 96 100 98 97
11 11 19 20 30 73 81 72 75 67 62 43 63 84 91 91 85 57 54 50 62 60 48 25 27 28 28 27 22 14 14 15 16 19 17 9 25 78 85 92 95 97 98 96 95 96 98 97 95
13 17 28 33 81 86 92 91 79 55 65 62 92 96 97 91 85 66 67 69 73 74 51 57 25 19 19 21 20 20 15 15 18 19 19 17 11 30 80 87 97 97 98 94 93 96 95 92 88
9 19 44 82 96 94 94 87 74 57 70 70 94 90 76 90 97 94 81 74 86 74 50 67 57 38 20 19 19 20 21 18 17 21 24 15 14 15 15 44 82 93 96 97 98 98 98 97 94
13 41 76 94 99 98 96 90 68 75 67 88 88 69 72 98 95 93 100 91 59 56 57 61 61 57 50 33 23 26 24 23 19 23 24 22 18 15 17 18 16 17 26 42 69 83 86 76 67
24 37 75 96 99 99 98 100 70 68 84 99 98 79 74 79 97 96 96 82 62 48 75 64 66 66 68 67 61 42 44 38 29 28 31 27 22 17 19 20 19 20 20 20 19 18 18 19 20

GFSSGP_500_rhum_075.txt.gz
RH
12 13 12 12 6 3 3 7 4 4 4 6 6 5 8 8 10 12 11 11 11 14 15 15 14 8 4 6 9 10 10 9 9 10 12 12 10 7 7 8 9 8 7 7 12 19 30 48 58
13 15 12 9 4 2 5 6 5 4 4 4 4 4 6 9 10 10 12 12 10 13 17 16 14 7 4 7 9 9 8 9 12 18 17 15 15 10 9 11 19 38 9 20 13 27 50 67 78
16 15 7 3 2 2 6 6 4 4 4 4 4 4 4 7 10 12 14 15 13 15 19 18 14 7 4 9 9 8 8 12 14 24 24 20 18 17 12 13 15 10 8 19 27 33 64 76 94
16 15 8 2 2 3 7 8 5 4 5 4 4 4 5 8 13 17 24 19 16 18 20 20 14 6 5 8 9 8 10 16 23 18 19 21 24 27 20 18 19 13 9 16 51 68 61 63 72
15 14 14 5 2 3 11 9 6 5 5 5 4 5 5 10 17 31 37 24 18 20 21 21 15 6 5 8 8 9 12 17 26 50 44 46 45 40 34 42 31 34 14 27 45 91 78 57 92
28 10 10 3 2 4 12 12 6 6 5 5 4 4 5 11 21 34 29 27 24 24 23 23 13 6 6 8 7 12 24 32 68 82 74 87 80 75 69 75 65 50 18 10 16 47 70 99 88
26 14 3 2 3 3 17 9 6 6 5 6 6 5 6 11 20 27 29 33 28 27 24 27 13 6 5 7 7 15 41 47 65 87 94 96 97 96 95 95 92 59 43 13 9 18 43 85 88
17 11 3 2 3 3 13 11 7 6 6 6 6 6 6 12 16 21 23 43 32 31 30 24 10 6 5 7 7 12 13 41 53 39 37 80 94 96 93 96 96 93 63 47 16 31 58 83 70
15 13 12 3 4 4 12 8 7 6 6 6 6 6 6 8 19 29 27 41 35 38 32 20 8 8 7 6 6 9 12 20 24 23 40 67 73 84 94 97 95 97 96 91 74 39 49 84 62
13 12 9 8 5 5 6 7 8 7 7 7 6 6 6 9 23 25 25 47 50 45 39 17 8 7 6 7 11 15 12 16 23 21 37 55 73 94 86 91 97 97 96 98 76 39 56 75 83
10 9 6 5 5 5 5 7 7 7 7 7 7 7 8 13 22 24 33 50 41 53 42 18 10 8 7 12 18 16 12 12 11 18 32 44 53 80 95 96 97 96 96 95 85 82 50 63 71
14 10 6 6 6 5 5 6 7 7 8 10 7 7 8 17 25 27 35 44 48 55 41 14 12 10 9 19 20 15 13 12 11 23 33 41 65 76 95 96 96 92 97 96 81 77 70 38 50
15 9 8 7 6 6 6 6 6 7 6 14 9 9 13 16 18 20 29 36 61 60 41 16 12 10 10 18 18 15 13 11 12 25 44 50 66 73 96 95 95 95 98 96 78 77 76 40 38
14 13 9 8 7 7 7 7 10 12 18 20 16 21 23 23 23 22 26 50 57 65 54 17 14 10 12 18 19 15 13 11 25 40 39 44 65 84 95 97 97 96 97 95 83 87 82 79 93
13 11 9 9 8 8 8 10 9 13 22 18 32 33 32 29 26 27 42 64 76 75 50 18 17 11 10 20 18 13 14 13 28 37 34 55 73 90 92 94 98 94 99 96 95 86 75 81 78
14 12 11 9 9 9 11 12 19 15 13 26 40 35 32 31 30 35 49 84 78 74 34 20 21 14 12 15 14 14 14 12 13 19 32 68 92 94 95 98 97 98 98 93 97 99 81 83 75
15 14 12 11 11 12 12 11 12 11 9 36 57 44 36 33 32 34 77 76 89 71 29 25 24 10 13 15 18 16 14 10 15 23 40 84 96 95 91 85 91 97 97 98 98 86 75 84 94
20 15 13 13 12 11 9 10 7 8 17 34 44 45 43 41 36 56 77 98 92 69 30 31 16 11 14 18 16 15 10 10 17 27 72 83 96 96 93 94 95 97 96 97 93 60 72 81 80
41 27 22 17 13 11 9 12 9 7 34 34 37 44 46 40 35 38 51 93 90 71 34 35 13 15 19 19 16 9 8 19 44 73 86 84 96 96 98 97 98 95 97 96 68 91 78 78 71
31 52 29 17 13 13 11 11 8 8 31 27 41 47 53 39 30 24 46 92 92 88 45 22 14 21 23 19 12 7 22 64 84 93 100 96 94 97 96 98 97 97 97 92 81 94 97 95 84
78 42 20 16 14 12 12 12 6 18 27 24 38 58 56 46 23 23 59 98 91 84 49 16 21 26 22 18 8 7 18 24 67 86 94 95 97 96 96 97 97 96 97 87 87 96 99 99 94
28 22 18 16 16 13 13 11 9 20 25 27 47 65 53 27 22 39 78 92 95 71 42 17 27 28 22 16 8 8 10 20 72 73 85 94 96 97 97 97 96 95 80 82 90 95 95 98 96
25 20 18 17 16 16 12 12 9 16 32 39 51 58 54 24 29 64 94 100 94 58 34 20 29 29 22 16 12 12 7 7 18 30 73 89 89 95 97 96 96 96 97 96 97 90 83 94 93
25 21 19 18 16 14 14 13 9 17 49 51 49 44 27 26 34 78 89 95 72 53 38 23 29 32 23 17 16 15 8 8 7 11 21 72 82 86 83 94 96 96 92 96 98 96 83 92 96
29 25 21 18 16 14 15 13 10 31 51 51 45 27 26 32 56 93 98 92 65 55 42 23 28 36 24 18 18 19 12 12 13 9 8 11 37 75 76 91 96 97 97 97 97 99 91 90 96
32 28 20 17 15 15 15 16 22 67 70 65 43 32 30 36 88 98 98 99 79 58 51 23 22 29 27 23 23 21 14 15 15 17 18 16 10 39 63 77 89 96 100 98 98 86 91 99 99
28 21 16 16 18 17 22 44 27 72 72 84 46 37 47 72 94 98 99 98 84 65 48 34 25 56 19 23 22 21 21 15 15 18 19 15 14 12 57 82 84 90 96 96 98 96 96 94 95
34 24 19 27 30 39 71 58 57 83 72 84 58 42 85 92 96 100 98 100 82 77 54 44 41 65 25 19 20 24 26 25 19 17 19 21 18 16 14 54 91 84 80 97 93 90 89 92 97
32 21 18 63 75 92 96 84 74 80 76 74 68 64 68 97 95 99 98 100 98 91 62 46 56 52 50 47 27 23 26 30 29 22 20 27 25 20 17 18 17 35 74 83 94 97 95 91 83
42 28 46 97 93 100 100 84 97 99 85 71 73 88 93 100 96 98 88 100 100 99 77 53 52 62 62 62 55 42 35 32 30 30 28 32 37 29 25 18 18 19 19 18 17 17 20 27 33

GFSSGP_500_rhum_078.txt.gz
RH
7 8 9 10 10 10 10 10 6 4 5 5 4 4 4 4 6 6 5 4 6 7 6 7 10 11 12 11 6 4 6 8 8 8 7 6 7 6 8 9 7 6 10 9 8 8 16 30 43
11 10 10 11 11 11 9 8 5 5 5 4 4 4 4 4 5 5 4 4 5 5 5 5 6 12 14 12 5 6 7 8 8 7 7 9 11 13 10 10 9 9 8 9 13 10 34 30 52
14 13 13 12 13 13 7 6 6 5 4 4 4 4 4 5 6 5 4 4 5 4 4 4 4 12 16 14 7 5 6 7 8 10 13 17 20 19 19 16 12 12 33 23 13 19 39 37 62
21 19 17 15 15 14 7 6 6 6 5 4 5 5 5 5 6 7 6 5 5 4 4 6 5 8 17 16 10 5 7 8 10 15 18 25 27 24 22 24 18 16 17 20 19 37 43 65 69
32 29 25 19 17 15 11 8 7 8 5 5 5 5 5 6 7 8 8 7 6 4 4 7 6 7 15 17 10 5 6 7 18 22 37 57 54 49 52 37 31 21 32 22 24 48 53 77 73
34 33 30 28 25 14 9 10 9 8 5 5 5 5 6 8 8 11 11 10 8 5 5 8 8 13 17 18 9 5 6 11 43 58 75 90 75 76 79 66 78 74 67 66 39 53 79 60 63
28 26 25 27 28 23 6 10 9 8 5 5 6 5 6 8 8 9 9 18 10 6 8 13 14 27 24 20 9 4 5 12 24 36 73 95 96 96 96 96 95 93 85 67 30 39 46 64 49
25 23 22 26 26 23 6 11 8 7 5 4 5 6 6 7 8 8 10 16 8 10 24 20 24 28 26 20 6 4 6 7 15 32 65 50 33 91 97 96 97 96 82 46 43 16 33 48 46
35 29 24 22 20 10 6 6 8 6 5 4 4 6 7 7 7 9 14 25 17 18 33 25 28 33 28 13 7 5 5 5 14 18 28 22 40 74 96 94 96 100 96 78 53 21 21 46 78
39 35 28 20 13 8 5 6 6 5 4 4 5 6 8 7 7 9 17 27 16 27 32 28 33 36 29 9 6 5 6 13 23 37 27 21 33 42 59 86 86 93 94 96 96 85 46 19 56
40 34 28 19 11 7 6 6 6 8 5 5 7 7 9 8 8 10 14 13 19 24 41 28 45 46 32 10 7 6 9 17 33 35 11 17 23 41 42 48 79 77 100 96 96 88 86 48 43
45 36 32 23 11 7 6 6 6 5 5 7 7 8 9 8 7 12 15 15 18 38 37 36 58 53 28 12 8 8 17 17 20 12 9 13 26 32 40 60 78 96 97 94 96 91 83 69 44
41 32 25 20 13 8 6 6 6 6 6 8 7 8 8 8 9 12 14 16 18 39 37 36 60 49 41 13 8 14 22 17 14 12 10 13 30 37 51 61 80 96 97 97 97 91 96 78 49
54 22 21 17 11 8 8 7 6 7 7 7 8 10 10 9 12 15 17 20 39 46 54 40 48 51 44 14 8 15 20 19 16 12 12 32 38 36 43 69 93 97 96 98 97 97 89 52 30
44 29 17 13 11 10 9 8 7 8 8 8 9 10 10 10 14 22 27 30 40 33 42 74 71 61 35 17 10 13 17 19 15 13 12 35 32 34 46 74 93 96 96 97 97 91 72 65 46
32 31 16 13 12 11 10 12 10 12 13 12 14 12 11 14 18 28 31 30 37 37 59 79 72 61 22 18 10 11 16 17 14 12 10 13 18 33 67 77 90 96 97 97 97 92 79 78 71
51 54 37 15 14 12 10 10 9 11 12 12 10 8 8 16 22 32 34 43 52 54 87 76 78 44 27 17 12 11 14 16 15 12 10 14 24 59 92 90 99 96 97 97 97 95 91 88 73
72 46 32 18 17 14 11 11 10 11 12 9 7 8 12 26 34 35 37 44 42 72 90 81 76 42 26 16 12 14 18 15 11 9 11 17 30 75 97 97 93 94 96 95 97 99 96 96 82
88 61 34 30 32 27 16 13 14 13 10 8 8 8 18 29 44 39 38 37 42 89 79 91 70 48 30 14 14 15 14 9 8 16 29 40 76 98 97 97 96 90 95 96 97 97 98 95 73
88 84 97 93 63 41 27 27 30 14 10 8 8 11 23 28 39 40 40 41 47 90 80 91 84 44 26 13 17 15 8 7 25 69 82 88 95 96 93 97 98 100 97 96 95 96 97 87 57
60 65 39 39 64 69 54 34 15 13 11 9 8 19 21 24 33 48 50 38 45 75 81 92 76 41 18 17 19 11 7 10 19 66 96 97 97 83 89 97 97 98 97 96 96 97 88 79 92
70 72 72 91 94 27 18 17 15 12 13 11 10 22 22 33 48 60 51 30 31 69 92 84 64 37 20 21 17 10 8 8 19 72 78 97 96 91 91 97 95 97 96 95 97 89 82 94 89
87 93 69 57 27 20 17 16 13 12 12 11 16 22 25 38 53 59 40 25 36 82 95 91 59 28 20 23 18 10 14 7 8 15 59 90 96 96 97 96 97 96 96 96 96 80 90 97 95
81 73 54 29 20 19 16 15 12 12 15 10 20 23 34 48 46 39 24 42 70 90 92 80 60 24 20 23 19 13 17 8 8 7 14 76 96 97 97 97 96 97 96 97 84 82 84 91 89
83 48 31 27 24 21 18 14 13 14 15 10 27 29 37 41 56 33 25 50 81 100 77 82 56 25 22 23 19 15 19 13 15 14 14 12 21 85 91 96 96 97 97 96 96 96 96 97 95
97 67 33 27 27 27 22 16 14 19 27 28 47 45 46 41 41 24 30 56 94 94 83 76 60 30 20 21 19 19 23 15 17 17 20 18 15 13 68 78 96 98 96 97 98 96 96 96 95
65 56 36 30 25 23 18 17 16 27 40 52 58 55 56 36 27 31 56 84 94 99 94 78 73 35 22 23 23 27 25 19 16 17 20 22 21 14 22 73 92 98 99 95 93 95 96 97 97
70 56 38 42 28 19 32 29 45 50 55 74 75 69 57 34 25 44 74 89 100 100 100 84 71 41 43 18 20 25 28 24 18 18 18 21 27 24 15 35 86 85 97 99 99 96 96 97 97
60 43 36 29 32 17 41 58 96 84 76 92 89 87 68 37 36 41 69 98 98 100 100 96 75 47 53 28 21 20 25 26 22 21 20 19 26 31 23 17 16 40 77 86 98 97 92 92 97
61 70 62 58 44 39 66 75 97 100 99 99 94 93 74 41 39 60 89 98 92 98 99 100 70 53 61 55 57 42 21 23 25 24 24 20 23 28 21 16 16 16 17 18 18 18 18 22 36

GFSSGP_500_rhum_081.txt.gz
RH
8 9 8 8 9 7 8 10 12 11 10 9 4 5 5 5 6 29 5 3 2 3 2 2 2 2 3 6 9 10 9 5 4 5 6 5 7 4 5 7 7 8 7 7 12 15 10 9 15
10 11 11 11 9 10 9 13 15 12 9 9 4 5 4 5 5 4 4 3 3 3 3 3 2 2 2 3 6 12 11 7 4 6 8 14 6 7 22 16 10 10 10 16 8 11 10 15 21
13 13 14 12 10 8 12 22 28 13 10 6 4 5 4 5 5 5 4 4 4 4 4 4 4 3 3 4 5 9 13 9 5 6 5 5 10 18 26 44 19 13 12 17 42 14 13 24 36
23 21 18 15 13 15 15 15 32 14 12 4 4 4 4 5 5 5 5 4 5 5 5 4 4 4 3 4 7 12 14 11 6 5 6 8 12 19 41 44 39 22 18 24 47 59 34 48 40
33 30 29 25 24 25 25 21 16 14 12 4 5 5 5 6 6 5 5 5 5 5 5 5 5 4 4 4 6 11 17 13 6 5 6 20 29 42 60 53 56 40 33 28 51 60 42 58 54
43 39 34 34 34 34 33 30 27 14 11 8 5 5 5 6 6 6 6 6 6 6 7 6 5 5 5 6 8 12 15 17 7 7 27 66 88 97 96 76 67 76 80 70 86 48 42 55 74
38 42 37 38 37 33 32 29 27 24 15 7 6 4 5 6 6 6 7 6 6 7 7 5 4 6 6 7 10 15 20 17 7 26 39 36 67 91 96 96 96 95 95 92 97 72 42 56 67
38 41 35 30 24 23 30 23 22 21 17 7 5 4 6 6 6 7 7 7 7 7 6 5 7 8 9 10 17 24 25 15 6 6 10 14 40 73 93 94 96 95 96 96 96 79 50 68 71
62 47 33 38 35 27 27 22 16 14 11 7 5 6 6 6 6 8 7 8 8 8 6 6 8 11 14 17 23 30 21 9 6 5 5 11 27 20 35 93 97 96 96 96 97 54 34 52 54
63 59 49 46 39 32 30 25 16 12 8 5 5 6 5 5 6 7 8 8 9 8 7 8 10 13 21 22 36 36 16 8 7 14 24 28 36 30 46 68 95 96 96 96 96 76 78 72 41
63 57 66 56 46 41 33 26 13 10 7 4 4 5 5 4 6 8 8 9 10 9 8 9 12 16 26 45 48 40 16 9 7 12 37 43 46 32 23 70 64 78 96 92 96 95 94 90 74
58 64 73 70 54 44 32 23 13 8 8 10 10 9 5 5 6 8 9 10 10 10 11 11 14 19 34 58 54 38 17 10 9 12 33 48 28 18 17 34 32 39 61 81 89 96 97 91 92
61 73 71 69 63 50 32 22 14 9 6 6 8 10 7 6 7 8 8 10 11 11 13 15 17 21 28 50 47 42 26 10 11 22 25 47 19 15 9 21 37 45 68 93 88 97 96 96 97
85 76 75 77 60 39 24 19 12 10 6 6 6 6 6 7 7 8 10 11 12 14 18 23 19 27 31 39 61 47 31 11 12 19 24 21 28 20 22 25 38 56 75 95 96 97 97 97 88
92 88 84 80 36 25 16 23 14 10 8 7 7 7 6 6 9 10 11 13 16 20 25 22 28 34 65 63 67 47 24 11 11 21 20 27 31 30 40 24 32 53 84 96 96 96 97 93 83
78 79 89 83 70 25 37 38 13 9 9 8 8 8 8 8 10 12 11 16 22 25 27 27 38 56 78 62 67 37 21 11 10 20 18 18 26 19 19 18 31 62 93 97 98 96 97 95 70
98 92 94 66 46 48 52 34 12 13 11 10 8 9 12 14 14 11 10 21 25 30 31 32 49 80 73 70 56 28 24 11 10 13 14 14 12 11 13 24 53 76 88 96 97 97 97 80 74
100 97 82 87 56 75 42 30 26 12 10 10 10 11 12 10 7 13 19 26 28 32 33 40 55 81 79 78 39 28 14 11 13 13 14 12 10 10 17 39 85 88 93 96 96 97 97 86 79
99 76 72 92 82 65 67 60 32 13 10 10 10 11 8 6 9 21 36 28 35 34 34 37 56 92 82 70 37 27 14 19 16 13 9 9 10 11 36 55 92 93 98 96 96 96 96 89 92
97 96 89 93 98 79 70 45 28 25 22 21 13 10 8 8 10 27 47 33 39 34 35 39 84 86 82 60 36 18 20 16 13 8 11 30 63 58 48 70 97 97 93 94 95 97 96 92 96
99 89 97 84 68 75 71 75 53 34 19 21 22 11 10 8 13 25 39 27 40 37 39 42 96 78 80 45 34 19 19 13 7 10 13 49 84 86 86 90 96 97 96 96 96 97 97 96 97
79 96 90 90 94 68 100 99 92 80 63 19 13 11 11 11 22 24 37 28 44 47 41 49 75 82 77 56 28 24 17 9 8 10 17 71 79 98 94 80 89 97 96 96 96 97 97 96 97
94 64 71 69 81 91 71 83 59 48 22 16 14 13 11 14 23 25 44 43 54 45 35 44 88 84 75 55 27 23 16 11 8 7 12 30 83 96 89 74 80 88 97 96 95 96 97 97 96
98 99 97 98 85 90 64 32 72 100 56 15 12 11 11 21 24 33 54 66 55 39 26 38 91 85 69 45 30 22 15 15 8 7 7 17 84 96 97 96 96 100 98 96 96 97 97 95 91
96 100 89 100 88 74 99 58 66 100 21 14 13 12 12 19 22 35 48 62 42 22 22 46 93 89 66 44 33 24 15 18 11 12 16 18 18 57 96 97 97 96 97 97 97 97 97 82 91
89 99 99 100 100 100 100 91 99 39 19 16 15 10 23 26 23 48 56 56 26 21 50 78 87 82 64 50 28 26 15 21 15 16 18 20 18 15 65 95 96 96 96 96 96 96 94 95 94
75 99 81 94 75 57 44 47 100 25 18 18 20 16 37 35 53 49 56 37 24 30 68 93 90 86 65 50 29 27 20 26 18 16 18 20 21 16 14 76 90 97 96 96 96 97 97 97 97
48 76 100 91 84 82 74 94 99 86 46 26 27 45 52 53 55 51 64 29 25 42 85 100 81 98 63 52 46 31 28 32 27 18 16 17 19 20 14 51 79 91 97 97 97 95 97 96 97
58 58 90 91 88 100 96 100 93 78 72 46 39 48 63 61 57 48 29 25 27 76 98 99 91 90 54 62 80 28 23 30 30 30 20 18 18 21 13 14 61 88 86 89 95 92 95 97 97
94 59 96 100 76 75 81 85 89 95 89 70 80 78 73 64 54 35 29 43 46 91 98 98 94 88 55 79 86 52 22 22 27 30 29 21 20 19 19 11 13 21 61 85 90 97 93 86 88

GFSSGP_500_rhum_084.txt.gz
RH
12 11 10 9 8 5 6 7 9 11 19 12 9 10 10 6 7 27 6 8 4 3 2 3 3 3 2 2 3 3 4 6 7 8 6 4 5 6 11 8 6 5 6 10 12 8 13 20 30
15 14 12 11 7 6 7 10 13 28 39 9 9 10 9 7 9 6 5 4 4 3 3 4 4 4 4 3 3 3 3 5 8 10 8 7 5 6 20 18 26 30 12 19 21 18 11 20 20
22 22 19 14 9 6 10 15 24 39 38 17 12 12 9 6 8 5 4 4 5 4 4 4 4 4 4 3 3 3 4 4 5 10 11 9 8 6 16 25 33 42 34 21 21 26 32 14 15
32 27 23 18 15 15 15 18 22 35 41 15 13 15 12 6 6 6 5 6 5 4 4 5 5 5 4 4 3 3 2 3 4 5 9 11 7 9 16 26 41 64 54 43 34 32 47 31 20
37 39 36 33 29 25 27 30 29 31 25 22 19 15 13 8 5 6 5 6 5 5 6 6 6 7 6 4 4 3 3 3 3 5 8 10 10 8 16 35 42 63 66 52 43 39 56 50 20
31 35 21 18 28 36 35 34 35 34 32 31 30 24 13 10 5 5 5 6 5 6 6 6 7 6 5 4 4 4 3 3 3 4 8 12 14 24 66 98 96 96 96 97 92 84 67 58 36
41 34 24 24 26 36 42 43 51 35 32 31 28 26 22 13 9 5 5 6 6 6 7 7 6 5 5 5 4 4 4 3 3 6 13 19 36 54 49 54 90 98 96 96 96 95 91 58 39
41 44 33 28 31 31 41 40 32 33 29 28 26 23 19 20 13 7 5 7 6 7 7 7 6 6 6 5 5 4 4 3 8 12 18 10 6 11 12 59 84 96 96 96 95 95 94 72 41
40 28 23 46 46 41 46 44 48 31 24 23 22 20 18 21 19 8 7 7 7 7 7 7 6 6 6 6 6 5 5 7 16 22 16 8 6 5 13 36 26 47 95 96 96 96 91 83 54
35 28 31 50 60 58 55 57 46 39 32 28 22 17 16 15 12 5 7 8 7 7 7 8 7 7 8 7 8 8 10 22 30 22 9 7 14 14 19 37 66 72 96 96 96 95 67 74 54
32 18 31 35 55 67 62 54 50 40 36 32 28 18 13 12 6 5 6 7 7 7 8 8 8 8 9 8 13 16 27 36 34 16 11 11 17 33 50 50 68 41 86 96 97 96 94 75 79
20 18 21 28 49 59 64 64 57 50 42 32 28 22 13 8 4 3 6 7 7 8 8 8 8 10 10 11 15 17 38 42 41 22 16 17 32 70 59 28 17 44 52 76 95 94 95 82 93
25 22 26 29 49 64 71 67 68 60 40 28 26 16 14 8 6 8 10 6 8 9 9 8 9 11 12 16 20 20 34 44 47 28 27 15 27 43 49 21 12 18 33 48 78 80 86 95 94
31 27 27 31 32 58 76 72 63 56 47 28 22 16 9 7 8 9 20 12 8 8 10 10 10 12 22 19 24 32 30 40 49 27 19 20 30 34 51 31 17 24 33 47 53 83 98 95 97
38 42 60 74 80 88 75 71 72 64 36 27 18 12 8 7 6 6 7 7 8 9 13 10 12 15 23 23 31 67 47 52 44 24 16 16 18 29 24 36 29 33 29 46 63 97 97 96 97
51 61 74 76 81 78 67 54 54 48 27 21 14 12 8 7 6 6 6 8 8 11 14 10 15 24 28 27 54 64 62 62 38 22 19 11 16 29 32 44 34 26 23 37 68 94 96 96 97
64 70 89 77 79 87 99 63 71 66 33 29 23 18 8 8 8 8 8 10 11 14 13 10 21 32 34 33 67 62 67 52 30 23 16 10 15 22 20 25 16 12 18 38 76 96 96 97 96
76 75 76 75 86 98 96 70 80 44 64 45 24 28 12 9 8 8 11 13 15 17 14 14 26 38 38 38 79 76 76 41 25 13 11 12 13 16 13 15 10 10 25 60 80 97 97 97 97
57 68 67 79 87 97 82 82 65 61 41 72 21 13 12 12 13 15 15 14 16 25 15 26 31 51 38 53 90 77 71 33 20 11 16 17 14 11 9 10 11 27 41 72 85 96 96 97 96
69 75 68 72 84 91 81 97 74 63 80 54 65 16 10 10 12 10 7 8 14 21 30 35 37 41 40 81 86 79 55 25 13 16 15 10 9 13 22 42 35 29 51 86 90 96 95 96 90
82 86 78 72 84 85 92 90 82 80 84 81 70 31 13 11 13 11 8 10 22 30 33 37 41 38 48 92 81 84 35 17 17 14 8 9 13 32 43 64 75 61 61 97 98 98 95 97 94
58 84 84 87 87 85 91 86 84 100 97 98 81 33 40 42 15 11 8 17 25 34 35 32 36 43 60 90 80 81 28 21 16 8 8 10 12 37 70 96 88 89 80 88 96 96 95 97 96
44 72 83 81 93 77 74 90 69 65 96 93 97 88 57 59 46 11 14 30 27 37 40 41 40 44 83 84 87 76 29 23 11 11 7 7 11 19 66 88 100 86 84 97 96 95 96 97 97
48 74 77 79 98 82 70 97 77 95 92 98 98 89 82 20 14 15 30 50 42 37 44 49 44 56 87 78 94 65 31 19 13 13 8 7 8 29 90 91 91 88 83 96 96 97 96 95 96
27 43 78 84 100 89 90 92 93 88 98 98 99 42 16 13 12 12 48 70 68 36 52 52 38 45 74 82 93 62 31 18 16 13 10 14 16 30 47 96 96 87 80 94 97 96 96 97 96
23 28 54 97 92 78 100 98 98 68 97 80 62 16 14 14 16 17 15 31 67 37 55 50 28 33 48 88 86 62 35 16 19 16 15 17 18 19 29 67 98 97 95 98 96 98 97 96 96
35 20 71 87 87 89 99 94 96 94 77 72 24 15 18 25 32 70 32 29 52 38 50 34 22 24 58 92 81 67 42 23 21 19 16 18 20 18 26 20 95 97 97 96 96 96 97 96 97
58 25 51 99 90 93 76 99 95 93 94 65 21 13 17 25 38 70 54 49 48 43 51 24 24 61 77 76 79 66 44 35 25 26 17 17 20 17 16 10 68 93 94 97 96 95 96 96 96
60 39 12 34 91 97 99 98 100 99 100 94 49 22 20 46 46 48 56 56 52 62 45 62 49 82 84 75 78 77 70 45 35 33 26 18 18 17 17 13 36 81 98 96 97 97 97 97 97
100 89 70 75 81 95 90 98 100 97 100 72 68 47 27 54 65 44 45 64 65 67 42 71 94 84 91 71 80 84 96 41 32 34 30 27 21 19 19 17 12 62 90 96 97 96 92 97 96

GFSSGP_500_rhum_087.txt.gz
RH
12 12 11 10 8 5 5 6 9 11 16 16 13 20 27 25 20 13 10 8 6 6 6 3 3 3 3 3 3 3 3 2 3 3 5 9 8 7 6 4 13 17 14 19 11 5 8 8 17
14 12 11 10 10 8 8 12 12 12 10 11 20 21 24 29 24 12 10 8 6 5 4 3 3 4 4 4 3 3 3 2 3 3 4 5 7 10 11 11 6 11 19 28 29 17 14 12 10
14 11 11 11 10 10 10 13 14 18 21 16 20 19 19 18 29 12 10 8 6 6 5 4 4 4 4 4 4 4 3 2 2 2 2 4 6 12 22 21 10 14 20 42 50 33 22 20 18
20 16 11 8 8 11 13 16 17 19 16 19 19 18 15 16 18 16 13 10 7 7 5 5 4 5 5 5 5 4 4 3 2 2 2 2 4 7 11 22 24 19 22 37 64 65 39 24 25
27 25 16 10 9 14 22 26 29 30 32 29 26 24 25 25 21 18 15 13 6 8 6 6 5 6 6 7 6 5 4 3 3 3 3 3 3 6 11 15 33 39 62 92 91 85 51 31 30
23 22 17 20 22 22 23 32 36 36 39 36 35 31 31 32 28 25 20 15 8 7 6 6 6 6 7 7 5 5 4 4 4 3 2 2 2 7 16 27 55 75 97 96 96 94 85 40 41
29 27 18 17 16 24 28 32 35 41 39 45 48 42 36 34 32 28 24 22 14 7 6 6 6 7 7 6 6 6 5 5 4 3 3 3 3 9 15 21 54 47 80 91 96 96 94 85 63
26 24 18 19 18 20 40 36 37 38 38 44 47 45 46 36 31 28 25 24 22 10 7 6 6 7 7 6 6 6 6 5 4 4 3 3 6 13 15 9 11 52 68 87 96 96 96 91 86
21 13 15 26 30 35 46 52 52 47 39 42 53 62 42 33 28 22 22 23 24 14 8 7 6 7 7 7 7 7 6 6 5 4 4 5 15 20 10 7 39 43 58 51 83 96 96 96 100
17 14 18 30 32 33 36 48 57 56 45 38 37 43 43 30 27 23 21 21 20 12 9 8 7 8 8 7 7 7 7 7 6 6 9 13 24 15 7 13 33 32 43 59 75 96 96 97 96
20 9 22 23 24 22 18 24 43 47 52 55 46 39 43 37 33 28 23 19 18 10 11 9 8 8 8 8 8 8 8 9 7 11 18 22 24 13 11 23 38 56 81 66 90 96 97 96 80
15 15 16 20 26 24 21 27 28 43 43 60 59 57 49 43 37 34 31 22 12 6 8 11 8 8 8 8 9 9 9 13 11 14 23 35 23 15 23 42 55 38 23 30 61 96 96 91 75
16 17 14 13 13 12 12 10 27 27 50 56 63 60 54 47 39 34 32 20 9 5 6 9 9 9 9 8 10 10 11 16 20 18 24 43 24 24 18 46 61 26 16 19 31 61 96 96 100
16 14 13 11 11 8 7 10 46 44 64 68 65 61 50 35 32 30 26 15 9 8 6 8 10 10 9 9 11 10 16 19 22 28 25 41 22 18 15 34 54 36 18 18 27 33 56 96 98
14 11 10 10 13 21 48 35 40 56 75 79 74 55 41 37 25 25 20 12 8 8 11 13 19 14 11 11 12 13 22 22 27 32 32 41 23 16 17 28 27 37 30 26 34 44 46 54 93
11 14 15 31 48 42 77 54 58 67 68 62 72 82 73 37 28 19 15 10 8 7 8 19 13 9 13 13 17 36 26 29 44 45 39 39 22 14 10 17 31 39 38 37 26 28 47 85 97
26 22 34 17 38 52 77 69 47 58 62 70 72 64 67 71 33 16 12 8 7 8 7 6 7 11 16 23 30 57 50 36 49 54 47 28 18 10 9 15 22 32 33 46 24 20 42 76 97
28 32 28 29 35 70 60 52 57 64 73 73 74 72 78 55 49 18 10 8 8 9 8 7 10 12 35 43 57 49 67 80 75 66 38 19 12 10 9 13 16 20 22 12 23 24 51 84 97
21 19 16 20 49 84 61 56 65 89 98 89 74 52 77 48 28 22 16 32 19 9 8 9 12 15 34 44 52 58 78 86 79 56 25 16 16 15 14 15 13 10 9 9 13 32 67 96 97
15 17 19 24 60 76 62 54 60 86 81 74 69 65 56 56 41 34 38 26 12 16 13 16 22 27 34 45 68 76 67 80 74 33 20 18 17 14 10 11 13 29 30 23 26 54 81 97 96
16 28 24 36 51 62 66 50 58 64 73 73 71 71 75 70 38 20 38 17 14 14 14 25 20 44 42 54 62 51 67 75 63 24 22 16 12 8 14 18 25 30 29 49 19 53 87 97 96
10 23 29 44 50 54 69 41 51 63 73 93 90 90 90 71 49 16 21 12 9 12 33 11 39 43 45 65 45 59 84 79 50 27 16 12 8 10 15 21 59 62 77 75 51 49 87 90 96
13 14 17 37 50 60 57 64 40 65 72 100 82 76 85 96 68 19 13 13 26 50 20 15 46 40 47 56 44 74 82 84 42 24 14 10 8 7 9 14 35 65 92 93 81 76 98 86 97
13 14 12 19 40 51 80 56 90 73 75 65 96 84 75 57 41 30 36 48 47 36 10 35 35 41 55 55 55 99 91 86 57 19 13 13 8 8 11 23 58 93 82 88 94 94 91 96 96
35 43 26 15 29 47 74 71 99 98 90 75 94 97 98 95 73 57 48 62 28 16 23 31 35 44 72 58 66 98 88 98 55 17 15 16 11 17 17 42 53 98 91 89 86 87 97 96 97
25 46 44 20 26 59 78 54 88 97 96 91 98 99 100 100 97 95 78 18 13 13 39 26 46 52 66 66 73 80 88 98 46 18 19 18 17 20 19 25 53 83 97 90 90 96 97 97 96
36 63 64 26 23 56 69 97 94 96 99 98 99 97 85 58 66 44 29 20 16 22 36 48 64 74 76 76 56 72 96 88 40 21 22 19 18 20 20 20 63 68 97 97 100 95 96 98 97
24 83 57 60 62 84 88 98 100 98 99 97 99 96 46 24 27 31 37 34 44 32 95 96 79 83 81 64 62 79 88 88 32 29 26 24 20 18 19 20 44 34 97 97 98 95 96 96 97
36 37 63 55 51 43 69 91 95 100 97 94 96 96 82 29 30 36 36 69 78 83 96 97 97 97 69 32 65 74 90 76 47 38 31 32 25 19 18 19 18 26 92 96 96 97 97 96 97
50 100 99 96 50 43 72 76 96 98 96 97 100 98 94 60 42 57 52 77 82 98 100 100 95 97 34 42 79 86 100 90 90 50 38 34 34 26 20 19 19 16 86 97 97 97 97 97 97

GFSSGP_500_rhum_090.txt.gz
RH
11 12 10 9 10 10 7 8 7 12 12 10 8 10 18 14 12 11 12 16 13 10 9 7 7 6 3 3 3 3 3 3 3 3 2 2 2 3 3 5 10 10 10 6 12 17 22 17 9
14 13 12 9 8 9 9 11 11 16 14 12 12 12 14 10 9 8 10 12 15 12 10 8 7 5 3 4 4 4 4 4 3 2 2 2 2 2 4 6 13 20 22 13 11 15 23 32 21
23 21 16 11 9 6 8 10 12 15 15 14 14 14 14 12 11 9 12 13 14 13 11 9 6 6 4 4 4 4 4 4 4 3 2 2 2 2 3 4 11 12 16 26 23 22 26 46 33
19 19 18 17 17 12 12 15 12 15 16 13 12 12 12 10 11 13 16 16 17 16 14 9 7 6 5 4 5 5 5 5 4 4 3 2 2 3 3 4 16 15 18 30 39 43 59 54 53
21 18 16 14 17 24 19 20 22 19 26 22 20 17 15 13 17 22 25 26 23 20 15 12 7 6 5 5 5 6 7 6 5 4 4 3 3 4 5 4 12 22 39 64 87 94 96 93 80
17 16 12 13 19 22 28 32 25 31 40 34 28 26 24 22 17 20 22 27 29 29 22 13 8 7 6 6 6 7 7 5 5 5 4 4 3 3 3 4 14 22 30 63 87 90 96 96 92
19 16 13 11 12 20 32 39 38 32 32 38 37 35 33 26 20 20 23 29 34 32 28 22 11 7 6 6 7 8 7 5 6 6 5 4 4 3 4 4 11 15 14 44 57 69 99 97 95
18 12 10 9 12 14 37 40 50 46 36 36 42 42 40 40 36 30 29 24 31 30 29 26 20 10 7 6 6 7 6 6 7 7 6 5 4 4 4 8 14 16 18 30 52 84 98 96 95
17 11 9 11 16 17 36 32 46 46 39 44 42 41 41 41 33 24 21 20 21 22 22 24 23 14 9 7 7 7 6 6 7 7 6 5 5 5 6 15 18 25 33 57 54 79 99 97 96
18 15 12 14 14 13 17 26 48 38 35 46 53 48 44 39 40 34 30 28 22 23 25 20 18 17 10 7 7 7 7 7 8 8 6 6 6 6 11 22 28 37 47 41 45 38 76 97 96
20 17 16 14 15 16 16 18 26 42 43 54 48 54 50 49 44 40 35 31 30 28 30 24 16 13 12 9 7 8 8 8 8 8 7 7 7 9 17 25 17 12 33 40 60 70 74 96 96
19 18 17 15 17 16 16 16 17 21 26 44 53 57 59 56 56 53 48 44 39 34 33 31 16 14 13 10 8 8 8 9 9 8 8 9 9 12 25 28 16 23 45 55 37 44 65 97 96
22 23 19 17 16 14 14 14 12 12 16 20 32 50 62 67 60 59 63 62 53 43 38 29 12 16 15 13 9 8 9 9 9 9 10 11 12 13 32 27 20 48 75 44 20 52 64 95 96
29 24 21 19 16 14 14 11 10 12 24 26 45 64 78 77 75 73 73 65 60 52 39 16 10 13 16 15 11 9 10 10 10 10 12 14 14 15 36 24 18 31 58 40 22 23 37 85 97
29 25 20 18 16 10 22 6 7 8 13 11 25 41 54 78 84 84 76 67 58 51 45 18 9 13 16 18 11 10 10 11 11 14 15 17 16 26 38 23 16 31 40 52 33 38 36 43 97
27 23 19 24 17 12 24 6 8 13 20 26 28 45 65 71 78 76 73 70 63 54 38 16 9 10 27 26 30 29 22 12 14 17 18 19 19 30 37 23 14 23 33 29 38 35 31 31 75
23 17 14 13 20 15 25 11 7 14 35 41 45 46 56 63 67 70 76 56 71 68 23 14 8 8 12 41 28 22 15 14 20 23 24 23 22 39 27 19 11 12 34 31 47 38 34 40 56
21 16 12 11 20 24 12 12 9 15 30 34 28 36 57 75 74 70 83 93 74 38 52 10 8 7 11 45 43 36 25 21 39 36 30 27 30 37 17 11 10 18 23 21 29 46 37 23 50
18 17 16 14 13 12 8 8 6 21 44 46 42 57 70 80 80 75 74 71 65 46 21 9 8 9 14 58 50 91 70 64 54 35 34 41 42 26 12 14 14 16 15 25 51 49 13 18 36
20 18 15 11 9 7 6 4 15 36 43 58 58 65 84 74 70 73 68 55 60 34 12 12 14 11 28 51 42 43 60 64 48 41 57 53 40 18 17 17 16 14 14 14 18 33 12 14 42
18 14 11 9 6 5 7 6 16 43 55 54 63 88 94 88 74 72 66 46 20 38 42 34 32 11 22 28 55 42 57 72 50 71 73 61 27 17 15 11 9 10 15 35 76 44 26 21 38
14 12 9 6 7 6 5 12 21 51 50 58 68 69 70 74 72 66 81 60 32 37 35 32 18 20 25 29 56 41 51 77 68 92 84 52 22 16 10 8 14 14 27 65 82 29 38 22 45
11 10 8 7 8 7 5 29 23 57 54 61 62 64 65 98 88 89 73 47 57 46 36 23 17 17 32 40 57 52 76 69 91 98 95 32 19 12 10 8 9 12 13 34 53 56 46 32 43
10 10 9 9 11 8 13 17 15 71 84 100 95 74 97 88 87 93 58 62 15 41 18 10 23 26 40 58 54 61 68 71 95 100 79 29 14 15 10 8 11 24 40 44 56 69 74 39 75
12 13 12 11 12 10 17 11 28 68 99 100 97 99 97 98 92 93 66 51 15 32 29 39 52 25 78 73 70 65 54 72 95 98 55 23 14 16 11 18 20 37 47 68 99 86 86 72 83
14 18 19 28 25 12 18 18 52 73 98 96 99 93 98 98 97 88 72 55 19 24 34 88 98 86 78 62 59 64 52 85 100 87 52 18 16 17 18 22 22 21 38 66 98 90 90 92 92
17 16 70 54 26 28 19 20 92 94 97 99 100 98 98 98 100 100 86 69 57 65 93 78 60 97 81 64 67 74 56 87 100 92 48 21 17 22 21 22 22 23 68 90 98 94 94 92 95
13 30 100 66 42 26 25 42 98 97 98 94 99 99 98 86 62 84 96 83 87 98 70 49 68 96 95 87 93 71 46 76 91 80 54 37 19 24 18 18 21 22 55 82 97 98 96 100 96
29 28 59 59 52 37 26 33 51 88 99 100 98 99 96 80 48 57 29 75 65 56 51 59 92 98 99 99 98 71 51 65 94 76 50 45 22 27 22 18 19 20 25 72 97 97 97 97 96
73 96 68 93 83 84 45 33 47 91 100 100 99 98 100 99 48 47 23 33 56 66 82 94 96 92 97 96 98 77 65 77 94 93 56 42 27 33 29 27 22 21 24 55 97 97 97 97 98

GFSSGP_500_rhum_093.txt.gz
RH
18 15 12 11 11 10 8 8 10 9 8 9 8 8 8 8 8 7 7 6 8 11 10 12 11 10 9 11 6 3 3 3 4 3 3 3 2 2 2 2 2 3 10 8 13 19 18 10 15
26 25 22 18 14 11 10 10 14 10 8 8 8 9 10 10 9 9 8 8 11 11 12 12 12 11 10 10 8 4 4 4 4 4 4 4 3 2 2 2 3 9 8 9 14 19 21 27 27
23 22 20 19 18 19 18 20 14 11 9 8 8 8 9 9 10 11 10 9 9 12 13 14 14 14 11 8 9 4 4 4 4 4 5 4 4 3 2 3 3 6 6 12 21 30 42 51 45
21 20 17 17 16 21 29 28 27 23 17 10 7 7 6 8 9 10 9 9 12 17 19 19 18 16 13 8 7 6 5 5 5 6 6 5 4 4 3 3 12 11 8 18 40 47 65 86 98
21 17 15 15 16 19 25 37 30 29 34 25 13 8 6 6 7 8 10 12 15 18 24 25 24 20 16 13 7 6 5 6 6 7 6 5 4 4 4 4 4 8 25 36 36 37 49 80 95
23 21 17 15 16 17 21 30 27 34 34 36 27 15 15 14 18 19 20 19 22 26 28 30 31 30 21 13 9 7 6 6 7 8 6 6 5 6 6 4 3 7 6 8 8 12 27 62 79
23 22 21 17 14 14 28 27 32 30 33 42 36 29 24 24 22 21 19 21 26 27 28 34 34 32 29 23 10 8 7 6 7 8 7 6 7 6 6 4 4 4 5 9 10 13 18 43 81
26 22 18 17 18 16 32 26 30 30 33 47 40 36 33 28 26 23 25 26 24 28 29 34 35 33 30 26 17 9 8 7 7 8 7 6 7 7 6 5 4 4 7 10 20 24 39 59 75
25 23 19 19 21 18 24 18 30 26 21 44 54 42 38 36 35 32 29 27 27 28 29 31 28 26 27 28 21 14 9 8 8 8 6 7 7 7 6 5 5 6 13 16 30 32 50 62 86
30 23 20 21 21 19 18 17 26 19 22 40 53 46 49 43 38 35 37 35 35 34 32 31 29 24 23 23 22 19 11 9 8 8 7 8 8 8 7 6 6 9 16 27 44 59 64 48 71
36 29 27 24 23 21 18 18 19 19 18 24 45 53 48 53 51 42 54 59 47 41 34 41 38 31 26 21 19 16 14 11 9 9 8 8 8 9 8 6 6 11 23 26 25 27 48 49 73
36 34 32 28 28 25 21 17 17 17 18 25 31 58 45 46 49 36 36 48 48 55 42 47 50 46 39 22 19 16 15 12 11 11 9 8 10 9 8 7 8 16 25 19 19 25 49 59 68
34 35 33 31 30 28 25 22 18 16 20 31 34 57 59 49 36 37 38 36 42 48 60 65 68 62 41 26 21 16 16 14 13 13 11 10 10 9 8 9 10 23 27 21 24 45 36 29 66
40 33 35 36 35 31 26 22 20 16 16 15 16 21 35 55 44 37 48 54 47 49 66 75 72 71 42 21 17 14 14 17 15 14 12 11 10 9 10 11 12 28 27 18 40 65 26 32 78
42 42 40 42 36 31 27 22 18 15 12 12 16 17 19 26 50 61 69 65 58 55 57 62 78 74 62 20 23 20 17 17 16 16 13 14 11 10 12 13 13 32 29 16 19 56 34 32 58
47 45 44 39 34 29 25 19 22 16 8 6 6 9 17 21 34 47 73 86 94 86 77 85 85 75 57 27 19 17 20 18 16 18 16 19 16 13 16 15 19 34 27 16 17 41 46 37 40
52 46 40 33 31 25 21 15 9 8 7 6 6 6 6 8 24 40 53 70 99 100 89 78 77 71 72 32 27 25 27 26 18 22 22 32 28 18 20 16 32 31 23 15 17 28 29 34 38
47 42 35 27 30 22 16 10 8 7 6 5 5 4 5 7 13 31 48 74 74 94 100 89 89 69 89 55 39 23 40 46 36 24 29 42 46 32 22 19 37 24 17 12 12 25 31 46 42
44 33 26 25 20 16 14 8 7 5 5 5 4 4 4 14 20 41 57 74 82 74 73 97 98 35 42 60 24 24 40 53 62 30 52 58 59 39 22 38 32 16 10 9 11 23 23 36 53
37 29 25 22 20 14 11 8 6 5 5 4 4 4 7 22 33 42 51 64 83 82 41 67 80 38 40 73 12 32 51 86 99 94 78 69 56 34 24 42 20 13 14 12 15 18 32 41 54
34 29 24 20 15 11 9 8 7 6 5 12 19 23 26 31 34 36 53 65 80 81 58 64 79 59 16 25 16 34 71 92 97 99 83 65 54 37 36 40 19 17 17 15 16 20 26 40 60
33 24 21 16 13 10 10 9 7 6 5 9 36 44 47 41 44 52 63 70 77 84 84 65 58 43 20 13 24 56 100 98 98 97 99 98 49 37 54 30 18 14 9 13 15 25 31 47 44
26 20 17 13 10 11 12 21 7 6 4 7 22 55 76 54 49 57 66 72 67 78 55 32 47 37 34 24 35 87 88 100 100 99 100 59 56 50 58 21 14 8 10 12 20 29 52 78 72
24 19 14 11 11 12 12 13 8 6 4 5 25 54 89 80 68 75 88 76 69 70 65 26 29 38 55 40 57 63 81 100 99 97 88 76 68 74 37 14 11 8 8 12 26 36 38 59 57
18 17 16 15 15 13 14 11 8 5 7 7 31 89 98 79 78 90 90 99 93 82 76 54 39 28 50 66 76 92 97 89 91 98 79 82 81 74 22 14 11 9 16 19 44 48 81 89 74
18 18 21 18 17 15 11 11 9 11 20 17 58 75 91 85 98 95 99 95 96 73 65 65 45 26 70 69 97 81 95 95 97 93 63 90 93 53 15 17 12 17 19 23 34 57 70 97 92
22 25 30 29 15 14 16 16 13 20 26 51 97 96 79 93 87 89 100 98 88 65 52 62 61 41 77 61 72 98 99 89 92 56 90 96 89 41 16 18 14 20 23 26 30 74 87 97 95
17 16 18 22 20 23 20 19 14 22 36 79 87 80 95 100 96 85 89 97 97 80 34 41 86 94 92 90 95 98 100 93 82 53 76 97 82 36 18 20 17 22 21 25 34 59 98 97 90
16 14 15 15 42 36 32 14 31 38 37 85 96 98 99 100 97 69 96 98 96 98 70 85 85 96 94 99 94 97 96 94 80 65 80 89 75 36 19 20 22 19 20 22 41 67 99 98 99
6 5 6 17 99 73 28 21 34 55 47 90 92 97 98 100 98 78 61 62 91 98 98 92 95 94 96 96 98 98 96 95 90 66 85 94 48 36 24 21 28 24 20 21 29 83 97 97 94

GFSSGP_500_rhum_096.txt.gz
RH
23 23 22 21 17 14 12 13 14 10 7 8 7 6 5 7 7 8 9 8 7 6 8 9 8 8 9 10 10 9 8 6 3 3 4 4 4 4 4 3 2 2 2 9 6 9 15 27 32
20 21 22 23 20 20 21 23 22 14 9 9 9 7 6 7 8 8 8 8 7 7 7 8 9 11 12 14 13 9 8 5 3 4 4 4 4 4 4 4 3 2 4 8 7 9 24 37 45
21 21 19 17 18 20 25 28 23 18 11 8 10 10 8 8 7 7 8 8 7 8 8 9 12 15 17 16 16 14 8 6 5 4 4 4 5 5 5 4 4 6 4 12 8 19 34 44 59
25 23 20 19 18 19 26 26 27 28 21 14 8 10 9 10 8 8 7 7 7 8 9 11 16 20 21 21 20 17 13 7 8 5 4 5 6 6 5 4 5 7 5 4 16 33 36 33 33
23 21 18 19 20 22 27 25 21 21 26 26 17 14 15 15 13 14 15 14 14 14 14 16 21 27 29 29 30 26 17 10 8 6 5 5 6 7 6 6 8 6 9 7 5 7 10 7 13
24 22 18 18 22 23 25 25 21 22 22 26 19 19 21 18 18 23 25 25 24 24 24 26 28 30 32 33 34 33 27 13 8 7 6 6 6 7 6 7 11 7 7 5 4 3 4 13 16
27 26 22 20 22 25 30 26 24 17 17 25 20 17 21 25 27 30 33 36 33 32 32 33 33 33 35 39 38 35 31 23 10 8 7 7 7 7 7 7 9 8 7 6 4 3 6 21 45
31 27 22 28 26 25 30 26 21 18 14 17 16 14 22 24 28 32 33 34 36 35 32 32 35 34 38 40 38 37 33 26 15 9 8 8 8 8 7 7 8 7 7 7 4 5 21 30 29
35 31 32 33 30 26 26 23 23 21 19 18 20 16 17 23 25 32 35 36 36 37 35 34 36 37 39 40 36 34 30 31 21 13 10 8 8 8 7 7 8 8 8 7 5 11 33 50 47
45 38 40 39 35 32 29 27 27 24 21 20 23 25 21 20 29 32 35 44 45 43 44 42 42 43 44 43 37 30 28 27 25 20 14 11 9 8 8 8 8 9 9 8 9 8 44 40 49
48 44 46 40 40 39 36 32 30 27 25 22 22 30 24 23 25 28 32 40 50 56 62 68 69 72 59 46 50 44 35 27 22 19 19 14 10 9 8 8 8 9 9 8 5 12 24 17 24
49 48 45 43 40 36 37 36 36 32 29 26 22 24 33 27 26 29 38 49 58 56 56 51 49 56 59 64 57 61 46 38 23 21 18 15 13 10 8 8 10 9 9 8 6 13 19 15 18
46 42 39 36 36 41 36 32 31 32 31 27 24 23 23 32 27 28 30 36 49 40 59 44 42 38 41 48 66 82 55 34 31 22 21 17 16 11 9 10 10 9 10 8 6 20 20 17 24
49 45 43 41 43 40 38 35 33 35 34 30 26 23 20 18 26 32 32 29 33 28 32 34 27 41 50 50 66 82 71 38 30 24 19 21 18 13 10 10 10 10 10 9 10 24 17 34 47
54 49 45 45 51 44 38 31 37 37 33 28 24 20 20 23 26 30 37 26 23 22 22 27 47 58 62 70 73 93 80 46 31 23 20 22 20 15 12 10 10 11 11 10 12 28 16 35 57
51 46 46 55 51 43 38 35 37 37 32 28 26 22 19 15 15 19 27 29 43 26 29 32 37 53 67 65 81 92 92 76 60 50 34 23 22 20 15 11 12 12 14 11 19 30 17 15 53
48 51 51 49 49 47 41 35 36 35 27 23 19 10 7 6 6 5 5 5 13 29 54 64 63 43 67 87 89 85 96 93 63 69 47 27 24 21 20 16 17 17 21 11 22 27 18 16 39
53 34 28 44 54 48 42 38 31 25 18 12 9 7 6 5 5 5 5 4 4 13 46 73 100 75 70 80 89 94 99 96 82 81 72 28 25 29 41 37 26 32 18 15 24 23 18 12 27
41 50 59 59 51 46 40 35 23 16 11 9 7 6 6 5 5 4 4 4 9 19 46 66 73 79 80 85 86 86 98 97 81 66 70 31 32 58 52 60 43 32 17 22 30 19 12 10 20
47 56 61 51 44 43 32 27 19 12 9 8 7 6 6 5 4 3 4 8 14 38 46 67 68 72 74 75 100 97 98 89 87 74 61 76 58 65 76 64 46 26 20 31 20 11 9 9 23
68 65 53 47 39 33 28 24 14 9 9 8 7 7 6 4 3 3 10 26 34 44 58 57 66 68 78 71 63 86 61 70 74 71 74 99 93 91 87 72 40 24 25 33 16 16 16 17 17
75 56 48 41 37 30 22 23 13 10 11 10 8 7 5 4 3 6 22 36 41 43 46 57 65 82 82 76 58 85 54 73 63 60 81 98 98 100 78 58 37 27 39 24 17 17 22 30 29
70 52 48 39 29 24 18 13 16 12 11 9 6 5 4 3 4 22 45 56 48 48 58 69 83 94 76 42 84 92 49 59 34 91 78 95 99 79 91 57 30 40 36 17 13 10 23 31 42
77 63 40 34 24 22 15 15 21 14 11 9 7 5 5 5 22 52 70 68 52 56 73 74 85 98 94 84 88 81 39 25 46 74 84 98 85 88 82 46 35 47 22 13 9 11 30 33 45
66 55 36 46 61 40 22 18 16 14 12 10 6 6 6 12 48 70 86 78 84 83 78 75 78 71 48 84 76 65 46 47 84 95 98 96 96 90 60 42 42 37 15 11 8 10 19 34 43
69 89 86 48 30 27 19 19 17 17 15 11 8 7 11 43 58 70 69 92 91 92 79 73 79 65 37 60 57 80 60 58 97 96 97 92 100 93 45 31 61 22 15 11 18 20 22 34 46
94 64 43 34 29 30 26 20 18 16 15 11 10 12 74 62 88 68 71 79 96 98 96 90 78 69 64 70 62 65 66 69 89 83 98 99 98 69 38 48 57 17 16 18 23 22 23 26 57
69 65 56 33 25 20 21 19 15 12 10 12 18 18 85 81 92 91 99 81 97 96 99 94 82 78 84 88 90 74 76 90 69 95 96 95 91 51 41 70 36 18 22 20 21 20 21 26 54
45 39 33 25 19 16 18 17 16 14 10 15 25 25 80 96 100 82 100 100 98 93 96 69 73 86 99 85 98 88 77 78 82 98 94 96 71 45 57 68 27 21 21 19 17 18 20 41 56
60 28 24 21 20 16 22 16 14 13 13 8 30 43 95 99 100 100 98 98 95 98 96 91 92 98 96 90 88 88 62 82 96 98 97 94 60 67 79 68 34 23 24 19 19 21 24 33 97

GFSSGP_500_rhum_099.txt.gz
RH
19 20 20 22 20 18 19 19 16 13 10 8 7 8 9 7 5 6 5 6 6 6 6 7 7 7 8 7 9 9 10 10 10 7 4 3 4 4 4 5 6 5 4 3 4 10 8 17 28
20 18 18 18 19 19 27 27 23 18 11 9 8 9 11 12 9 6 6 6 6 7 7 8 8 8 9 11 10 11 12 13 12 9 5 3 4 4 5 6 6 5 4 8 7 5 9 26 32
20 19 18 20 21 22 22 26 25 23 20 16 12 10 10 10 12 11 9 7 8 7 7 7 8 9 11 15 16 17 17 16 15 10 7 4 4 4 5 6 6 5 8 6 6 5 8 24 31
22 21 19 19 22 22 26 25 19 18 18 18 20 18 16 11 12 12 12 12 10 11 11 10 11 11 13 17 22 23 24 22 20 16 9 7 4 4 5 6 6 6 7 9 10 14 5 4 4
25 23 20 21 22 26 27 24 24 23 22 20 18 22 24 20 20 17 15 16 20 19 17 16 17 17 19 22 24 27 30 29 27 21 12 8 6 5 5 6 9 12 12 19 14 8 5 3 3
27 25 22 22 27 28 30 29 27 26 22 19 14 17 21 18 21 25 26 24 27 30 32 27 25 26 27 28 30 31 33 34 33 29 25 10 7 6 5 6 8 16 14 13 11 8 7 3 4
30 28 25 27 31 32 33 30 27 26 23 20 16 12 12 14 20 24 28 32 35 36 36 37 37 35 34 34 33 34 33 37 37 33 29 23 8 8 6 6 8 14 14 15 11 9 11 5 10
35 30 26 29 35 38 35 30 27 25 24 22 19 16 17 16 16 22 27 33 39 41 42 41 41 40 40 38 35 35 38 38 36 35 32 28 15 8 7 7 7 8 14 16 20 10 14 19 12
38 31 28 35 41 44 42 38 35 31 25 24 23 21 20 20 19 19 26 36 38 41 44 44 44 41 41 41 40 41 42 39 36 30 28 28 23 13 9 8 7 8 11 12 18 20 15 18 22
44 38 40 41 44 43 46 45 43 39 37 33 29 25 23 22 20 21 24 31 39 45 48 50 52 51 47 47 57 64 55 48 42 35 29 26 25 22 15 11 8 7 8 8 17 20 11 30 28
46 42 48 45 52 50 48 47 44 41 38 40 36 32 28 25 21 18 23 28 30 36 44 55 67 57 58 65 64 66 54 58 57 47 31 26 21 20 20 15 10 8 8 12 14 14 16 24 35
51 55 56 53 52 49 47 42 42 34 35 37 33 32 30 27 24 22 20 23 27 27 37 43 52 59 61 56 61 56 51 57 67 55 44 32 24 19 17 16 12 9 8 9 12 10 16 27 28
65 62 61 58 53 50 46 44 39 41 46 40 38 37 35 31 27 24 22 21 28 34 43 54 56 64 61 73 59 54 62 61 63 63 60 41 30 22 18 16 14 10 9 10 10 11 28 13 12
72 66 62 58 58 53 48 44 41 46 48 46 43 40 37 33 30 26 23 21 18 23 34 44 48 63 76 97 62 63 68 69 61 67 68 66 35 28 19 17 16 11 10 10 10 15 20 16 15
74 66 65 64 62 51 47 42 43 42 46 44 41 38 35 32 29 26 25 23 22 21 31 41 40 44 44 49 41 54 61 66 73 76 75 66 56 29 24 22 18 13 10 11 11 12 14 19 15
78 65 59 60 58 50 40 34 39 46 44 42 40 37 33 31 29 26 21 20 20 16 13 10 13 21 24 18 30 49 74 61 72 82 86 88 73 51 24 26 21 16 11 13 12 15 18 9 17
83 72 62 56 53 45 37 33 40 47 44 41 38 34 30 27 28 26 20 12 9 9 8 6 5 5 4 11 33 36 68 74 84 80 89 87 94 68 44 30 23 17 13 15 17 22 17 10 22
90 66 52 44 47 46 34 30 37 49 46 40 34 31 26 21 14 10 7 6 5 5 4 4 4 4 6 12 14 38 47 73 96 79 96 95 96 77 59 32 25 19 14 23 27 28 15 12 22
74 71 57 46 56 35 36 28 45 48 42 33 26 22 18 12 8 7 6 6 5 5 4 3 4 5 7 14 40 77 50 97 85 80 100 94 92 82 79 40 26 24 16 33 34 30 16 13 23
76 57 51 48 49 35 38 40 48 44 35 26 20 16 12 9 8 7 7 6 4 3 3 3 7 8 14 25 51 64 79 100 93 100 99 98 87 82 91 35 37 38 27 43 32 22 15 19 24
72 63 70 61 57 54 44 48 49 37 27 22 17 12 9 9 8 6 5 4 4 3 2 3 16 25 31 27 42 57 67 75 94 94 89 94 91 84 97 48 80 79 57 45 28 20 17 26 16
84 79 77 68 62 63 53 45 46 33 22 16 12 11 11 10 7 6 6 4 3 2 4 14 24 33 31 44 50 48 68 80 74 74 90 99 100 100 97 88 98 92 74 51 29 18 26 24 13
86 84 75 73 72 67 60 53 46 29 16 13 13 13 11 10 8 8 6 4 2 4 21 41 41 40 37 42 50 70 85 78 72 70 87 74 100 100 97 90 98 99 91 38 23 26 30 16 12
99 96 87 79 70 68 61 52 48 29 16 15 16 15 12 11 10 7 3 4 23 72 57 56 55 45 45 52 73 97 100 97 90 90 65 67 96 76 83 90 97 96 59 32 33 38 20 13 11
98 77 75 86 89 70 51 43 36 28 27 24 17 15 14 12 7 5 4 50 61 70 80 80 67 55 68 75 96 100 100 100 85 84 76 86 52 61 96 98 97 83 49 32 46 23 14 9 10
100 98 91 69 54 48 49 50 49 43 30 20 18 17 13 8 5 5 38 51 60 71 90 99 95 76 80 85 100 100 100 100 90 56 70 49 35 79 99 92 79 80 45 51 34 15 12 9 12
95 85 71 63 62 72 67 60 45 34 28 21 19 16 10 6 5 20 79 70 69 81 91 100 100 84 83 90 96 81 99 98 86 61 44 65 62 96 99 90 84 86 42 60 23 15 15 20 19
100 98 93 92 85 67 55 50 44 34 26 24 20 13 8 6 7 38 87 84 78 99 98 100 100 96 81 94 97 100 94 95 95 77 66 68 100 99 99 98 86 45 43 57 18 16 22 22 20
100 99 92 83 78 79 72 52 41 32 26 25 19 16 11 10 11 33 93 94 84 98 98 99 99 100 97 91 91 98 93 100 85 70 53 91 97 97 95 94 71 34 66 44 18 19 18 21 20
99 96 90 75 80 76 48 38 34 28 26 19 14 9 8 13 15 69 90 100 93 98 99 100 100 98 100 100 97 95 92 99 86 75 83 93 96 96 98 75 62 58 76 37 20 19 18 19 19

GFSSGP_500_rhum_102.txt.gz
RH
20 18 17 21 20 19 19 20 20 16 11 10 10 10 8 9 10 8 5 4 4 5 5 5 6 6 6 6 7 7 6 7 6 9 11 10 7 4 4 4 5 7 6 5 6 8 6 7 10
22 21 20 19 20 18 22 29 27 19 16 13 11 12 11 8 7 10 10 8 6 6 5 5 5 6 7 7 8 9 8 9 9 10 13 13 10 4 4 4 5 7 7 5 7 6 10 10 8
25 24 22 20 21 24 24 26 26 22 20 20 18 16 16 14 12 10 10 11 10 9 8 8 8 8 8 9 9 12 12 13 14 16 18 16 13 9 4 4 5 6 7 7 7 9 12 10 5
30 28 25 22 23 24 24 21 19 18 17 17 18 18 17 19 20 21 17 13 12 12 12 13 12 12 12 12 14 16 17 18 19 21 22 22 18 13 8 4 5 6 8 10 11 19 26 7 6
34 32 28 24 25 26 25 22 23 23 22 22 22 19 16 14 16 22 28 26 22 20 18 16 16 19 17 17 18 21 22 24 24 25 25 26 26 19 10 6 5 8 8 15 17 15 13 8 8
39 36 32 27 28 29 30 27 25 25 23 22 21 20 18 14 12 14 21 27 29 31 31 30 29 29 29 28 27 28 29 30 30 29 28 28 27 26 23 9 7 10 13 22 20 15 17 16 13
42 40 37 32 32 32 37 35 31 28 26 24 22 23 21 18 15 15 16 22 26 29 36 39 40 39 37 38 35 35 35 35 35 34 34 32 28 29 26 20 8 11 12 12 15 19 29 36 13
39 40 40 38 36 33 35 38 32 30 29 28 26 24 23 22 20 19 19 20 22 26 32 37 40 41 42 42 41 40 38 38 38 38 38 35 32 30 29 27 14 8 7 9 19 18 21 29 21
36 35 39 47 41 41 35 37 36 38 39 37 35 31 25 24 22 21 20 19 21 23 30 35 41 44 43 44 44 44 42 42 42 47 45 37 30 26 27 27 23 14 8 7 16 16 16 21 35
44 41 45 47 50 46 43 44 45 43 45 44 43 38 33 28 28 25 23 22 20 21 25 31 38 44 45 46 49 49 49 52 65 61 51 48 33 26 24 24 25 24 16 9 7 9 12 19 51
54 51 53 50 52 49 49 50 51 49 47 48 43 39 34 31 31 30 27 25 22 20 21 27 36 39 43 47 49 53 49 56 62 64 53 54 46 33 26 23 22 21 19 16 8 8 14 11 28
59 65 66 61 59 57 58 55 54 49 48 46 42 40 37 33 31 31 31 28 25 23 25 30 33 42 47 47 49 53 53 55 49 54 55 59 60 45 35 29 23 22 19 16 12 8 14 13 24
66 74 73 73 67 68 63 61 57 53 53 47 45 43 42 39 37 35 35 32 29 26 25 28 29 34 40 41 48 52 59 64 68 42 50 56 62 63 52 38 29 24 22 17 13 9 10 13 19
71 78 79 78 76 74 68 61 56 61 57 51 46 44 45 45 42 39 36 35 32 29 28 29 37 51 49 51 54 59 59 69 91 61 44 38 50 62 64 59 42 29 26 21 15 10 10 13 22
72 74 76 82 85 72 66 54 58 59 54 48 44 44 42 40 39 37 36 34 32 30 29 28 31 40 45 61 60 57 65 62 61 56 40 30 34 54 61 62 56 41 30 27 19 12 11 11 14
60 65 74 82 86 75 65 58 50 52 53 51 47 45 43 40 36 35 34 32 30 29 27 26 27 32 32 37 43 42 52 56 52 54 51 33 30 43 52 62 68 61 39 29 23 15 12 11 15
25 68 72 73 79 82 68 57 50 52 47 45 44 43 40 40 36 37 34 31 28 28 27 25 22 20 17 16 19 20 22 30 30 33 41 44 52 45 56 66 68 78 57 38 26 18 13 14 20
60 72 85 68 60 72 66 58 48 45 41 44 43 41 44 43 40 38 32 28 25 23 18 10 7 7 6 6 5 4 5 6 17 29 41 52 99 68 84 75 73 79 71 52 29 19 14 19 26
96 79 80 72 78 72 70 59 47 52 41 38 31 35 38 39 36 31 24 18 13 9 7 6 6 6 5 5 4 4 4 6 27 37 60 60 80 79 100 85 78 84 75 60 30 21 20 28 28
98 88 80 87 100 82 73 58 49 49 45 42 42 42 40 38 32 24 16 12 9 8 7 7 6 4 4 3 3 3 2 4 8 56 74 81 99 97 94 88 87 88 88 63 37 24 30 34 26
98 96 99 100 94 88 64 57 50 55 56 53 50 47 44 36 27 20 13 10 10 9 8 8 8 6 4 2 2 2 4 8 6 14 65 75 88 98 94 95 97 96 97 66 58 35 43 36 24
93 99 100 95 96 91 69 74 54 58 58 52 47 44 38 30 19 14 12 11 10 8 8 13 5 3 2 2 4 12 22 20 17 31 67 79 83 90 93 95 93 86 94 66 80 38 49 36 29
100 99 98 96 94 99 85 76 71 58 55 49 43 39 31 20 17 16 16 12 11 10 8 3 3 3 5 14 40 38 33 32 41 50 69 80 79 100 89 84 100 98 89 60 100 40 48 44 34
100 100 95 100 100 89 77 74 86 56 51 44 35 26 21 16 14 15 16 13 12 8 4 3 7 22 52 61 52 48 44 41 52 60 81 83 81 98 96 80 81 80 91 94 95 83 70 52 31
98 97 100 100 97 88 92 68 81 57 56 49 38 24 17 18 20 18 15 14 10 6 4 21 43 56 71 61 55 54 46 50 63 91 92 93 85 99 92 85 83 78 91 97 93 98 94 36 34
99 97 100 100 100 100 75 78 78 66 56 37 30 30 28 22 18 18 17 12 7 6 11 50 63 73 76 82 63 63 62 73 94 100 98 99 97 96 88 73 74 91 96 96 98 93 48 38 32
100 97 100 99 94 95 100 70 63 60 50 49 48 38 26 22 20 20 14 9 7 4 34 53 78 79 85 86 72 73 81 100 100 100 100 88 99 89 78 69 86 98 85 96 98 71 52 34 17
100 100 100 100 100 100 100 100 100 57 63 56 39 32 26 22 22 17 11 8 6 5 53 55 94 89 90 94 93 98 100 99 92 93 94 94 92 74 79 48 55 97 84 92 98 87 57 24 18
100 100 100 100 100 100 100 100 99 70 61 54 42 35 29 25 20 14 10 7 4 19 61 76 97 78 88 99 97 100 94 92 95 90 98 98 80 66 73 51 86 95 92 97 98 88 52 22 20
100 92 95 100 100 99 97 95 84 79 75 49 36 32 29 25 17 10 7 5 5 27 74 87 99 95 80 95 99 98 100 94 100 100 98 98 97 97 97 85 91 95 98 94 44 74 41 22 23

GFSSGP_500_rhum_105.txt.gz
RH
19 21 21 20 20 19 17 34 20 17 14 11 11 12 12 10 10 14 6 7 5 5 5 5 6 6 5 5 5 6 6 6 6 6 7 8 10 12 10 4 4 5 6 7 6 6 7 9 11
21 22 24 23 22 20 36 50 23 21 12 16 15 14 13 12 10 9 8 10 9 8 6 6 6 6 6 6 7 7 8 8 8 8 7 7 10 14 14 8 4 4 5 7 8 7 8 11 12
32 28 27 26 25 21 48 42 24 15 17 17 19 18 15 15 15 12 11 10 9 10 10 9 9 9 9 8 8 9 10 11 9 9 10 12 17 17 16 14 10 6 6 6 10 9 11 20 17
37 35 32 31 29 25 27 32 22 18 16 17 17 16 16 15 16 18 22 20 17 14 11 11 11 11 11 11 10 10 10 12 15 14 15 19 23 22 20 18 15 9 5 7 11 15 20 17 13
32 36 36 33 33 28 29 25 19 22 19 18 18 20 18 16 15 14 16 18 22 24 22 20 16 16 15 14 15 17 17 17 19 21 23 24 25 26 25 23 20 13 19 15 15 17 17 16 16
30 33 35 39 37 34 32 26 24 23 24 22 19 20 21 21 18 17 15 14 16 18 24 28 28 27 26 26 26 27 28 26 27 28 28 27 27 26 27 26 26 22 14 17 20 18 24 20 22
30 30 31 38 40 38 35 27 30 29 26 26 21 22 26 22 20 22 19 17 17 16 16 19 24 26 29 32 33 35 35 36 34 32 32 31 28 27 26 29 30 28 20 19 20 14 12 17 18
37 35 32 32 39 43 43 31 33 33 30 25 27 28 28 27 24 24 22 19 18 18 17 18 22 28 31 33 36 38 38 38 35 35 36 37 35 30 27 26 27 28 30 27 11 11 16 21 24
45 40 38 38 40 41 43 39 37 34 32 30 32 36 37 36 34 28 23 21 19 19 18 20 20 23 29 34 37 38 38 38 38 38 44 42 42 37 32 25 23 24 28 33 32 29 12 11 13
50 48 48 51 46 47 47 45 44 38 33 37 38 38 39 37 39 35 31 26 25 22 20 23 21 24 27 32 33 38 41 43 44 46 48 51 52 42 37 29 26 22 24 25 26 27 31 14 16
48 46 58 57 55 54 55 51 51 48 47 44 46 43 44 44 44 42 40 36 33 29 26 25 23 21 24 29 34 41 42 43 47 51 53 64 63 52 40 39 28 26 24 23 21 22 18 15 9
23 45 56 61 60 60 62 61 58 55 50 57 51 50 48 45 42 40 38 36 33 33 32 29 26 24 26 26 33 42 44 48 50 56 54 54 57 59 57 55 47 33 28 27 25 21 18 21 17
8 15 36 55 60 60 66 69 72 64 63 63 59 56 54 50 44 41 39 40 38 34 33 32 30 27 29 31 36 42 51 56 60 55 55 54 56 58 55 50 44 42 36 35 30 27 23 21 22
4 4 9 24 41 56 66 66 71 72 75 70 68 63 60 56 51 47 45 41 41 39 37 36 33 30 29 35 41 43 48 49 55 57 63 57 52 64 38 43 48 46 50 49 46 35 36 21 24
4 3 3 6 20 45 65 54 59 77 75 75 71 69 62 56 50 47 40 42 38 39 36 37 36 34 33 33 39 43 55 62 55 57 56 66 78 74 54 35 32 38 39 49 56 50 33 36 29
4 4 3 13 15 29 68 42 68 69 70 72 67 64 58 55 46 43 41 40 39 36 35 35 33 33 31 30 40 50 58 58 62 58 50 56 52 54 52 33 36 35 30 39 52 50 50 37 30
6 4 7 8 39 24 20 48 71 63 56 75 71 67 60 50 43 32 33 34 36 35 35 33 32 30 30 29 29 33 37 39 45 42 35 34 42 37 39 36 40 40 50 33 44 54 60 53 38
18 70 56 20 100 38 30 22 71 60 56 73 78 64 56 46 36 22 25 30 37 38 36 33 30 27 26 26 18 13 12 11 12 12 10 12 32 26 26 55 67 51 82 35 40 43 53 57 54
74 96 97 91 100 93 45 26 63 72 66 79 69 61 53 44 34 27 27 32 35 34 32 26 18 16 13 8 7 6 6 5 5 5 4 5 11 18 16 59 80 92 91 70 51 41 42 53 61
96 82 85 100 98 94 86 67 84 90 85 85 74 61 52 46 38 33 32 36 36 33 28 20 13 10 9 8 7 7 6 5 4 4 4 3 4 7 60 79 100 100 93 74 65 58 72 69 64
90 100 62 81 100 95 84 79 92 98 99 91 74 61 51 47 43 42 41 42 38 32 24 19 12 10 10 10 10 12 15 12 7 4 4 3 7 17 94 85 99 100 94 74 70 69 71 87 68
99 100 99 100 100 93 100 89 99 99 85 85 71 62 51 51 51 49 46 40 33 26 21 18 16 15 17 19 16 7 4 4 4 3 2 3 7 37 21 37 100 92 99 84 90 86 87 89 76
93 100 100 97 100 100 100 97 100 99 79 84 83 71 55 51 48 44 37 31 24 17 14 16 16 16 21 13 5 4 4 4 7 10 16 17 27 19 26 64 97 100 89 100 89 89 95 97 78
100 98 100 98 100 99 92 100 100 100 97 97 87 74 69 51 46 37 33 28 22 19 20 20 24 18 10 4 3 4 14 43 57 58 53 33 31 27 38 69 83 99 100 94 99 95 92 92 79
100 99 100 100 94 96 100 100 95 98 100 100 87 72 49 42 33 26 26 27 23 20 21 26 18 10 4 3 6 25 48 65 60 57 51 53 60 41 58 86 74 100 98 96 98 84 97 97 76
100 98 100 100 99 100 100 93 100 93 77 80 85 66 49 39 27 24 26 25 21 25 22 18 10 3 2 6 30 53 68 71 59 52 48 53 72 62 99 100 92 96 92 96 95 88 93 82 82
100 78 100 100 100 99 94 96 94 99 100 100 99 79 52 35 32 32 31 32 32 22 20 12 5 2 3 27 61 65 74 70 55 44 43 58 71 82 100 99 85 81 79 70 71 72 93 87 78
100 100 100 100 100 100 100 100 97 98 100 100 79 71 63 61 52 39 34 29 23 23 14 7 4 3 21 67 74 69 81 80 61 72 55 63 86 82 97 100 87 78 91 96 88 92 96 100 95
99 100 96 100 98 96 100 100 98 100 100 100 100 95 78 68 57 35 28 25 24 18 10 6 3 4 40 66 71 74 79 94 97 98 97 86 97 94 100 96 98 85 79 75 98 100 96 100 98
100 89 95 100 100 100 100 100 100 100 100 100 96 83 72 61 49 38 30 26 22 13 9 5 4 3 60 62 69 76 83 92 95 86 97 90 90 100 100 80 76 74 73 76 98 98 96 97 80

GFSSGP_500_rhum_108.txt.gz
RH
16 19 19 20 18 17 15 18 48 48 37 16 13 11 11 12 14 13 8 11 10 7 7 6 6 6 6 6 5 4 4 5 5 5 6 6 6 7 8 11 12 7 4 4 6 8 8 8 8
26 22 23 20 20 20 21 56 52 50 21 10 19 17 15 14 12 10 9 10 8 7 9 8 6 6 6 7 6 6 5 5 5 5 5 6 6 8 12 14 15 12 7 4 5 7 9 8 12
33 35 32 28 25 24 23 61 56 53 31 30 24 20 20 19 15 16 13 12 11 9 8 9 10 9 8 8 8 8 8 7 7 6 6 6 8 11 14 18 20 17 13 7 7 6 11 12 16
29 32 35 34 33 29 24 58 69 36 32 33 25 22 21 20 17 16 17 20 20 19 17 14 10 11 11 10 10 10 9 9 10 8 8 10 12 14 18 18 20 20 18 13 8 7 9 18 16
34 30 29 29 35 35 30 30 62 20 28 24 22 23 20 16 18 17 18 18 17 16 16 20 21 19 14 11 11 12 12 12 12 13 17 18 19 19 21 20 20 21 21 23 18 22 19 20 17
38 36 32 29 30 38 37 75 44 24 24 29 24 20 22 22 17 17 25 23 21 17 13 14 16 22 25 25 23 22 21 22 22 24 24 26 26 23 21 20 21 21 22 25 27 22 21 21 19
42 40 36 33 32 32 39 51 38 26 26 30 24 22 22 29 20 18 22 28 23 22 17 15 15 16 17 21 25 27 28 28 26 28 29 29 29 27 23 22 21 22 25 24 25 25 22 24 11
46 41 40 41 38 36 40 45 42 32 28 31 26 27 32 29 23 25 26 25 24 24 22 18 18 17 17 17 19 21 23 26 28 28 28 31 30 30 27 25 22 22 23 24 24 29 28 24 19
49 43 43 49 48 46 43 42 35 38 36 33 31 29 30 29 28 31 34 34 33 27 22 22 20 25 24 23 20 20 21 25 26 27 31 34 34 33 34 34 30 26 23 24 23 25 29 31 32
14 19 30 56 56 53 48 47 43 39 41 37 37 37 31 30 34 35 36 39 39 36 31 26 24 24 28 32 26 20 24 28 29 30 32 37 38 38 36 40 39 27 26 25 24 24 23 25 28
8 8 11 19 40 53 52 59 59 50 42 44 44 41 39 34 32 39 44 48 47 43 38 39 34 29 28 32 32 28 25 29 33 34 34 38 46 43 46 59 57 39 32 25 24 26 24 23 21
4 4 4 4 8 19 21 45 58 63 57 53 53 48 42 44 46 47 50 49 46 42 39 34 34 35 34 31 29 28 27 31 36 39 39 40 43 48 52 56 60 54 47 36 29 26 27 27 25
4 4 4 4 4 4 4 6 25 49 66 67 65 57 56 55 55 54 53 52 47 42 39 37 36 56 41 36 55 54 52 55 52 51 51 52 50 47 43 52 55 59 52 46 39 39 32 31 28
6 5 5 4 4 4 4 3 6 21 53 64 67 70 65 62 66 59 54 56 52 49 48 42 41 38 37 37 40 50 56 66 75 72 49 54 51 55 50 38 50 52 49 46 43 46 41 43 37
7 6 6 6 6 5 13 4 4 18 33 40 52 64 74 67 64 65 62 57 56 51 46 39 47 40 42 40 40 44 53 41 69 75 37 50 46 47 55 42 39 64 55 42 39 37 34 40 45
6 5 4 5 8 8 32 5 22 24 29 35 46 73 77 75 67 57 54 56 54 45 38 38 40 42 38 37 37 37 39 36 35 46 45 46 66 47 46 45 42 74 66 47 48 37 19 18 24
5 5 4 4 4 7 57 12 15 32 51 28 24 68 82 82 77 56 48 57 52 45 36 34 34 34 36 33 33 33 32 31 31 34 46 43 52 65 45 37 27 42 51 37 37 45 21 15 14
4 4 3 3 4 19 29 95 34 44 64 28 30 72 86 82 77 50 51 54 53 38 28 28 32 35 36 36 34 32 30 29 28 26 26 23 31 47 38 20 10 20 34 20 18 56 38 18 18
4 4 3 3 3 54 91 89 73 87 78 69 33 68 98 100 75 46 38 51 47 35 31 31 32 36 35 33 31 28 25 23 20 14 9 7 7 6 22 30 23 5 8 75 35 46 41 28 35
8 5 4 7 6 47 100 89 80 98 87 92 81 100 100 98 75 50 47 54 43 36 33 33 33 35 34 31 26 21 15 10 9 8 7 6 6 22 48 34 30 29 21 45 55 49 60 43 59
11 12 10 13 50 42 60 89 96 77 86 99 100 100 99 87 76 70 65 58 44 38 34 34 38 37 34 30 25 21 16 12 11 8 8 9 11 10 11 8 10 32 64 98 84 100 81 54 47
26 29 25 19 97 90 100 91 89 84 87 99 99 100 98 78 74 85 73 58 48 42 37 40 42 36 28 26 24 19 19 18 20 21 13 8 5 6 5 4 4 6 29 63 73 97 98 68 50
35 32 29 30 37 73 77 100 36 97 99 96 100 92 100 88 73 87 80 59 52 46 42 43 42 37 29 23 22 27 27 24 12 7 4 3 3 6 4 11 3 6 26 32 48 87 93 65 60
32 43 87 100 100 86 64 100 71 99 98 98 100 94 92 85 94 84 81 63 51 47 43 43 39 31 25 25 26 28 23 10 4 3 3 4 10 9 45 81 14 7 11 16 49 69 92 70 44
51 74 98 100 100 75 100 100 88 100 98 100 94 91 85 98 99 97 71 88 86 60 45 40 32 25 29 28 29 20 5 5 6 4 10 32 34 39 60 97 80 40 22 23 21 32 100 95 66
56 81 91 100 99 98 100 98 100 92 100 97 92 99 99 99 97 79 72 49 47 41 36 32 30 27 27 30 19 9 4 5 3 18 47 55 46 46 52 97 91 38 29 34 46 42 100 82 69
55 59 100 93 99 100 100 99 100 99 95 99 100 100 100 92 100 97 94 90 54 36 42 40 31 33 31 24 10 4 3 3 8 48 59 60 51 46 55 77 79 36 44 45 71 64 88 92 95
77 88 100 92 99 100 96 97 98 99 100 100 100 95 100 100 98 94 85 76 51 42 41 40 43 32 24 12 6 4 3 13 46 56 62 63 56 46 42 63 54 46 53 66 79 91 96 87 86
84 87 97 100 94 100 98 99 100 100 100 100 99 100 95 86 83 79 74 69 62 61 54 43 33 28 14 8 4 4 3 32 55 60 73 88 82 84 57 87 67 46 61 77 78 91 96 96 74
91 98 98 100 100 100 100 99 100 100 100 100 100 86 68 96 99 81 78 74 67 50 43 35 32 20 11 7 5 3 2 41 70 67 69 97 96 98 95 95 90 75 68 67 77 87 84 94 98

GFSSGP_500_rhum_111.txt.gz
RH
19 14 12 14 15 16 16 21 15 20 30 36 39 39 36 33 14 11 10 10 11 10 12 8 7 7 7 6 6 6 5 5 5 5 5 5 5 5 5 6 8 10 12 7 5 5 6 8 8
26 26 23 19 18 18 20 22 18 42 52 38 38 41 39 30 21 14 12 13 13 11 9 9 9 7 6 6 6 5 5 5 5 5 5 6 5 6 7 8 11 14 15 13 8 6 5 6 8
30 28 28 26 27 26 24 39 21 32 51 54 49 44 45 36 26 20 20 19 16 14 12 10 9 9 9 9 9 8 7 6 6 5 5 5 6 7 9 11 13 15 15 17 15 11 8 6 11
27 30 28 27 30 34 29 29 25 27 40 31 35 30 27 31 23 21 22 23 22 17 22 20 16 13 11 9 9 9 9 9 8 8 8 8 10 12 14 15 15 16 16 19 20 17 13 11 10
25 29 30 30 29 36 36 37 59 55 36 27 30 42 32 24 19 18 20 27 22 20 19 22 21 22 21 20 17 15 12 11 11 12 13 15 17 17 19 19 18 16 16 17 20 21 21 23 19
34 30 29 31 32 31 37 37 38 50 40 34 27 26 26 23 16 17 23 26 25 25 22 21 19 20 22 22 21 22 21 21 21 21 20 21 21 21 23 22 20 18 18 18 17 16 19 21 24
39 32 36 35 35 34 35 43 38 41 35 30 32 36 29 21 18 18 19 23 32 28 26 24 23 20 17 17 18 19 19 20 21 20 20 21 20 24 23 23 23 21 20 23 23 22 20 21 24
31 30 33 39 43 41 40 46 75 60 40 38 36 39 35 28 22 21 23 26 24 27 25 25 25 25 21 19 20 20 19 19 19 19 22 21 22 26 27 24 25 25 23 24 26 25 24 21 22
8 10 15 37 42 44 45 38 36 35 35 34 37 40 42 34 28 28 29 30 30 29 33 34 31 26 23 23 24 25 23 22 20 21 22 22 24 26 32 30 27 26 28 27 24 26 24 21 20
6 7 8 12 10 9 17 40 47 45 42 42 42 38 38 42 39 34 32 31 32 32 36 40 39 38 32 27 26 28 30 33 28 22 22 22 24 28 31 35 36 33 29 31 31 27 26 24 20
6 5 5 5 5 5 5 5 6 19 26 42 48 48 44 41 39 40 45 44 37 30 30 39 44 45 42 38 37 37 36 33 35 33 26 27 27 28 33 36 40 39 37 31 35 33 27 26 24
6 5 4 5 5 5 5 5 4 4 6 21 28 37 48 53 53 48 41 43 52 43 38 41 46 48 48 49 39 40 40 40 33 30 29 32 32 34 35 39 41 46 41 39 35 37 39 28 27
6 6 6 6 6 6 6 6 6 5 7 13 32 24 33 41 54 59 57 51 48 41 41 48 50 47 49 56 60 65 55 41 48 53 53 53 50 55 51 43 40 39 41 42 37 40 45 41 32
7 6 7 8 8 8 7 7 6 9 18 21 30 32 31 34 38 49 68 66 58 50 45 44 50 56 51 47 46 45 54 59 65 60 72 92 92 83 66 43 36 36 38 42 37 47 49 45 42
10 9 9 11 11 10 10 8 7 7 10 9 19 23 28 32 27 28 53 51 54 56 54 53 56 54 54 51 48 46 50 46 68 69 70 76 100 94 69 38 37 36 33 40 42 46 51 43 38
14 16 14 11 12 10 9 9 7 7 7 7 10 18 24 27 54 36 33 42 34 47 50 53 61 55 47 41 43 45 43 44 55 52 60 83 67 91 66 40 36 36 36 32 44 63 62 53 38
15 15 13 14 8 7 8 6 6 6 5 4 5 8 16 27 36 36 48 36 20 34 53 60 57 54 51 42 37 40 39 35 36 36 48 61 58 59 72 75 48 33 25 23 27 40 48 59 52
14 12 12 12 8 6 4 4 4 3 8 5 10 10 25 56 62 38 37 41 22 51 68 59 53 52 48 37 31 29 31 32 32 33 32 33 41 45 45 60 35 31 27 15 11 14 22 41 52
11 9 7 6 5 5 4 4 3 2 31 77 78 100 100 100 95 74 37 29 37 62 74 61 53 52 38 27 28 28 26 29 34 33 32 30 28 34 55 60 50 31 17 17 20 14 22 38 61
9 7 5 5 5 6 5 4 4 5 5 81 99 100 100 98 89 76 65 50 45 56 80 66 56 49 34 31 30 29 30 31 30 28 25 22 18 18 16 11 25 37 41 68 57 48 71 55 82
8 10 10 9 9 8 22 16 15 9 10 90 98 96 100 100 82 95 64 56 54 77 85 73 61 51 39 34 32 31 32 31 29 26 23 20 18 14 15 17 33 38 28 38 56 94 100 91 93
12 20 17 16 26 21 24 29 17 17 65 57 85 100 100 98 94 64 42 35 51 98 90 80 67 52 44 38 35 33 34 34 32 25 21 21 21 21 18 22 20 33 44 62 65 77 93 97 98
30 30 23 36 31 25 23 77 27 41 38 78 82 100 98 100 80 50 37 59 100 100 97 85 81 63 48 45 41 37 35 35 30 26 28 27 26 21 16 12 8 14 36 66 69 47 46 61 49
40 37 47 39 39 33 60 84 34 72 52 74 100 96 96 92 94 60 44 86 96 96 86 80 85 89 63 46 43 40 37 35 34 32 28 22 14 9 7 7 6 4 6 52 70 72 56 47 28
32 44 55 46 47 41 63 68 69 80 90 80 100 99 98 84 82 84 84 97 100 100 96 75 56 58 52 52 56 48 41 38 31 29 19 5 8 7 5 3 3 19 34 56 93 96 92 68 66
36 47 72 51 38 37 48 50 74 94 100 98 100 98 96 95 98 100 100 100 96 98 94 94 96 91 80 59 43 39 40 32 30 17 8 7 6 4 3 6 39 50 50 54 82 98 96 83 43
42 59 62 56 60 55 56 80 95 99 98 98 99 100 98 97 90 97 100 100 86 64 67 61 48 54 46 40 39 41 34 32 22 7 6 5 4 3 26 41 45 50 54 70 96 97 91 70 56
49 60 79 77 62 80 78 84 100 100 100 100 99 98 97 100 96 100 99 94 99 99 94 92 86 84 66 53 44 39 34 25 10 6 6 4 3 28 40 53 68 57 61 87 94 85 67 44 53
54 75 86 90 85 98 76 99 100 100 100 100 100 100 100 98 100 97 100 100 97 73 75 81 72 62 57 52 47 37 28 13 7 6 5 4 6 31 42 82 94 60 76 97 93 60 40 44 70
55 58 97 96 100 100 100 98 100 100 100 100 99 79 100 100 100 100 89 72 62 76 64 60 62 61 60 56 40 33 15 11 7 7 6 4 9 44 60 91 99 94 93 96 77 71 50 57 99

GFSSGP_500_rhum_114.txt.gz
RH
20 17 11 12 14 16 17 16 15 16 27 34 32 38 40 35 35 32 30 22 14 13 14 13 12 8 6 6 6 6 5 5 5 5 5 4 4 4 4 5 5 6 7 10 12 7 4 5 6
21 24 24 25 23 20 19 19 18 18 19 33 39 41 40 42 37 33 28 26 23 18 15 13 10 9 9 8 6 6 5 5 5 5 5 5 5 5 6 7 8 9 11 14 14 13 9 8 7
14 17 23 26 28 30 24 20 20 24 27 25 26 27 26 26 30 35 35 24 22 22 18 16 13 11 10 9 10 9 9 8 8 8 8 8 7 7 7 9 12 14 14 15 15 16 14 11 8
19 17 17 22 30 35 31 27 24 23 28 34 35 28 29 32 41 41 32 22 27 28 25 24 22 19 15 13 12 11 10 10 10 9 9 9 11 11 14 16 16 16 17 15 15 17 20 18 16
24 23 20 19 30 36 38 32 28 27 28 35 37 33 31 32 31 33 27 28 28 23 22 23 21 24 24 23 21 20 19 18 17 16 15 16 18 19 20 20 19 18 19 18 18 19 19 20 22
27 26 26 25 29 36 40 42 34 34 41 33 27 28 27 29 28 25 28 28 33 28 27 24 24 20 21 20 20 22 22 22 22 21 21 21 19 21 20 21 20 18 19 19 20 20 22 24 24
27 28 31 32 34 41 45 42 42 38 37 36 33 31 30 34 34 26 26 27 33 41 32 30 27 28 26 23 20 18 19 20 20 21 20 19 17 19 21 19 18 18 21 21 21 21 22 26 26
14 15 17 25 37 43 44 39 33 33 37 34 33 33 32 39 40 36 28 27 27 37 40 33 31 29 28 27 26 23 20 20 21 21 21 20 19 20 20 19 18 19 22 22 21 24 24 26 26
9 9 8 12 20 38 44 41 36 35 34 34 35 38 38 41 36 36 37 31 27 26 32 38 36 37 39 38 32 26 25 24 24 25 26 25 22 22 21 21 20 21 23 24 24 26 26 27 28
8 7 6 8 9 11 18 21 46 39 39 42 39 36 40 44 43 39 38 40 39 33 28 28 35 40 42 44 44 41 33 28 27 31 33 35 31 25 23 22 24 23 22 21 24 26 28 32 32
11 10 7 6 5 5 6 7 8 8 13 15 12 8 6 9 9 30 49 50 48 36 34 34 32 38 42 48 50 50 47 42 36 34 35 39 38 34 27 27 29 28 26 23 22 25 28 37 38
14 11 10 7 6 6 6 5 6 7 6 7 8 11 10 7 6 6 7 20 52 52 42 40 40 50 48 48 51 52 51 51 46 41 41 42 40 35 31 29 35 34 31 26 23 24 29 31 38
15 13 11 9 7 6 6 6 7 8 8 8 9 10 12 15 12 11 11 7 8 28 52 54 49 48 73 56 56 53 50 54 71 59 47 38 39 41 43 46 57 50 45 36 31 26 25 25 31
19 15 13 10 9 10 8 6 8 9 12 11 10 9 7 7 11 11 11 13 6 5 11 27 46 53 60 59 57 61 58 67 68 63 75 78 62 66 69 81 90 86 67 45 35 32 31 29 29
22 19 16 13 12 11 10 7 9 10 9 9 10 9 7 7 7 10 7 6 9 11 9 9 28 54 74 74 60 59 63 65 67 64 67 74 87 95 86 82 84 96 88 44 34 34 34 32 34
25 22 20 17 16 14 12 11 12 12 12 12 11 9 6 5 6 6 5 5 5 5 9 17 36 63 67 65 61 62 57 54 56 59 68 73 61 65 88 94 96 96 91 50 38 37 34 34 38
23 28 29 24 21 17 14 18 16 12 11 10 6 4 4 6 15 7 4 4 4 4 5 8 37 64 57 54 58 58 55 50 45 43 49 55 63 81 66 75 76 92 93 94 57 39 35 35 41
24 22 22 21 18 14 11 12 9 7 6 6 5 4 4 8 20 12 5 4 4 4 6 11 42 58 77 75 61 55 56 50 45 41 40 40 39 43 49 52 54 63 72 74 97 83 38 28 33
20 20 18 15 14 14 12 14 13 12 9 6 4 4 12 32 96 42 13 7 6 6 10 25 58 77 90 89 76 60 56 50 37 34 33 32 32 33 32 35 32 30 42 58 74 90 100 98 85
18 17 18 17 16 15 13 12 10 8 5 8 11 13 94 99 97 86 93 65 41 26 25 38 56 89 86 80 74 68 58 46 32 30 35 33 29 29 30 28 26 24 22 25 48 67 95 99 97
21 19 18 17 15 14 11 9 7 5 9 13 15 17 37 65 99 100 100 100 86 64 67 58 51 76 91 88 78 65 57 48 37 33 34 34 32 30 26 25 23 22 22 19 17 28 52 76 67
20 20 19 16 13 9 11 10 5 8 12 22 34 21 25 20 58 66 95 98 61 70 60 76 63 100 98 90 80 68 59 49 40 36 34 33 30 28 27 25 25 24 22 22 20 20 34 53 49
19 16 15 20 18 15 12 25 8 11 35 51 61 48 38 44 100 98 99 81 77 72 62 95 100 98 97 92 83 73 60 46 40 38 35 30 29 30 28 28 26 23 24 24 25 24 19 26 44
16 21 45 38 30 20 22 32 12 24 34 66 66 54 58 55 58 93 97 99 81 82 83 85 97 96 99 90 82 82 79 57 44 40 37 32 29 29 30 30 26 24 20 18 10 6 5 6 13
36 55 58 48 35 20 30 33 26 23 43 79 75 96 83 48 80 67 87 96 94 82 77 98 97 96 97 85 82 86 78 75 55 44 38 33 31 34 34 29 24 13 11 9 6 6 4 16 11
54 60 62 67 33 34 30 39 25 30 61 73 76 100 88 100 89 92 93 100 100 92 92 96 99 98 93 99 75 44 47 50 47 51 61 42 37 33 30 22 8 6 6 5 3 3 10 50 50
59 59 71 57 61 43 38 42 44 51 80 97 98 98 100 100 100 92 73 89 100 100 97 99 90 81 86 84 91 88 79 71 51 52 44 40 34 31 18 7 4 5 3 9 24 35 39 48 50
80 66 69 71 69 54 54 40 47 76 100 100 100 100 100 100 99 100 100 100 100 100 100 98 91 94 93 98 97 96 88 44 47 49 43 36 32 20 8 6 6 3 3 27 35 46 57 54 54
100 72 76 93 83 69 55 54 62 85 97 96 100 100 100 100 100 100 100 100 99 100 99 89 78 64 60 58 60 69 72 60 53 44 41 37 23 10 7 6 5 3 14 44 54 71 51 57 96
100 86 80 88 99 83 66 91 63 98 100 91 96 100 100 100 100 100 100 100 99 98 98 83 77 53 52 55 45 43 56 55 54 48 38 29 15 8 9 8 5 3 37 50 81 84 78 82 98

GFSSGP_500_rhum_120.txt.gz
RH
19 16 11 10 18 22 19 13 11 13 14 14 14 14 14 14 22 32 33 36 36 36 38 36 32 24 15 13 12 10 9 7 6 5 5 6 6 7 7 6 6 6 6 7 9 10 11 13 9
21 22 20 15 16 16 16 18 22 17 14 17 17 16 15 16 20 27 31 38 40 40 40 38 40 27 23 17 15 13 10 9 9 8 9 10 10 10 10 10 9 9 10 13 14 14 14 14 14
24 24 23 19 18 17 17 19 25 24 21 19 19 21 21 19 18 19 23 28 40 44 43 45 47 36 28 23 20 18 15 13 12 11 12 12 12 12 12 12 14 16 18 18 17 17 17 15 15
25 26 25 25 22 22 20 19 24 27 26 24 22 29 33 31 25 23 24 30 32 38 46 50 38 32 30 28 27 26 25 22 21 20 20 19 20 20 19 18 22 23 22 21 21 21 19 17 18
24 26 28 28 28 28 24 22 30 32 29 27 27 26 26 30 30 30 30 35 40 44 46 46 33 30 30 27 27 28 26 24 23 24 23 22 23 24 25 26 27 26 23 21 22 24 22 20 18
18 22 25 30 33 33 31 29 32 29 33 31 29 31 32 32 32 32 33 36 43 45 42 34 33 30 28 29 30 30 29 28 28 27 26 25 22 23 25 29 29 27 25 23 22 23 24 23 21
12 15 21 32 39 37 34 31 28 27 31 33 30 33 35 36 35 37 37 41 46 50 44 35 33 34 32 29 29 30 30 30 31 30 31 29 28 25 25 28 30 30 27 27 26 22 21 22 23
8 9 11 21 35 40 36 34 31 32 37 37 38 36 37 37 36 36 38 42 45 44 45 48 43 39 38 36 33 31 31 28 26 27 28 28 28 28 29 30 30 32 31 30 29 26 24 22 23
9 8 8 8 10 14 29 33 33 40 42 44 43 43 41 38 38 39 41 42 45 48 45 42 49 47 41 41 39 37 37 35 32 31 34 37 34 30 30 30 33 35 36 36 32 31 28 24 22
12 12 12 12 11 8 7 9 17 36 48 49 51 49 46 44 38 32 33 24 26 33 41 48 46 50 48 46 48 43 39 38 39 38 41 44 44 41 37 34 34 37 39 42 42 38 35 33 25
13 14 14 15 14 13 9 7 7 8 18 24 25 22 15 7 6 6 6 5 5 5 7 14 27 38 54 58 54 52 51 47 40 39 44 47 49 49 46 42 39 41 45 46 46 45 41 38 33
16 17 16 16 17 18 16 13 9 7 6 6 6 5 5 5 5 5 5 5 5 5 6 7 6 7 10 31 66 69 62 59 59 56 52 51 52 54 54 48 44 44 45 48 49 49 48 47 46
18 20 23 26 25 23 24 22 18 15 10 8 7 7 6 6 6 6 6 6 6 7 7 9 10 10 9 8 9 36 68 74 71 80 77 67 60 64 68 66 65 59 48 47 51 55 52 50 54
23 19 20 23 27 27 26 26 25 22 19 15 12 10 10 10 10 9 9 9 9 8 8 10 11 15 15 10 9 7 19 54 78 77 73 78 78 68 68 67 67 73 71 67 68 62 57 54 57
43 32 29 29 31 32 31 30 29 27 24 18 15 13 13 14 14 16 16 14 14 14 14 14 14 16 15 18 7 8 6 10 35 69 86 78 74 77 76 77 73 80 82 87 88 94 93 84 71
37 47 43 37 35 35 32 30 32 30 28 25 24 19 19 24 24 22 20 18 16 15 12 9 8 7 8 6 5 6 16 13 22 18 41 78 88 87 88 82 82 89 93 95 92 96 96 84 97
43 40 38 39 38 34 32 28 30 30 29 28 26 25 24 22 20 18 17 16 16 15 14 13 13 12 11 10 9 5 13 17 20 23 27 40 61 76 81 78 84 92 96 96 96 96 93 94 95
47 42 38 39 41 36 32 31 28 25 24 23 21 20 19 18 17 16 12 10 8 8 8 9 9 10 8 9 5 6 5 6 9 14 24 40 58 65 73 74 79 75 76 84 91 96 94 96 98
48 42 40 44 41 33 31 28 27 25 23 22 22 21 20 18 14 10 8 8 8 8 8 7 7 8 8 6 8 8 8 14 10 12 15 30 45 68 72 72 70 70 60 58 71 77 96 97 99
48 46 46 42 42 36 29 26 28 25 23 22 22 22 18 14 13 12 12 10 8 7 7 6 6 6 6 12 38 38 23 23 49 32 24 28 47 67 80 76 70 66 59 52 54 59 66 62 74
49 48 47 42 43 41 31 26 25 24 24 23 21 20 19 18 16 14 11 8 6 5 8 25 18 12 17 70 100 100 97 97 70 92 85 45 66 96 97 89 81 75 64 53 49 45 41 38 37
39 42 40 38 36 33 30 25 24 25 24 23 23 22 20 16 13 9 7 6 5 12 27 64 42 67 98 82 95 100 90 100 100 100 97 78 88 98 100 98 90 78 67 48 45 42 39 36 34
36 40 42 42 40 37 34 33 25 24 24 24 22 20 16 11 8 6 8 9 26 26 49 51 57 64 99 99 100 98 80 88 100 97 91 96 96 85 97 95 86 68 58 46 43 41 37 33 30
42 42 42 39 37 32 29 29 22 24 24 24 20 16 12 9 7 8 9 47 64 76 61 60 63 64 93 100 97 97 98 99 98 100 100 97 94 96 81 90 88 65 53 46 40 37 32 29 25
47 47 42 37 34 30 30 28 27 27 26 23 18 15 13 9 12 16 44 85 91 98 88 63 77 100 69 100 96 99 99 96 95 96 99 96 88 98 96 83 76 70 56 41 34 32 27 23 23
45 44 42 39 36 34 33 30 30 31 29 23 22 22 22 22 22 37 43 60 96 97 91 75 66 100 88 97 100 100 100 94 98 97 96 94 82 81 96 56 51 56 51 43 36 32 31 30 30
43 44 51 69 56 52 42 42 40 36 41 33 30 37 38 32 44 66 82 87 94 100 100 100 91 100 99 92 86 98 98 98 98 85 91 54 80 100 100 99 70 65 60 43 40 39 38 39 36
47 50 57 78 94 75 60 44 35 53 61 54 54 49 55 65 93 97 89 90 76 74 88 100 100 100 100 74 76 75 91 100 100 89 52 71 38 34 84 89 83 85 87 88 67 53 62 69 57
58 58 70 95 92 72 52 36 44 70 68 66 65 61 78 96 100 90 93 97 100 87 79 76 97 100 100 98 100 97 100 99 99 76 58 34 30 25 33 87 88 72 68 69 72 86 55 48 34
78 93 100 100 95 57 42 38 63 66 74 76 79 73 93 100 98 93 82 82 94 96 100 100 100 100 100 100 100 100 100 96 81 62 53 37 24 18 20 38 64 93 92 57 50 44 41 38 26

GFSSGP_500_rhum_123.txt.gz
RH
15 18 21 20 18 15 12 13 14 15 14 15 15 16 15 14 14 17 19 24 21 21 25 28 30 26 28 26 23 17 14 12 10 10 10 9 9 9 9 9 9 8 8 8 8 11 12 11 12
15 15 17 22 21 20 17 15 14 16 20 19 18 18 19 17 17 17 18 19 22 22 23 26 29 33 38 36 27 24 20 16 13 11 11 11 11 11 11 11 10 10 11 14 16 16 14 14 15
17 15 19 21 24 22 20 20 19 18 22 23 22 23 22 24 22 21 19 20 22 22 24 30 35 38 43 39 30 26 24 23 20 18 18 17 17 16 17 18 16 15 18 19 20 19 19 17 16
18 23 23 24 26 25 24 24 25 27 28 28 26 27 33 30 28 26 26 27 27 27 29 36 41 44 44 32 30 28 28 27 25 24 23 22 24 24 25 24 23 22 22 21 21 20 20 22 19
27 22 21 25 28 28 27 27 32 33 33 34 33 38 36 34 30 30 30 32 33 35 38 43 45 47 39 30 28 27 26 26 24 22 21 21 20 20 22 25 23 22 21 19 19 18 19 24 24
27 13 15 20 26 30 32 32 30 33 35 38 37 36 35 35 35 36 38 45 46 48 48 48 48 44 37 30 28 29 29 28 27 27 26 26 26 25 22 21 23 22 22 20 20 22 22 23 26
16 8 10 15 22 27 32 36 36 38 36 36 38 38 38 39 39 40 40 42 44 44 49 51 56 50 40 34 31 32 33 32 30 29 29 28 26 26 26 26 24 24 22 23 24 24 25 26 23
9 7 8 10 13 22 32 37 38 43 46 45 41 39 40 40 39 38 38 38 38 40 44 44 46 48 46 38 33 32 34 38 40 36 33 32 31 30 30 28 28 26 26 26 27 29 27 26 26
8 7 8 8 8 8 9 10 16 28 40 43 43 43 41 41 39 39 38 38 38 41 43 44 41 41 41 42 42 40 36 36 39 42 43 41 38 38 37 37 34 30 27 28 33 36 37 33 32
12 8 9 11 12 12 12 9 8 9 11 14 20 32 38 36 36 38 38 37 37 39 33 26 32 40 46 49 48 45 45 45 42 40 40 40 44 45 44 44 43 42 38 33 31 36 38 41 39
26 24 10 12 13 14 14 13 11 8 7 7 7 9 12 16 13 12 8 6 6 7 5 5 8 8 8 7 8 24 50 50 51 50 49 45 41 45 50 50 48 47 46 43 39 38 41 42 42
25 28 32 16 15 15 16 16 15 16 13 10 8 7 6 6 6 5 5 5 5 5 5 5 6 7 10 10 9 16 23 16 19 49 58 56 53 53 54 61 59 58 53 49 45 44 44 45 48
18 23 26 31 18 19 20 23 22 22 24 20 16 14 10 8 8 9 9 8 8 8 8 8 7 7 7 8 14 22 34 33 28 13 21 49 63 70 66 66 80 88 80 65 64 66 59 49 48
15 20 28 33 40 25 19 20 22 26 27 25 29 36 19 18 16 14 11 10 11 12 12 13 14 12 12 13 15 27 29 42 32 28 15 17 41 65 83 86 80 76 84 73 73 77 81 78 70
17 23 25 29 32 38 41 31 28 28 31 32 30 31 36 27 23 21 19 16 15 15 17 20 21 21 20 18 14 14 29 31 37 38 36 24 32 53 67 74 86 87 74 78 79 80 82 81 78
23 29 30 27 30 37 42 42 38 35 33 32 32 32 31 29 26 24 24 23 22 25 25 24 21 19 17 15 13 10 11 18 17 30 36 44 36 41 63 79 77 94 96 94 94 87 87 85 85
26 29 36 36 32 37 40 37 40 39 36 34 33 32 31 30 28 28 26 25 24 21 19 17 17 16 16 14 13 13 13 12 10 20 20 13 27 34 44 70 84 90 87 86 96 97 93 86 84
24 34 40 43 48 42 40 35 33 37 35 37 32 29 26 25 24 22 21 20 20 19 17 14 11 9 8 8 7 8 11 24 19 10 11 14 13 24 26 41 60 75 92 85 81 84 92 90 96
29 38 41 42 43 37 42 38 40 37 38 36 33 30 28 25 24 23 22 20 18 17 16 16 15 15 14 12 9 8 11 38 43 27 23 13 6 7 10 13 27 42 66 90 83 80 80 76 84
41 40 42 38 40 35 35 38 37 36 37 37 33 29 26 24 23 22 21 21 20 19 19 18 17 15 13 10 27 35 23 33 20 8 7 7 6 6 7 21 23 30 46 83 84 72 74 69 63
40 39 36 33 38 38 33 34 32 30 30 28 29 29 27 26 25 23 22 21 20 19 17 12 9 7 6 5 10 18 51 43 44 81 40 20 25 14 9 10 33 52 58 83 95 82 67 65 59
41 40 36 33 30 29 29 27 25 23 24 29 29 27 24 23 22 22 22 22 19 17 12 8 5 8 14 20 39 56 50 49 97 98 93 85 89 75 50 31 38 74 92 97 99 94 83 72 66
43 41 40 37 33 28 27 30 21 22 24 24 23 23 25 26 26 24 21 16 12 10 8 6 23 48 42 44 58 72 71 90 91 100 99 98 87 75 80 71 53 68 91 100 99 97 93 85 72
45 45 44 38 37 29 30 33 22 26 26 27 27 27 27 28 26 21 16 13 10 8 8 30 65 62 66 57 72 70 96 100 86 100 96 100 96 84 92 85 64 69 59 89 100 96 95 84 69
50 49 46 41 41 40 36 34 28 27 27 31 30 30 30 29 24 19 14 12 10 10 15 43 60 93 91 77 90 93 97 100 100 100 98 97 73 84 83 81 79 65 71 64 69 96 85 74 62
52 54 52 48 44 40 35 28 24 24 29 32 36 34 32 31 30 24 20 19 21 40 41 32 50 52 61 87 100 100 99 88 100 98 99 98 85 88 70 85 85 70 63 77 76 84 96 63 58
52 52 54 49 46 43 36 30 26 30 39 40 36 30 35 42 42 39 31 38 31 32 48 53 51 53 56 80 99 100 100 100 98 100 99 99 73 72 78 53 39 73 86 66 80 85 68 51 35
55 53 51 54 55 50 40 35 31 37 46 40 37 55 61 59 56 49 44 73 81 61 65 60 52 61 58 73 81 99 99 98 92 80 99 100 97 80 40 45 44 42 67 93 82 81 73 59 38
51 47 50 59 74 71 63 36 41 52 42 52 72 76 66 63 64 56 58 68 69 80 72 71 76 81 86 64 59 61 82 100 98 97 94 94 96 84 68 31 25 25 42 72 91 91 95 80 88
47 45 57 88 100 90 100 43 55 51 49 100 92 84 68 67 76 80 70 69 72 73 72 60 55 58 61 89 100 100 100 98 92 100 98 93 87 61 45 32 27 23 19 35 74 88 73 64 62

GFSSGP_500_rhum_126.txt.gz
RH
8 8 12 12 16 20 20 18 17 16 16 16 15 15 15 15 14 16 16 16 16 16 18 19 22 25 28 29 31 27 21 17 14 12 10 9 9 9 9 10 10 11 9 10 12 15 16 16 15
7 8 13 14 15 22 24 20 19 18 18 20 20 19 18 17 17 17 17 18 19 19 21 22 24 28 32 36 39 37 28 23 19 16 13 13 13 13 14 15 16 16 13 15 18 19 19 18 18
25 24 16 13 16 24 23 21 21 22 21 25 26 24 24 22 21 21 21 22 23 25 27 28 29 32 38 41 41 40 29 27 25 23 20 20 21 21 21 21 22 21 19 19 21 21 19 19 21
27 29 30 27 21 22 26 25 25 26 28 28 31 30 29 29 28 28 27 29 31 34 36 36 38 40 43 44 43 35 28 28 26 25 21 20 22 24 24 23 22 21 20 20 22 21 18 18 22
32 34 30 21 19 24 28 29 28 30 34 40 36 34 34 35 34 33 32 35 39 41 44 44 48 49 51 49 46 37 30 28 27 26 23 22 21 22 23 22 22 20 18 16 17 19 18 18 20
34 31 22 10 13 19 25 30 31 32 36 39 45 43 40 38 36 35 35 34 36 41 48 51 51 48 45 46 43 38 32 30 30 30 28 28 28 28 28 28 27 24 22 21 21 22 22 22 21
28 25 10 8 11 15 20 27 34 38 39 40 44 45 45 45 43 42 40 40 41 42 44 49 47 49 45 40 41 37 32 30 28 30 32 32 31 31 30 30 30 29 28 25 22 25 26 27 24
27 20 7 7 8 10 14 23 34 39 40 41 46 44 43 44 45 44 44 44 43 41 42 42 42 44 43 45 45 42 39 34 31 31 32 34 34 34 34 34 33 32 31 29 27 28 30 32 32
24 16 7 8 8 8 9 9 9 10 12 17 30 38 42 45 46 45 45 45 45 44 41 42 44 47 49 48 46 46 44 41 40 35 32 31 33 35 34 37 41 40 38 36 32 29 29 33 37
20 16 18 11 9 11 10 11 11 9 8 8 8 8 11 24 32 36 42 44 44 43 39 38 39 23 14 10 16 20 23 27 37 45 43 42 40 37 36 36 38 43 44 43 43 43 38 35 37
22 15 20 29 22 10 12 13 14 13 11 10 9 8 7 6 7 12 18 19 15 8 7 7 7 7 8 9 10 10 10 13 12 15 23 41 46 47 45 42 43 41 44 46 46 46 51 56 58
28 14 14 23 24 30 14 14 15 16 15 15 15 13 12 10 8 6 6 6 6 5 6 5 6 6 8 9 10 12 12 12 11 12 20 18 20 29 44 50 48 49 45 48 53 67 65 62 57
36 14 14 16 19 23 33 23 15 18 20 20 20 21 21 18 16 18 18 13 10 8 7 6 6 6 6 6 7 9 12 12 14 19 29 30 21 17 29 42 54 60 65 63 67 74 85 84 80
31 19 14 14 14 19 24 28 36 26 19 20 22 24 25 24 24 28 36 26 19 16 15 13 12 13 14 14 15 20 24 24 15 22 26 36 43 36 20 23 40 63 66 72 85 83 81 87 88
36 25 16 14 17 23 27 31 28 34 39 27 24 21 20 28 30 28 36 43 31 19 17 15 15 16 15 19 23 23 21 20 18 16 23 35 41 50 50 37 29 36 53 61 69 79 87 88 87
45 36 25 25 24 26 29 34 35 28 33 41 40 38 32 31 31 31 30 32 32 27 23 21 23 22 24 24 22 20 19 18 16 15 12 13 20 35 44 38 37 32 45 57 57 72 82 87 78
48 42 35 28 22 26 31 37 38 38 37 44 40 38 38 36 34 32 30 30 29 28 27 26 24 23 22 20 19 18 14 12 10 9 10 13 14 14 21 34 41 32 28 62 80 66 77 82 95
41 36 33 24 29 30 34 37 37 34 40 42 40 40 40 38 36 32 29 27 25 23 22 22 21 21 20 18 17 17 17 16 16 14 12 10 10 12 15 14 22 27 18 15 29 62 80 72 90
39 35 34 36 39 36 36 36 33 30 33 35 37 37 37 37 34 31 28 26 24 23 22 22 21 20 19 18 17 16 16 17 19 24 28 23 15 10 20 16 13 11 15 15 32 31 42 50 71
42 40 42 40 39 35 30 30 25 27 31 38 39 37 35 32 29 27 25 25 25 24 21 18 16 16 16 16 16 16 13 11 12 27 28 36 36 28 32 36 23 14 10 9 12 18 26 32 54
44 45 45 40 36 35 28 28 23 25 28 30 31 31 29 28 27 26 24 22 21 22 22 21 20 20 18 16 13 11 8 7 12 12 20 40 47 47 45 35 20 16 12 10 7 6 8 22 40
42 42 41 38 36 36 30 29 26 22 27 29 28 26 25 24 23 22 22 21 20 21 21 22 21 18 15 12 9 7 7 8 15 21 49 66 72 72 56 70 53 52 29 12 21 13 7 8 27
44 44 42 40 37 34 34 30 30 24 24 27 27 27 26 26 25 23 22 22 22 22 22 21 17 13 10 8 10 15 20 32 38 52 73 79 62 48 98 98 98 87 82 62 38 36 27 14 20
47 48 46 42 39 35 35 34 32 26 32 32 31 29 27 24 24 24 24 25 25 24 19 15 13 10 9 10 39 56 60 49 53 53 64 70 93 93 99 97 94 94 86 74 66 64 52 51 57
54 51 50 46 42 43 38 37 32 29 36 35 32 29 27 26 26 27 26 24 19 17 17 17 17 25 30 44 58 55 74 70 78 79 94 88 70 100 99 98 83 83 83 81 82 82 69 70 64
53 52 52 51 52 44 34 32 29 32 34 34 33 31 29 29 30 28 22 18 21 27 28 23 22 26 47 56 52 51 60 58 80 94 97 98 95 100 96 79 67 52 54 77 94 96 81 77 85
50 51 54 53 52 47 40 33 28 31 35 36 36 35 38 37 29 23 22 24 31 36 37 29 22 25 34 37 62 65 54 78 96 98 99 98 98 100 93 68 66 62 58 46 51 64 94 98 95
57 53 55 58 57 55 40 34 30 25 33 40 45 53 42 33 28 36 36 39 42 43 37 29 31 38 53 55 51 60 71 50 66 81 94 96 97 99 99 92 90 33 31 29 37 57 57 91 94
60 53 54 65 71 73 49 40 24 26 38 49 56 49 54 53 53 50 42 36 39 45 44 37 35 42 46 54 56 56 63 64 50 62 80 89 91 96 96 97 96 64 37 46 26 23 40 91 99
60 57 55 96 78 83 87 38 45 49 64 76 62 48 60 76 68 59 49 44 36 34 42 45 44 53 56 54 50 45 41 76 89 71 90 94 83 83 94 87 66 48 28 25 25 18 23 49 89

GFSSGP_500_rhum_132.txt.gz
RH
7 7 7 7 10 10 28 63 42 37 16 15 18 17 15 14 14 39 33 31 24 26 18 19 22 26 29 32 33 35 37 36 35 28 20 17 14 10 9 8 10 11 13 15 15 14 15 16 16
7 8 8 8 12 18 61 59 57 34 29 27 21 22 19 16 16 18 22 18 18 20 20 24 28 32 36 39 39 41 41 39 34 27 27 24 20 16 14 14 15 17 18 17 18 18 17 16 16
7 12 16 17 20 28 66 70 48 24 34 30 27 24 22 22 22 22 22 20 21 23 25 29 34 36 40 45 45 43 38 38 35 28 25 25 25 24 21 22 22 20 19 17 17 17 17 15 14
9 16 22 26 30 79 47 54 27 36 40 29 28 27 28 26 26 25 25 25 28 31 33 37 40 43 46 46 45 42 39 38 41 37 28 26 24 24 23 21 21 20 18 16 15 17 16 16 16
9 20 24 24 37 72 41 40 28 25 22 30 34 30 28 30 32 30 32 35 37 36 37 39 42 44 45 46 42 40 39 40 40 44 35 27 26 24 26 27 28 27 26 24 20 18 20 20 20
11 20 24 34 88 89 49 31 12 15 24 29 35 31 29 36 36 39 40 38 37 37 39 42 42 42 42 41 40 41 38 41 43 44 44 32 28 27 25 25 27 29 30 30 28 26 24 23 21
12 19 23 35 93 85 45 12 10 14 21 20 41 51 30 31 36 40 44 39 40 40 42 44 45 46 45 45 43 40 37 39 39 39 42 43 38 31 30 30 30 31 30 30 28 28 30 28 27
11 16 21 35 41 72 26 18 9 9 12 29 40 50 25 33 48 52 49 41 40 38 40 41 43 42 46 46 43 40 40 42 40 39 41 41 42 42 39 36 35 35 37 37 39 40 44 46 41
10 20 31 79 77 38 24 19 14 9 9 9 12 17 18 22 37 45 47 38 36 42 42 39 43 48 50 49 46 42 44 45 41 32 34 39 43 45 46 45 45 44 42 41 40 40 40 47 51
16 25 38 30 34 31 24 21 26 16 11 12 12 11 10 9 8 10 15 15 16 30 39 41 50 49 48 47 46 49 47 38 12 9 9 9 9 13 22 42 50 52 57 53 52 52 48 45 44
20 23 22 24 34 31 24 20 25 27 26 16 12 13 13 13 12 11 9 8 7 6 7 12 22 29 35 29 26 30 33 14 8 8 9 9 9 14 16 24 39 56 81 72 53 56 57 57 59
17 28 24 33 38 36 27 18 18 21 23 23 27 19 14 12 13 15 15 14 14 12 12 12 8 7 7 6 6 7 8 14 12 21 80 48 40 25 34 42 32 42 47 54 73 92 83 61 44
18 40 41 45 44 44 38 19 13 15 17 18 19 23 30 28 21 14 14 14 16 16 17 18 20 18 17 16 12 9 7 6 12 35 71 51 35 42 63 69 76 82 83 72 69 71 58 61 57
19 36 44 48 48 46 43 34 24 16 16 16 18 25 30 30 33 31 33 27 17 15 18 21 22 24 26 28 34 38 31 18 14 10 10 14 21 20 30 34 42 52 38 38 53 67 93 95 93
24 41 46 45 46 45 44 42 37 33 28 23 24 25 25 31 37 34 29 32 39 36 35 33 28 30 31 30 30 41 54 54 59 40 30 18 22 30 46 46 38 26 25 27 28 50 55 65 69
52 50 51 49 46 46 45 41 40 35 32 31 29 28 28 31 36 34 34 34 35 36 33 33 34 35 35 33 31 31 31 30 29 28 28 27 27 29 32 33 24 19 18 18 17 18 19 20 26
54 55 52 48 51 48 45 45 42 39 35 34 33 34 29 30 34 30 27 26 29 30 29 29 30 32 33 32 30 28 27 25 24 24 22 22 21 21 21 22 22 20 17 14 13 11 10 11 13
59 49 46 43 49 50 46 42 42 39 37 32 34 35 28 24 25 24 23 22 22 22 24 26 27 28 29 29 27 26 25 24 23 23 23 22 22 22 21 20 19 19 19 17 15 15 16 13 10
59 53 52 50 54 59 52 44 41 40 39 30 32 31 27 22 21 22 22 21 21 22 21 22 23 22 21 19 18 18 18 18 18 18 18 17 17 18 17 17 16 16 16 18 23 24 22 20 18
66 59 51 50 62 63 50 45 42 41 43 29 34 25 26 22 19 22 22 23 23 22 21 20 20 20 20 20 20 19 18 16 14 12 11 11 11 11 12 14 14 14 13 13 14 19 19 17 19
62 59 55 68 62 57 54 46 44 40 33 28 34 28 28 24 21 19 20 21 21 22 22 21 21 20 19 17 15 14 13 12 11 10 10 10 11 11 13 13 13 13 12 13 13 12 14 18 21
67 63 67 73 70 58 51 42 45 30 32 26 28 29 26 26 24 23 21 22 22 19 19 19 19 18 17 16 16 15 14 12 12 13 15 14 14 13 12 12 10 9 8 8 39 20 28 32 35
69 70 63 65 62 51 49 48 36 43 31 26 25 24 25 25 24 23 24 22 21 20 18 18 17 14 12 12 13 14 13 12 11 11 13 14 12 10 10 10 12 18 21 19 18 35 40 42 46
73 61 71 69 52 42 43 49 34 51 58 29 23 24 28 24 23 23 23 23 21 20 18 15 13 11 12 16 17 14 12 13 14 19 18 16 14 13 20 37 46 60 55 51 35 30 34 37 58
60 56 59 48 43 34 47 56 44 55 54 45 31 27 26 27 25 24 24 24 22 19 16 12 11 15 24 20 15 15 15 20 26 28 23 25 27 32 52 66 70 64 66 67 61 51 53 74 76
64 62 53 47 46 48 78 60 60 63 47 55 50 34 31 29 28 26 25 23 20 16 12 14 21 25 21 18 19 20 26 29 26 21 19 40 56 55 51 63 70 74 83 94 88 82 74 90 98
67 60 52 52 53 57 54 57 61 52 46 50 48 40 36 37 32 29 26 24 19 15 19 25 27 26 22 25 25 26 24 22 19 19 19 25 44 49 52 64 71 86 97 81 89 92 89 80 100
90 66 61 62 58 61 56 61 61 63 51 54 48 44 43 38 34 30 26 25 24 24 29 30 31 27 25 32 32 27 29 29 23 19 20 19 32 50 61 73 100 100 100 98 100 100 87 83 84
72 68 69 72 69 71 68 65 63 68 69 56 52 47 48 47 38 34 32 32 32 32 36 38 34 29 32 48 46 32 38 29 24 32 34 40 40 44 49 80 90 99 100 100 100 100 79 82 69
87 84 96 98 77 91 83 63 73 70 88 87 64 58 60 64 48 52 45 46 44 44 45 45 32 32 33 48 56 50 36 34 33 36 36 34 37 39 42 76 100 99 99 100 100 86 77 69 49

GFSSGP_500_rhum_135.txt.gz
RH
8 8 8 7 8 13 26 52 39 26 35 39 31 21 20 16 19 26 44 63 60 42 34 34 21 27 31 33 38 38 35 35 34 34 29 26 21 18 15 12 10 11 13 14 15 15 15 14 14
9 8 8 9 16 23 27 39 60 32 38 55 45 39 34 20 17 26 33 47 42 27 20 27 24 28 35 38 41 41 41 37 36 35 32 27 28 26 22 18 17 18 18 18 16 15 14 14 14
8 8 9 12 20 28 45 42 48 58 57 58 55 49 32 23 22 20 19 19 23 22 23 26 31 34 39 43 42 39 43 39 38 39 37 28 27 28 27 24 21 20 20 18 16 14 13 12 11
8 8 10 17 25 27 30 27 28 37 45 46 49 38 28 27 26 24 24 26 28 30 32 35 38 41 44 42 39 37 39 36 36 38 40 38 28 27 27 26 24 21 21 21 21 18 16 17 15
8 8 10 24 26 39 38 23 39 53 48 25 20 22 27 29 29 29 31 32 34 33 35 38 40 43 45 40 37 36 36 35 35 38 39 41 32 28 27 27 28 28 28 27 24 24 24 24 21
7 8 13 21 22 22 58 23 54 63 33 13 15 19 24 29 35 32 33 32 34 37 35 40 40 40 38 39 39 37 37 37 35 38 38 37 40 34 31 29 29 29 29 28 27 25 24 24 25
8 7 15 18 18 68 58 37 38 32 14 10 17 20 22 28 37 37 38 38 36 29 36 39 39 39 42 42 40 36 36 37 36 37 40 38 39 40 38 35 34 34 36 34 32 31 29 28 32
7 7 15 32 31 26 15 24 32 25 12 10 15 15 16 22 49 53 34 33 33 32 36 39 41 44 47 45 43 42 40 39 38 38 39 43 41 42 43 45 43 38 35 35 35 35 36 36 38
6 8 19 22 27 17 21 26 27 24 21 14 10 9 9 9 13 25 18 22 26 40 50 49 49 50 47 44 44 44 42 39 37 39 40 40 39 45 47 47 48 48 47 47 46 45 41 40 40
8 9 12 18 19 22 27 22 25 21 22 21 21 13 11 12 11 10 9 8 8 8 11 16 19 19 20 27 34 37 37 36 36 53 38 18 12 11 10 12 18 27 42 46 52 52 51 51 52
9 13 14 21 25 19 39 37 26 20 18 25 25 25 26 13 13 12 13 13 13 12 9 8 7 7 7 8 10 10 10 9 10 16 23 55 21 9 17 16 16 24 33 40 56 67 70 68 47
11 12 14 19 24 32 38 38 35 17 17 19 22 22 24 23 28 24 20 16 14 15 15 15 16 17 17 16 15 12 8 6 6 8 8 10 17 39 79 46 43 52 47 58 60 52 49 64 61
8 15 16 12 19 43 42 43 43 32 23 17 16 19 20 18 23 28 30 31 30 22 14 14 15 16 17 18 20 21 22 22 27 32 32 31 21 14 15 14 14 34 50 82 80 64 48 53 82
10 12 15 13 31 43 44 46 44 32 34 32 29 23 24 21 26 26 27 30 30 29 30 34 31 21 18 21 22 22 30 35 39 40 43 43 50 54 58 53 31 18 18 25 37 43 40 38 36
13 13 16 18 25 40 45 44 43 34 43 42 42 36 32 29 27 27 28 31 32 34 33 31 34 37 37 35 35 34 33 32 32 31 30 31 36 38 43 37 40 33 30 32 40 39 25 21 22
29 31 35 35 40 43 46 43 39 40 41 41 37 35 30 31 31 31 30 30 30 28 27 29 29 29 28 27 28 28 29 31 32 32 31 29 28 26 25 25 24 24 23 27 26 28 24 19 18
30 32 46 47 44 48 48 49 49 49 46 45 36 32 29 32 35 30 28 28 27 23 22 23 23 22 22 22 23 25 26 27 27 27 26 25 25 24 24 22 22 22 22 21 20 20 21 20 17
44 52 58 57 58 56 54 52 50 51 48 48 42 35 24 30 35 30 26 23 23 22 21 21 20 20 19 19 20 20 19 18 18 19 19 19 20 19 18 17 18 18 19 19 19 20 19 18 17
59 59 61 60 54 54 54 55 54 61 58 45 38 26 24 27 26 26 25 25 23 22 21 20 20 20 20 20 19 19 19 18 17 16 16 15 14 14 13 12 13 14 14 14 15 16 16 15 15
67 68 64 61 55 58 50 49 50 53 55 50 44 35 30 25 25 26 25 24 22 21 20 20 21 21 21 18 15 15 14 15 14 14 12 10 10 11 10 10 10 9 9 8 8 8 11 11 11
62 64 64 65 55 47 45 46 48 59 59 52 42 35 28 28 24 24 24 22 23 22 21 21 22 19 16 15 14 12 12 10 8 7 6 10 10 11 11 11 11 12 11 11 12 9 9 11 11
58 54 56 61 50 51 51 42 52 59 56 46 41 36 32 29 26 26 24 22 22 21 19 17 16 15 15 14 13 11 8 6 6 6 10 13 13 12 11 11 12 14 15 16 15 14 13 12 12
67 65 59 55 58 59 59 60 46 54 47 46 42 35 32 32 30 28 24 23 21 20 18 17 16 16 16 16 12 8 6 5 6 9 14 15 13 12 13 13 13 13 12 11 10 10 9 10 13
76 73 68 63 63 53 57 65 38 48 45 37 34 33 34 42 40 34 30 26 25 23 21 19 17 17 17 14 11 6 6 11 14 16 17 14 13 12 11 16 20 18 16 16 23 23 18 23 44
99 92 86 78 68 50 61 68 43 46 42 35 35 38 55 48 43 39 34 30 30 27 24 21 18 17 15 12 8 8 15 18 20 19 17 16 16 18 19 18 16 20 24 28 42 58 59 61 58
93 99 94 99 81 71 71 59 49 48 45 45 43 46 54 59 47 42 38 36 34 29 26 23 20 15 11 9 10 14 21 25 22 26 28 23 23 22 20 18 16 17 29 41 37 50 61 69 64
91 80 89 100 97 83 65 68 58 52 50 49 50 54 59 55 51 47 43 39 38 32 25 22 18 16 17 20 21 20 23 24 24 31 31 25 26 23 17 20 23 19 30 53 44 70 78 81 77
95 96 100 95 82 81 61 59 57 56 59 66 65 69 68 64 56 51 47 41 42 41 31 28 28 29 26 29 28 26 27 26 28 41 44 33 28 22 29 32 33 39 43 50 71 74 89 94 98
78 83 83 95 90 85 74 67 61 65 69 73 80 84 81 75 70 62 53 50 52 50 41 39 40 34 33 37 35 32 29 30 49 53 43 37 30 22 25 34 33 35 39 42 88 95 99 95 98
69 74 96 96 78 96 79 68 65 70 83 96 96 83 89 84 90 77 64 59 65 71 58 46 41 38 45 44 38 32 32 56 60 47 40 38 34 25 31 34 34 37 36 40 91 92 100 99 100